<?xml version="1.0" encoding="UTF-8" standalone="no" ?>
<gpx xmlns="http://www.topografix.com/GPX/1/1" xmlns:xsi="http://www.w3.org/2001/XMLSchema-instance" xsi:schemaLocation="http://www.topografix.com/GPX/1/1 http://www.topografix.com/GPX/1/1/gpx.xsd" version="1.1" creator="VisuGPX - https://www.visugpx.com">
  <metadata>
    <name>83-CD-2012-18-11-Le Val : Circuit des Chapelles</name>
    <desc><![CDATA[Le Val : Circuit des Chapelles]]></desc>
  </metadata>
  <trk>
    <name><![CDATA[2012-11-18-le val]]></name>
    <trkseg>
      <trkpt lat="43.44406" lon="6.07179">
        <ele>246.411773</ele>
        <time>2012-11-18T07:37:05Z</time>
      </trkpt>
      <trkpt lat="43.44409" lon="6.07191">
        <ele>244.405197</ele>
        <time>2012-11-18T07:41:35Z</time>
      </trkpt>
      <trkpt lat="43.44409" lon="6.07191">
        <ele>244.268936</ele>
        <time>2012-11-18T07:41:36Z</time>
      </trkpt>
      <trkpt lat="43.44424" lon="6.072">
        <ele>245.8</ele>
        <time>2012-11-18T07:42:04Z</time>
      </trkpt>
      <trkpt lat="43.44433" lon="6.07201">
        <ele>245.7</ele>
        <time>2012-11-18T07:42:12Z</time>
      </trkpt>
      <trkpt lat="43.44441" lon="6.07201">
        <ele>245.8</ele>
        <time>2012-11-18T07:42:19Z</time>
      </trkpt>
      <trkpt lat="43.44449" lon="6.07202">
        <ele>246.4</ele>
        <time>2012-11-18T07:42:26Z</time>
      </trkpt>
      <trkpt lat="43.44457" lon="6.07203">
        <ele>247.1</ele>
        <time>2012-11-18T07:42:33Z</time>
      </trkpt>
      <trkpt lat="43.44465" lon="6.07207">
        <ele>247.7</ele>
        <time>2012-11-18T07:42:40Z</time>
      </trkpt>
      <trkpt lat="43.44466" lon="6.07208">
        <ele>247.7</ele>
        <time>2012-11-18T07:42:41Z</time>
      </trkpt>
      <trkpt lat="43.44481" lon="6.07215">
        <ele>248.5</ele>
        <time>2012-11-18T07:42:57Z</time>
      </trkpt>
      <trkpt lat="43.44489" lon="6.07216">
        <ele>249.2</ele>
        <time>2012-11-18T07:43:04Z</time>
      </trkpt>
      <trkpt lat="43.44498" lon="6.07214">
        <ele>249.6</ele>
        <time>2012-11-18T07:43:12Z</time>
      </trkpt>
      <trkpt lat="43.44506" lon="6.07208">
        <ele>250.5</ele>
        <time>2012-11-18T07:43:21Z</time>
      </trkpt>
      <trkpt lat="43.44514" lon="6.07203">
        <ele>251.3</ele>
        <time>2012-11-18T07:43:30Z</time>
      </trkpt>
      <trkpt lat="43.44521" lon="6.072">
        <ele>252.1</ele>
        <time>2012-11-18T07:43:37Z</time>
      </trkpt>
      <trkpt lat="43.44529" lon="6.07198">
        <ele>252.9</ele>
        <time>2012-11-18T07:43:45Z</time>
      </trkpt>
      <trkpt lat="43.4453" lon="6.07197">
        <ele>253.2</ele>
        <time>2012-11-18T07:43:46Z</time>
      </trkpt>
      <trkpt lat="43.44544" lon="6.07187">
        <ele>255.6</ele>
        <time>2012-11-18T07:44:04Z</time>
      </trkpt>
      <trkpt lat="43.4455" lon="6.0718">
        <ele>256.4</ele>
        <time>2012-11-18T07:44:11Z</time>
      </trkpt>
      <trkpt lat="43.44558" lon="6.07178">
        <ele>257.1</ele>
        <time>2012-11-18T07:44:19Z</time>
      </trkpt>
      <trkpt lat="43.44566" lon="6.07181">
        <ele>257.6</ele>
        <time>2012-11-18T07:44:26Z</time>
      </trkpt>
      <trkpt lat="43.44575" lon="6.0718">
        <ele>258.3</ele>
        <time>2012-11-18T07:44:34Z</time>
      </trkpt>
      <trkpt lat="43.44583" lon="6.07182">
        <ele>258.5</ele>
        <time>2012-11-18T07:44:43Z</time>
      </trkpt>
      <trkpt lat="43.44591" lon="6.07181">
        <ele>259.4</ele>
        <time>2012-11-18T07:44:52Z</time>
      </trkpt>
      <trkpt lat="43.44593" lon="6.07181">
        <ele>259.6</ele>
        <time>2012-11-18T07:44:53Z</time>
      </trkpt>
      <trkpt lat="43.44608" lon="6.07179">
        <ele>260.3</ele>
        <time>2012-11-18T07:45:06Z</time>
      </trkpt>
      <trkpt lat="43.44617" lon="6.07179">
        <ele>261.1</ele>
        <time>2012-11-18T07:45:14Z</time>
      </trkpt>
      <trkpt lat="43.44625" lon="6.0718">
        <ele>262.1</ele>
        <time>2012-11-18T07:45:20Z</time>
      </trkpt>
      <trkpt lat="43.44633" lon="6.07177">
        <ele>262.8</ele>
        <time>2012-11-18T07:45:26Z</time>
      </trkpt>
      <trkpt lat="43.44642" lon="6.07175">
        <ele>262.9</ele>
        <time>2012-11-18T07:45:33Z</time>
      </trkpt>
      <trkpt lat="43.4465" lon="6.07173">
        <ele>263.2</ele>
        <time>2012-11-18T07:45:42Z</time>
      </trkpt>
      <trkpt lat="43.44654" lon="6.07162">
        <ele>263.7</ele>
        <time>2012-11-18T07:46:18Z</time>
      </trkpt>
      <trkpt lat="43.44654" lon="6.07162">
        <ele>263.5</ele>
        <time>2012-11-18T07:46:19Z</time>
      </trkpt>
      <trkpt lat="43.44657" lon="6.0715">
        <ele>263.8</ele>
        <time>2012-11-18T07:47:52Z</time>
      </trkpt>
      <trkpt lat="43.44659" lon="6.07128">
        <ele>264.8</ele>
        <time>2012-11-18T07:48:10Z</time>
      </trkpt>
      <trkpt lat="43.44661" lon="6.07117">
        <ele>264.7</ele>
        <time>2012-11-18T07:48:17Z</time>
      </trkpt>
      <trkpt lat="43.44661" lon="6.07106">
        <ele>265.3</ele>
        <time>2012-11-18T07:48:25Z</time>
      </trkpt>
      <trkpt lat="43.44664" lon="6.07094">
        <ele>265.9</ele>
        <time>2012-11-18T07:48:34Z</time>
      </trkpt>
      <trkpt lat="43.44665" lon="6.07083">
        <ele>266.4</ele>
        <time>2012-11-18T07:48:43Z</time>
      </trkpt>
      <trkpt lat="43.44667" lon="6.07071">
        <ele>267.1</ele>
        <time>2012-11-18T07:48:51Z</time>
      </trkpt>
      <trkpt lat="43.44667" lon="6.07059">
        <ele>267.1</ele>
        <time>2012-11-18T07:48:58Z</time>
      </trkpt>
      <trkpt lat="43.44667" lon="6.07058">
        <ele>267.4</ele>
        <time>2012-11-18T07:48:59Z</time>
      </trkpt>
      <trkpt lat="43.44677" lon="6.0704">
        <ele>269.2</ele>
        <time>2012-11-18T07:49:18Z</time>
      </trkpt>
      <trkpt lat="43.44678" lon="6.07029">
        <ele>269.9</ele>
        <time>2012-11-18T07:49:27Z</time>
      </trkpt>
      <trkpt lat="43.4468" lon="6.07017">
        <ele>270.5</ele>
        <time>2012-11-18T07:49:36Z</time>
      </trkpt>
      <trkpt lat="43.44681" lon="6.07007">
        <ele>272.6</ele>
        <time>2012-11-18T07:49:46Z</time>
      </trkpt>
      <trkpt lat="43.44683" lon="6.06996">
        <ele>273.7</ele>
        <time>2012-11-18T07:49:54Z</time>
      </trkpt>
      <trkpt lat="43.44684" lon="6.06984">
        <ele>275</ele>
        <time>2012-11-18T07:50:02Z</time>
      </trkpt>
      <trkpt lat="43.44684" lon="6.06983">
        <ele>274.7</ele>
        <time>2012-11-18T07:50:03Z</time>
      </trkpt>
      <trkpt lat="43.44683" lon="6.06961">
        <ele>277.6</ele>
        <time>2012-11-18T07:50:19Z</time>
      </trkpt>
      <trkpt lat="43.44682" lon="6.06949">
        <ele>277.6</ele>
        <time>2012-11-18T07:50:27Z</time>
      </trkpt>
      <trkpt lat="43.4468" lon="6.06938">
        <ele>278.3</ele>
        <time>2012-11-18T07:50:34Z</time>
      </trkpt>
      <trkpt lat="43.44679" lon="6.06927">
        <ele>279</ele>
        <time>2012-11-18T07:50:41Z</time>
      </trkpt>
      <trkpt lat="43.4468" lon="6.06915">
        <ele>279.9</ele>
        <time>2012-11-18T07:50:48Z</time>
      </trkpt>
      <trkpt lat="43.44679" lon="6.06904">
        <ele>280.9</ele>
        <time>2012-11-18T07:50:57Z</time>
      </trkpt>
      <trkpt lat="43.44677" lon="6.06893">
        <ele>281.3</ele>
        <time>2012-11-18T07:51:07Z</time>
      </trkpt>
      <trkpt lat="43.44677" lon="6.06891">
        <ele>281.6</ele>
        <time>2012-11-18T07:51:08Z</time>
      </trkpt>
      <trkpt lat="43.44672" lon="6.06871">
        <ele>282.8</ele>
        <time>2012-11-18T07:51:22Z</time>
      </trkpt>
      <trkpt lat="43.44673" lon="6.0686">
        <ele>283.4</ele>
        <time>2012-11-18T07:51:32Z</time>
      </trkpt>
      <trkpt lat="43.44672" lon="6.06848">
        <ele>283.8</ele>
        <time>2012-11-18T07:51:42Z</time>
      </trkpt>
      <trkpt lat="43.44672" lon="6.06836">
        <ele>284.9</ele>
        <time>2012-11-18T07:51:52Z</time>
      </trkpt>
      <trkpt lat="43.4467" lon="6.06824">
        <ele>285.8</ele>
        <time>2012-11-18T07:52:04Z</time>
      </trkpt>
      <trkpt lat="43.4467" lon="6.06812">
        <ele>286.9</ele>
        <time>2012-11-18T07:52:18Z</time>
      </trkpt>
      <trkpt lat="43.4467" lon="6.06811">
        <ele>286.9</ele>
        <time>2012-11-18T07:52:19Z</time>
      </trkpt>
      <trkpt lat="43.44671" lon="6.06798">
        <ele>286.4</ele>
        <time>2012-11-18T07:53:43Z</time>
      </trkpt>
      <trkpt lat="43.44672" lon="6.06776">
        <ele>289.9</ele>
        <time>2012-11-18T07:54:04Z</time>
      </trkpt>
      <trkpt lat="43.44675" lon="6.06765">
        <ele>291.1</ele>
        <time>2012-11-18T07:54:13Z</time>
      </trkpt>
      <trkpt lat="43.44675" lon="6.06754">
        <ele>292.3</ele>
        <time>2012-11-18T07:54:24Z</time>
      </trkpt>
      <trkpt lat="43.44678" lon="6.06742">
        <ele>293.2</ele>
        <time>2012-11-18T07:54:32Z</time>
      </trkpt>
      <trkpt lat="43.44681" lon="6.06731">
        <ele>295.4</ele>
        <time>2012-11-18T07:54:41Z</time>
      </trkpt>
      <trkpt lat="43.44687" lon="6.06723">
        <ele>296.7</ele>
        <time>2012-11-18T07:54:53Z</time>
      </trkpt>
      <trkpt lat="43.44687" lon="6.06722">
        <ele>296.8</ele>
        <time>2012-11-18T07:54:54Z</time>
      </trkpt>
      <trkpt lat="43.44702" lon="6.06713">
        <ele>300.2</ele>
        <time>2012-11-18T07:55:19Z</time>
      </trkpt>
      <trkpt lat="43.4471" lon="6.06705">
        <ele>301.7</ele>
        <time>2012-11-18T07:55:29Z</time>
      </trkpt>
      <trkpt lat="43.44716" lon="6.06698">
        <ele>302.6</ele>
        <time>2012-11-18T07:55:40Z</time>
      </trkpt>
      <trkpt lat="43.44721" lon="6.06689">
        <ele>303.5</ele>
        <time>2012-11-18T07:55:50Z</time>
      </trkpt>
      <trkpt lat="43.44724" lon="6.06679">
        <ele>304.6</ele>
        <time>2012-11-18T07:55:57Z</time>
      </trkpt>
      <trkpt lat="43.44725" lon="6.06678">
        <ele>304.8</ele>
        <time>2012-11-18T07:55:58Z</time>
      </trkpt>
      <trkpt lat="43.44731" lon="6.06657">
        <ele>306.4</ele>
        <time>2012-11-18T07:56:14Z</time>
      </trkpt>
      <trkpt lat="43.44733" lon="6.06646">
        <ele>307.1</ele>
        <time>2012-11-18T07:56:22Z</time>
      </trkpt>
      <trkpt lat="43.44736" lon="6.06635">
        <ele>308</ele>
        <time>2012-11-18T07:56:35Z</time>
      </trkpt>
      <trkpt lat="43.44738" lon="6.06624">
        <ele>309.1</ele>
        <time>2012-11-18T07:56:42Z</time>
      </trkpt>
      <trkpt lat="43.4474" lon="6.06613">
        <ele>310.1</ele>
        <time>2012-11-18T07:56:50Z</time>
      </trkpt>
      <trkpt lat="43.4474" lon="6.06602">
        <ele>311.1</ele>
        <time>2012-11-18T07:56:58Z</time>
      </trkpt>
      <trkpt lat="43.4474" lon="6.066">
        <ele>311.2</ele>
        <time>2012-11-18T07:56:59Z</time>
      </trkpt>
      <trkpt lat="43.4474" lon="6.06578">
        <ele>313</ele>
        <time>2012-11-18T07:57:20Z</time>
      </trkpt>
      <trkpt lat="43.44741" lon="6.06566">
        <ele>314.4</ele>
        <time>2012-11-18T07:57:32Z</time>
      </trkpt>
      <trkpt lat="43.44743" lon="6.06555">
        <ele>316.2</ele>
        <time>2012-11-18T07:58:03Z</time>
      </trkpt>
      <trkpt lat="43.44743" lon="6.06553">
        <ele>316.4</ele>
        <time>2012-11-18T07:58:04Z</time>
      </trkpt>
      <trkpt lat="43.44748" lon="6.06533">
        <ele>317.3</ele>
        <time>2012-11-18T07:58:17Z</time>
      </trkpt>
      <trkpt lat="43.44749" lon="6.06522">
        <ele>319.3</ele>
        <time>2012-11-18T07:58:29Z</time>
      </trkpt>
      <trkpt lat="43.44749" lon="6.0651">
        <ele>320.7</ele>
        <time>2012-11-18T07:58:39Z</time>
      </trkpt>
      <trkpt lat="43.4475" lon="6.06499">
        <ele>321.5</ele>
        <time>2012-11-18T07:58:48Z</time>
      </trkpt>
      <trkpt lat="43.44751" lon="6.06487">
        <ele>323.2</ele>
        <time>2012-11-18T07:59:08Z</time>
      </trkpt>
      <trkpt lat="43.44751" lon="6.06486">
        <ele>323.3</ele>
        <time>2012-11-18T07:59:09Z</time>
      </trkpt>
      <trkpt lat="43.44751" lon="6.06463">
        <ele>327.7</ele>
        <time>2012-11-18T08:00:03Z</time>
      </trkpt>
      <trkpt lat="43.44754" lon="6.06452">
        <ele>329.7</ele>
        <time>2012-11-18T08:00:14Z</time>
      </trkpt>
      <trkpt lat="43.44754" lon="6.06451">
        <ele>329.6</ele>
        <time>2012-11-18T08:00:15Z</time>
      </trkpt>
      <trkpt lat="43.44757" lon="6.06428">
        <ele>332.2</ele>
        <time>2012-11-18T08:00:37Z</time>
      </trkpt>
      <trkpt lat="43.44754" lon="6.06417">
        <ele>334</ele>
        <time>2012-11-18T08:00:53Z</time>
      </trkpt>
      <trkpt lat="43.44752" lon="6.06405">
        <ele>336.4</ele>
        <time>2012-11-18T08:01:06Z</time>
      </trkpt>
      <trkpt lat="43.4475" lon="6.06394">
        <ele>338.8</ele>
        <time>2012-11-18T08:01:25Z</time>
      </trkpt>
      <trkpt lat="43.4475" lon="6.06393">
        <ele>339.1</ele>
        <time>2012-11-18T08:01:26Z</time>
      </trkpt>
      <trkpt lat="43.44742" lon="6.06373">
        <ele>344.4</ele>
        <time>2012-11-18T08:02:03Z</time>
      </trkpt>
      <trkpt lat="43.44734" lon="6.06367">
        <ele>345.1</ele>
        <time>2012-11-18T08:02:30Z</time>
      </trkpt>
      <trkpt lat="43.44733" lon="6.06367">
        <ele>345.6</ele>
        <time>2012-11-18T08:02:31Z</time>
      </trkpt>
      <trkpt lat="43.44727" lon="6.06346">
        <ele>349.3</ele>
        <time>2012-11-18T08:02:58Z</time>
      </trkpt>
      <trkpt lat="43.44722" lon="6.06336">
        <ele>352.1</ele>
        <time>2012-11-18T08:03:27Z</time>
      </trkpt>
      <trkpt lat="43.4472" lon="6.06325">
        <ele>351.7</ele>
        <time>2012-11-18T08:05:00Z</time>
      </trkpt>
      <trkpt lat="43.4472" lon="6.06324">
        <ele>352</ele>
        <time>2012-11-18T08:05:01Z</time>
      </trkpt>
      <trkpt lat="43.44715" lon="6.06302">
        <ele>355.7</ele>
        <time>2012-11-18T08:05:32Z</time>
      </trkpt>
      <trkpt lat="43.44714" lon="6.0629">
        <ele>356.6</ele>
        <time>2012-11-18T08:05:57Z</time>
      </trkpt>
      <trkpt lat="43.44715" lon="6.06279">
        <ele>358.6</ele>
        <time>2012-11-18T08:06:17Z</time>
      </trkpt>
      <trkpt lat="43.44715" lon="6.06278">
        <ele>358.7</ele>
        <time>2012-11-18T08:06:18Z</time>
      </trkpt>
      <trkpt lat="43.44711" lon="6.06256">
        <ele>362.2</ele>
        <time>2012-11-18T08:06:59Z</time>
      </trkpt>
      <trkpt lat="43.44709" lon="6.06245">
        <ele>364</ele>
        <time>2012-11-18T08:07:13Z</time>
      </trkpt>
      <trkpt lat="43.44707" lon="6.06233">
        <ele>366</ele>
        <time>2012-11-18T08:07:39Z</time>
      </trkpt>
      <trkpt lat="43.44707" lon="6.06233">
        <ele>366.3</ele>
        <time>2012-11-18T08:07:40Z</time>
      </trkpt>
      <trkpt lat="43.44716" lon="6.06233">
        <ele>369.5</ele>
        <time>2012-11-18T08:08:50Z</time>
      </trkpt>
      <trkpt lat="43.44719" lon="6.0621">
        <ele>372.6</ele>
        <time>2012-11-18T08:09:15Z</time>
      </trkpt>
      <trkpt lat="43.44723" lon="6.06199">
        <ele>375.8</ele>
        <time>2012-11-18T08:09:42Z</time>
      </trkpt>
      <trkpt lat="43.44722" lon="6.06187">
        <ele>376.9</ele>
        <time>2012-11-18T08:10:02Z</time>
      </trkpt>
      <trkpt lat="43.44722" lon="6.06187">
        <ele>376.6</ele>
        <time>2012-11-18T08:10:03Z</time>
      </trkpt>
      <trkpt lat="43.44723" lon="6.06175">
        <ele>379.2</ele>
        <time>2012-11-18T08:11:48Z</time>
      </trkpt>
      <trkpt lat="43.44727" lon="6.0617">
        <ele>381.7</ele>
        <time>2012-11-18T08:12:38Z</time>
      </trkpt>
      <trkpt lat="43.44731" lon="6.06159">
        <ele>384.2</ele>
        <time>2012-11-18T08:12:54Z</time>
      </trkpt>
      <trkpt lat="43.44732" lon="6.06159">
        <ele>384.1</ele>
        <time>2012-11-18T08:12:55Z</time>
      </trkpt>
      <trkpt lat="43.4473" lon="6.06136">
        <ele>388.8</ele>
        <time>2012-11-18T08:13:23Z</time>
      </trkpt>
      <trkpt lat="43.44726" lon="6.06125">
        <ele>389.6</ele>
        <time>2012-11-18T08:13:33Z</time>
      </trkpt>
      <trkpt lat="43.44723" lon="6.06114">
        <ele>390.1</ele>
        <time>2012-11-18T08:13:40Z</time>
      </trkpt>
      <trkpt lat="43.44714" lon="6.06111">
        <ele>390.6</ele>
        <time>2012-11-18T08:14:12Z</time>
      </trkpt>
      <trkpt lat="43.44714" lon="6.06111">
        <ele>390.4</ele>
        <time>2012-11-18T08:14:13Z</time>
      </trkpt>
      <trkpt lat="43.44732" lon="6.06105">
        <ele>398.1</ele>
        <time>2012-11-18T08:15:21Z</time>
      </trkpt>
      <trkpt lat="43.44732" lon="6.06104">
        <ele>398.1</ele>
        <time>2012-11-18T08:15:22Z</time>
      </trkpt>
      <trkpt lat="43.44734" lon="6.06081">
        <ele>404.1</ele>
        <time>2012-11-18T08:15:49Z</time>
      </trkpt>
      <trkpt lat="43.44743" lon="6.06078">
        <ele>408.4</ele>
        <time>2012-11-18T08:16:18Z</time>
      </trkpt>
      <trkpt lat="43.44746" lon="6.06067">
        <ele>411.7</ele>
        <time>2012-11-18T08:16:42Z</time>
      </trkpt>
      <trkpt lat="43.44745" lon="6.06066">
        <ele>411.9</ele>
        <time>2012-11-18T08:16:43Z</time>
      </trkpt>
      <trkpt lat="43.44746" lon="6.06043">
        <ele>416.4</ele>
        <time>2012-11-18T08:17:03Z</time>
      </trkpt>
      <trkpt lat="43.44747" lon="6.06031">
        <ele>418</ele>
        <time>2012-11-18T08:17:17Z</time>
      </trkpt>
      <trkpt lat="43.44748" lon="6.06019">
        <ele>418.9</ele>
        <time>2012-11-18T08:18:19Z</time>
      </trkpt>
      <trkpt lat="43.44748" lon="6.06018">
        <ele>418.9</ele>
        <time>2012-11-18T08:18:20Z</time>
      </trkpt>
      <trkpt lat="43.44746" lon="6.05996">
        <ele>421.8</ele>
        <time>2012-11-18T08:18:45Z</time>
      </trkpt>
      <trkpt lat="43.44754" lon="6.05993">
        <ele>427.6</ele>
        <time>2012-11-18T08:19:35Z</time>
      </trkpt>
      <trkpt lat="43.44755" lon="6.05994">
        <ele>427.7</ele>
        <time>2012-11-18T08:19:36Z</time>
      </trkpt>
      <trkpt lat="43.44769" lon="6.05999">
        <ele>431.9</ele>
        <time>2012-11-18T08:20:03Z</time>
      </trkpt>
      <trkpt lat="43.44775" lon="6.0599">
        <ele>434.9</ele>
        <time>2012-11-18T08:20:21Z</time>
      </trkpt>
      <trkpt lat="43.44781" lon="6.05982">
        <ele>437.9</ele>
        <time>2012-11-18T08:20:45Z</time>
      </trkpt>
      <trkpt lat="43.44781" lon="6.05981">
        <ele>438.1</ele>
        <time>2012-11-18T08:20:46Z</time>
      </trkpt>
      <trkpt lat="43.44793" lon="6.05967">
        <ele>445</ele>
        <time>2012-11-18T08:21:39Z</time>
      </trkpt>
      <trkpt lat="43.44793" lon="6.05955">
        <ele>447.1</ele>
        <time>2012-11-18T08:21:57Z</time>
      </trkpt>
      <trkpt lat="43.44792" lon="6.05953">
        <ele>447</ele>
        <time>2012-11-18T08:21:58Z</time>
      </trkpt>
      <trkpt lat="43.44782" lon="6.05936">
        <ele>446.3</ele>
        <time>2012-11-18T08:22:20Z</time>
      </trkpt>
      <trkpt lat="43.44774" lon="6.05931">
        <ele>446.4</ele>
        <time>2012-11-18T08:22:38Z</time>
      </trkpt>
      <trkpt lat="43.44768" lon="6.05923">
        <ele>447.2</ele>
        <time>2012-11-18T08:22:54Z</time>
      </trkpt>
      <trkpt lat="43.4477" lon="6.05934">
        <ele>446.5</ele>
        <time>2012-11-18T08:27:56Z</time>
      </trkpt>
      <trkpt lat="43.44771" lon="6.05935">
        <ele>446.3</ele>
        <time>2012-11-18T08:27:57Z</time>
      </trkpt>
      <trkpt lat="43.44772" lon="6.05919">
        <ele>451</ele>
        <time>2012-11-18T08:29:57Z</time>
      </trkpt>
      <trkpt lat="43.44771" lon="6.05918">
        <ele>451.2</ele>
        <time>2012-11-18T08:29:58Z</time>
      </trkpt>
      <trkpt lat="43.44786" lon="6.05906">
        <ele>454.7</ele>
        <time>2012-11-18T08:30:31Z</time>
      </trkpt>
      <trkpt lat="43.44793" lon="6.05899">
        <ele>455.8</ele>
        <time>2012-11-18T08:30:40Z</time>
      </trkpt>
      <trkpt lat="43.448" lon="6.05893">
        <ele>456.9</ele>
        <time>2012-11-18T08:30:48Z</time>
      </trkpt>
      <trkpt lat="43.44808" lon="6.0589">
        <ele>457.1</ele>
        <time>2012-11-18T08:30:57Z</time>
      </trkpt>
      <trkpt lat="43.44801" lon="6.05886">
        <ele>457.6</ele>
        <time>2012-11-18T08:31:33Z</time>
      </trkpt>
      <trkpt lat="43.448" lon="6.05886">
        <ele>457.2</ele>
        <time>2012-11-18T08:31:34Z</time>
      </trkpt>
      <trkpt lat="43.44785" lon="6.05893">
        <ele>457.4</ele>
        <time>2012-11-18T08:31:46Z</time>
      </trkpt>
      <trkpt lat="43.44777" lon="6.05889">
        <ele>457.4</ele>
        <time>2012-11-18T08:32:05Z</time>
      </trkpt>
      <trkpt lat="43.44768" lon="6.05886">
        <ele>459.3</ele>
        <time>2012-11-18T08:32:21Z</time>
      </trkpt>
      <trkpt lat="43.44764" lon="6.05876">
        <ele>461.5</ele>
        <time>2012-11-18T08:32:36Z</time>
      </trkpt>
      <trkpt lat="43.44763" lon="6.05876">
        <ele>461.5</ele>
        <time>2012-11-18T08:32:37Z</time>
      </trkpt>
      <trkpt lat="43.44756" lon="6.05856">
        <ele>465.9</ele>
        <time>2012-11-18T08:35:47Z</time>
      </trkpt>
      <trkpt lat="43.44755" lon="6.05856">
        <ele>465.9</ele>
        <time>2012-11-18T08:35:48Z</time>
      </trkpt>
      <trkpt lat="43.44758" lon="6.05871">
        <ele>462.5</ele>
        <time>2012-11-18T08:40:35Z</time>
      </trkpt>
      <trkpt lat="43.44757" lon="6.05872">
        <ele>462.1</ele>
        <time>2012-11-18T08:40:36Z</time>
      </trkpt>
      <trkpt lat="43.44766" lon="6.05891">
        <ele>457.7</ele>
        <time>2012-11-18T08:41:03Z</time>
      </trkpt>
      <trkpt lat="43.44773" lon="6.05897">
        <ele>454.8</ele>
        <time>2012-11-18T08:41:16Z</time>
      </trkpt>
      <trkpt lat="43.44781" lon="6.05899">
        <ele>453.3</ele>
        <time>2012-11-18T08:41:28Z</time>
      </trkpt>
      <trkpt lat="43.4479" lon="6.05895">
        <ele>454.8</ele>
        <time>2012-11-18T08:41:38Z</time>
      </trkpt>
      <trkpt lat="43.44791" lon="6.05895">
        <ele>454.7</ele>
        <time>2012-11-18T08:41:39Z</time>
      </trkpt>
      <trkpt lat="43.44806" lon="6.059">
        <ele>454.6</ele>
        <time>2012-11-18T08:42:07Z</time>
      </trkpt>
      <trkpt lat="43.44814" lon="6.05904">
        <ele>454.7</ele>
        <time>2012-11-18T08:42:16Z</time>
      </trkpt>
      <trkpt lat="43.44823" lon="6.05902">
        <ele>455.4</ele>
        <time>2012-11-18T08:42:26Z</time>
      </trkpt>
      <trkpt lat="43.4483" lon="6.05898">
        <ele>455.1</ele>
        <time>2012-11-18T08:42:34Z</time>
      </trkpt>
      <trkpt lat="43.44838" lon="6.05895">
        <ele>455.6</ele>
        <time>2012-11-18T08:42:41Z</time>
      </trkpt>
      <trkpt lat="43.4484" lon="6.05895">
        <ele>455.6</ele>
        <time>2012-11-18T08:42:42Z</time>
      </trkpt>
      <trkpt lat="43.44854" lon="6.05902">
        <ele>456.2</ele>
        <time>2012-11-18T08:42:58Z</time>
      </trkpt>
      <trkpt lat="43.44862" lon="6.05908">
        <ele>455.9</ele>
        <time>2012-11-18T08:44:45Z</time>
      </trkpt>
      <trkpt lat="43.44862" lon="6.05908">
        <ele>455.9</ele>
        <time>2012-11-18T08:44:46Z</time>
      </trkpt>
      <trkpt lat="43.44878" lon="6.05899">
        <ele>452.5</ele>
        <time>2012-11-18T08:45:20Z</time>
      </trkpt>
      <trkpt lat="43.44885" lon="6.05892">
        <ele>452.1</ele>
        <time>2012-11-18T08:45:30Z</time>
      </trkpt>
      <trkpt lat="43.44891" lon="6.05884">
        <ele>450.6</ele>
        <time>2012-11-18T08:45:40Z</time>
      </trkpt>
      <trkpt lat="43.44897" lon="6.05876">
        <ele>450.6</ele>
        <time>2012-11-18T08:45:49Z</time>
      </trkpt>
      <trkpt lat="43.44898" lon="6.05876">
        <ele>450.6</ele>
        <time>2012-11-18T08:45:50Z</time>
      </trkpt>
      <trkpt lat="43.44911" lon="6.05862">
        <ele>450.2</ele>
        <time>2012-11-18T08:46:09Z</time>
      </trkpt>
      <trkpt lat="43.44918" lon="6.05856">
        <ele>448.3</ele>
        <time>2012-11-18T08:46:20Z</time>
      </trkpt>
      <trkpt lat="43.44926" lon="6.05851">
        <ele>446.9</ele>
        <time>2012-11-18T08:46:32Z</time>
      </trkpt>
      <trkpt lat="43.44934" lon="6.05847">
        <ele>447.6</ele>
        <time>2012-11-18T08:46:41Z</time>
      </trkpt>
      <trkpt lat="43.44941" lon="6.05841">
        <ele>447.2</ele>
        <time>2012-11-18T08:46:49Z</time>
      </trkpt>
      <trkpt lat="43.44949" lon="6.05836">
        <ele>446.3</ele>
        <time>2012-11-18T08:46:58Z</time>
      </trkpt>
      <trkpt lat="43.4495" lon="6.05835">
        <ele>446.3</ele>
        <time>2012-11-18T08:46:59Z</time>
      </trkpt>
      <trkpt lat="43.44963" lon="6.05822">
        <ele>444.4</ele>
        <time>2012-11-18T08:47:18Z</time>
      </trkpt>
      <trkpt lat="43.44969" lon="6.05814">
        <ele>443</ele>
        <time>2012-11-18T08:47:28Z</time>
      </trkpt>
      <trkpt lat="43.44976" lon="6.05807">
        <ele>442.4</ele>
        <time>2012-11-18T08:47:37Z</time>
      </trkpt>
      <trkpt lat="43.44983" lon="6.05799">
        <ele>442.1</ele>
        <time>2012-11-18T08:47:46Z</time>
      </trkpt>
      <trkpt lat="43.44987" lon="6.05789">
        <ele>443.4</ele>
        <time>2012-11-18T08:47:54Z</time>
      </trkpt>
      <trkpt lat="43.44994" lon="6.05785">
        <ele>441.7</ele>
        <time>2012-11-18T08:48:26Z</time>
      </trkpt>
      <trkpt lat="43.44996" lon="6.05784">
        <ele>441.6</ele>
        <time>2012-11-18T08:48:27Z</time>
      </trkpt>
      <trkpt lat="43.45011" lon="6.0578">
        <ele>440.9</ele>
        <time>2012-11-18T08:48:40Z</time>
      </trkpt>
      <trkpt lat="43.45017" lon="6.05775">
        <ele>440.2</ele>
        <time>2012-11-18T08:48:47Z</time>
      </trkpt>
      <trkpt lat="43.4502" lon="6.05765">
        <ele>438.7</ele>
        <time>2012-11-18T08:50:41Z</time>
      </trkpt>
      <trkpt lat="43.45022" lon="6.05763">
        <ele>438.8</ele>
        <time>2012-11-18T08:50:42Z</time>
      </trkpt>
      <trkpt lat="43.45032" lon="6.05749">
        <ele>437.5</ele>
        <time>2012-11-18T08:50:53Z</time>
      </trkpt>
      <trkpt lat="43.45037" lon="6.05739">
        <ele>436.8</ele>
        <time>2012-11-18T08:51:02Z</time>
      </trkpt>
      <trkpt lat="43.45043" lon="6.05732">
        <ele>435.9</ele>
        <time>2012-11-18T08:51:08Z</time>
      </trkpt>
      <trkpt lat="43.4505" lon="6.05723">
        <ele>434.9</ele>
        <time>2012-11-18T08:51:15Z</time>
      </trkpt>
      <trkpt lat="43.45056" lon="6.05716">
        <ele>434.3</ele>
        <time>2012-11-18T08:51:21Z</time>
      </trkpt>
      <trkpt lat="43.45062" lon="6.05708">
        <ele>432.7</ele>
        <time>2012-11-18T08:51:28Z</time>
      </trkpt>
      <trkpt lat="43.45068" lon="6.05699">
        <ele>431.2</ele>
        <time>2012-11-18T08:51:36Z</time>
      </trkpt>
      <trkpt lat="43.45072" lon="6.05689">
        <ele>429.8</ele>
        <time>2012-11-18T08:51:44Z</time>
      </trkpt>
      <trkpt lat="43.45073" lon="6.05688">
        <ele>429.7</ele>
        <time>2012-11-18T08:51:45Z</time>
      </trkpt>
      <trkpt lat="43.4508" lon="6.05669">
        <ele>427.9</ele>
        <time>2012-11-18T08:52:00Z</time>
      </trkpt>
      <trkpt lat="43.45085" lon="6.05661">
        <ele>427</ele>
        <time>2012-11-18T08:52:08Z</time>
      </trkpt>
      <trkpt lat="43.4509" lon="6.05651">
        <ele>425.4</ele>
        <time>2012-11-18T08:52:16Z</time>
      </trkpt>
      <trkpt lat="43.45093" lon="6.0564">
        <ele>422.9</ele>
        <time>2012-11-18T08:52:25Z</time>
      </trkpt>
      <trkpt lat="43.45097" lon="6.05629">
        <ele>420.9</ele>
        <time>2012-11-18T08:52:34Z</time>
      </trkpt>
      <trkpt lat="43.45101" lon="6.05619">
        <ele>419.6</ele>
        <time>2012-11-18T08:52:44Z</time>
      </trkpt>
      <trkpt lat="43.45102" lon="6.05618">
        <ele>419.5</ele>
        <time>2012-11-18T08:52:45Z</time>
      </trkpt>
      <trkpt lat="43.45111" lon="6.056">
        <ele>416.2</ele>
        <time>2012-11-18T08:53:01Z</time>
      </trkpt>
      <trkpt lat="43.45118" lon="6.05593">
        <ele>414.8</ele>
        <time>2012-11-18T08:53:09Z</time>
      </trkpt>
      <trkpt lat="43.45123" lon="6.05585">
        <ele>413.9</ele>
        <time>2012-11-18T08:53:16Z</time>
      </trkpt>
      <trkpt lat="43.45129" lon="6.05578">
        <ele>412.2</ele>
        <time>2012-11-18T08:53:24Z</time>
      </trkpt>
      <trkpt lat="43.45135" lon="6.05569">
        <ele>411.1</ele>
        <time>2012-11-18T08:53:33Z</time>
      </trkpt>
      <trkpt lat="43.4514" lon="6.05561">
        <ele>410.6</ele>
        <time>2012-11-18T08:53:40Z</time>
      </trkpt>
      <trkpt lat="43.45146" lon="6.05554">
        <ele>409.6</ele>
        <time>2012-11-18T08:53:47Z</time>
      </trkpt>
      <trkpt lat="43.45147" lon="6.05552">
        <ele>409.4</ele>
        <time>2012-11-18T08:53:48Z</time>
      </trkpt>
      <trkpt lat="43.45159" lon="6.05538">
        <ele>408</ele>
        <time>2012-11-18T08:54:03Z</time>
      </trkpt>
      <trkpt lat="43.45166" lon="6.05533">
        <ele>407.5</ele>
        <time>2012-11-18T08:54:08Z</time>
      </trkpt>
      <trkpt lat="43.45172" lon="6.05526">
        <ele>407</ele>
        <time>2012-11-18T08:54:14Z</time>
      </trkpt>
      <trkpt lat="43.45178" lon="6.05516">
        <ele>406</ele>
        <time>2012-11-18T08:54:22Z</time>
      </trkpt>
      <trkpt lat="43.45184" lon="6.05508">
        <ele>405.7</ele>
        <time>2012-11-18T08:54:29Z</time>
      </trkpt>
      <trkpt lat="43.4519" lon="6.055">
        <ele>405.6</ele>
        <time>2012-11-18T08:54:36Z</time>
      </trkpt>
      <trkpt lat="43.45196" lon="6.05491">
        <ele>404.8</ele>
        <time>2012-11-18T08:54:45Z</time>
      </trkpt>
      <trkpt lat="43.45202" lon="6.05484">
        <ele>405</ele>
        <time>2012-11-18T08:54:52Z</time>
      </trkpt>
      <trkpt lat="43.45203" lon="6.05483">
        <ele>405.1</ele>
        <time>2012-11-18T08:54:53Z</time>
      </trkpt>
      <trkpt lat="43.45215" lon="6.0547">
        <ele>405.3</ele>
        <time>2012-11-18T08:55:07Z</time>
      </trkpt>
      <trkpt lat="43.45222" lon="6.05462">
        <ele>404.9</ele>
        <time>2012-11-18T08:55:16Z</time>
      </trkpt>
      <trkpt lat="43.45228" lon="6.05454">
        <ele>404.4</ele>
        <time>2012-11-18T08:55:23Z</time>
      </trkpt>
      <trkpt lat="43.45236" lon="6.05449">
        <ele>404.2</ele>
        <time>2012-11-18T08:55:30Z</time>
      </trkpt>
      <trkpt lat="43.45243" lon="6.05456">
        <ele>401.8</ele>
        <time>2012-11-18T08:55:47Z</time>
      </trkpt>
      <trkpt lat="43.45241" lon="6.05468">
        <ele>399.7</ele>
        <time>2012-11-18T08:56:00Z</time>
      </trkpt>
      <trkpt lat="43.45241" lon="6.05469">
        <ele>399.7</ele>
        <time>2012-11-18T08:56:01Z</time>
      </trkpt>
      <trkpt lat="43.45239" lon="6.05491">
        <ele>397.9</ele>
        <time>2012-11-18T08:56:21Z</time>
      </trkpt>
      <trkpt lat="43.45237" lon="6.05502">
        <ele>397.2</ele>
        <time>2012-11-18T08:56:29Z</time>
      </trkpt>
      <trkpt lat="43.45236" lon="6.05513">
        <ele>395.8</ele>
        <time>2012-11-18T08:56:38Z</time>
      </trkpt>
      <trkpt lat="43.45235" lon="6.05525">
        <ele>394.1</ele>
        <time>2012-11-18T08:56:49Z</time>
      </trkpt>
      <trkpt lat="43.45234" lon="6.05537">
        <ele>393.2</ele>
        <time>2012-11-18T08:56:58Z</time>
      </trkpt>
      <trkpt lat="43.45234" lon="6.05549">
        <ele>391.9</ele>
        <time>2012-11-18T08:57:08Z</time>
      </trkpt>
      <trkpt lat="43.45235" lon="6.0555">
        <ele>391.6</ele>
        <time>2012-11-18T08:57:09Z</time>
      </trkpt>
      <trkpt lat="43.45229" lon="6.05569">
        <ele>390.5</ele>
        <time>2012-11-18T08:57:25Z</time>
      </trkpt>
      <trkpt lat="43.45228" lon="6.0558">
        <ele>389</ele>
        <time>2012-11-18T08:57:35Z</time>
      </trkpt>
      <trkpt lat="43.45228" lon="6.05591">
        <ele>387.8</ele>
        <time>2012-11-18T08:57:45Z</time>
      </trkpt>
      <trkpt lat="43.45226" lon="6.05603">
        <ele>386.6</ele>
        <time>2012-11-18T08:57:57Z</time>
      </trkpt>
      <trkpt lat="43.45227" lon="6.05614">
        <ele>384.7</ele>
        <time>2012-11-18T08:58:07Z</time>
      </trkpt>
      <trkpt lat="43.45224" lon="6.05625">
        <ele>383</ele>
        <time>2012-11-18T08:58:17Z</time>
      </trkpt>
      <trkpt lat="43.45224" lon="6.05626">
        <ele>382.8</ele>
        <time>2012-11-18T08:58:18Z</time>
      </trkpt>
      <trkpt lat="43.45217" lon="6.05645">
        <ele>379.8</ele>
        <time>2012-11-18T08:58:39Z</time>
      </trkpt>
      <trkpt lat="43.45215" lon="6.05656">
        <ele>378.8</ele>
        <time>2012-11-18T08:58:49Z</time>
      </trkpt>
      <trkpt lat="43.45209" lon="6.05664">
        <ele>378.3</ele>
        <time>2012-11-18T08:58:56Z</time>
      </trkpt>
      <trkpt lat="43.45205" lon="6.05674">
        <ele>377.1</ele>
        <time>2012-11-18T08:59:05Z</time>
      </trkpt>
      <trkpt lat="43.45199" lon="6.05683">
        <ele>376.4</ele>
        <time>2012-11-18T08:59:17Z</time>
      </trkpt>
      <trkpt lat="43.4519" lon="6.05687">
        <ele>375.2</ele>
        <time>2012-11-18T08:59:26Z</time>
      </trkpt>
      <trkpt lat="43.4519" lon="6.05688">
        <ele>375</ele>
        <time>2012-11-18T08:59:27Z</time>
      </trkpt>
      <trkpt lat="43.45175" lon="6.05695">
        <ele>374</ele>
        <time>2012-11-18T08:59:39Z</time>
      </trkpt>
      <trkpt lat="43.45169" lon="6.05704">
        <ele>373.3</ele>
        <time>2012-11-18T08:59:47Z</time>
      </trkpt>
      <trkpt lat="43.4517" lon="6.05715">
        <ele>372.5</ele>
        <time>2012-11-18T08:59:56Z</time>
      </trkpt>
      <trkpt lat="43.45168" lon="6.05727">
        <ele>370.9</ele>
        <time>2012-11-18T09:00:05Z</time>
      </trkpt>
      <trkpt lat="43.45169" lon="6.05739">
        <ele>369.4</ele>
        <time>2012-11-18T09:00:18Z</time>
      </trkpt>
      <trkpt lat="43.45168" lon="6.0575">
        <ele>367.8</ele>
        <time>2012-11-18T09:00:28Z</time>
      </trkpt>
      <trkpt lat="43.45168" lon="6.05752">
        <ele>367.5</ele>
        <time>2012-11-18T09:00:29Z</time>
      </trkpt>
      <trkpt lat="43.45172" lon="6.05774">
        <ele>365.4</ele>
        <time>2012-11-18T09:00:44Z</time>
      </trkpt>
      <trkpt lat="43.45168" lon="6.05783">
        <ele>364.3</ele>
        <time>2012-11-18T09:00:53Z</time>
      </trkpt>
      <trkpt lat="43.45166" lon="6.05794">
        <ele>363.8</ele>
        <time>2012-11-18T09:00:59Z</time>
      </trkpt>
      <trkpt lat="43.45165" lon="6.05806">
        <ele>362</ele>
        <time>2012-11-18T09:01:08Z</time>
      </trkpt>
      <trkpt lat="43.45166" lon="6.05817">
        <ele>360.5</ele>
        <time>2012-11-18T09:01:16Z</time>
      </trkpt>
      <trkpt lat="43.45166" lon="6.05829">
        <ele>359.7</ele>
        <time>2012-11-18T09:01:25Z</time>
      </trkpt>
      <trkpt lat="43.45169" lon="6.0584">
        <ele>357.6</ele>
        <time>2012-11-18T09:01:35Z</time>
      </trkpt>
      <trkpt lat="43.45169" lon="6.05841">
        <ele>357.4</ele>
        <time>2012-11-18T09:01:36Z</time>
      </trkpt>
      <trkpt lat="43.45172" lon="6.05864">
        <ele>353.7</ele>
        <time>2012-11-18T09:01:57Z</time>
      </trkpt>
      <trkpt lat="43.45173" lon="6.05876">
        <ele>352.9</ele>
        <time>2012-11-18T09:02:06Z</time>
      </trkpt>
      <trkpt lat="43.45169" lon="6.05886">
        <ele>351.6</ele>
        <time>2012-11-18T09:02:14Z</time>
      </trkpt>
      <trkpt lat="43.45167" lon="6.05897">
        <ele>349</ele>
        <time>2012-11-18T09:02:25Z</time>
      </trkpt>
      <trkpt lat="43.45167" lon="6.05908">
        <ele>347.2</ele>
        <time>2012-11-18T09:02:35Z</time>
      </trkpt>
      <trkpt lat="43.45169" lon="6.0592">
        <ele>345.9</ele>
        <time>2012-11-18T09:02:45Z</time>
      </trkpt>
      <trkpt lat="43.45169" lon="6.05921">
        <ele>345.7</ele>
        <time>2012-11-18T09:02:46Z</time>
      </trkpt>
      <trkpt lat="43.45166" lon="6.05942">
        <ele>344.4</ele>
        <time>2012-11-18T09:03:00Z</time>
      </trkpt>
      <trkpt lat="43.45167" lon="6.05952">
        <ele>343</ele>
        <time>2012-11-18T09:03:07Z</time>
      </trkpt>
      <trkpt lat="43.45169" lon="6.05964">
        <ele>342.4</ele>
        <time>2012-11-18T09:03:14Z</time>
      </trkpt>
      <trkpt lat="43.45171" lon="6.05975">
        <ele>341.4</ele>
        <time>2012-11-18T09:03:23Z</time>
      </trkpt>
      <trkpt lat="43.45168" lon="6.05985">
        <ele>340.8</ele>
        <time>2012-11-18T09:03:30Z</time>
      </trkpt>
      <trkpt lat="43.45167" lon="6.05997">
        <ele>340</ele>
        <time>2012-11-18T09:03:37Z</time>
      </trkpt>
      <trkpt lat="43.45168" lon="6.06008">
        <ele>339.7</ele>
        <time>2012-11-18T09:03:44Z</time>
      </trkpt>
      <trkpt lat="43.4517" lon="6.0602">
        <ele>338.9</ele>
        <time>2012-11-18T09:03:53Z</time>
      </trkpt>
      <trkpt lat="43.4517" lon="6.06021">
        <ele>338.8</ele>
        <time>2012-11-18T09:03:54Z</time>
      </trkpt>
      <trkpt lat="43.45175" lon="6.06043">
        <ele>337.4</ele>
        <time>2012-11-18T09:04:09Z</time>
      </trkpt>
      <trkpt lat="43.45177" lon="6.06055">
        <ele>336.1</ele>
        <time>2012-11-18T09:04:19Z</time>
      </trkpt>
      <trkpt lat="43.45175" lon="6.06067">
        <ele>335.5</ele>
        <time>2012-11-18T09:04:38Z</time>
      </trkpt>
      <trkpt lat="43.45183" lon="6.06068">
        <ele>334.7</ele>
        <time>2012-11-18T09:05:11Z</time>
      </trkpt>
      <trkpt lat="43.45184" lon="6.06069">
        <ele>334.9</ele>
        <time>2012-11-18T09:05:12Z</time>
      </trkpt>
      <trkpt lat="43.45198" lon="6.06059">
        <ele>333.9</ele>
        <time>2012-11-18T09:05:33Z</time>
      </trkpt>
      <trkpt lat="43.45205" lon="6.06054">
        <ele>334.4</ele>
        <time>2012-11-18T09:05:41Z</time>
      </trkpt>
      <trkpt lat="43.4521" lon="6.06043">
        <ele>333.8</ele>
        <time>2012-11-18T09:05:51Z</time>
      </trkpt>
      <trkpt lat="43.45214" lon="6.06033">
        <ele>334.3</ele>
        <time>2012-11-18T09:05:59Z</time>
      </trkpt>
      <trkpt lat="43.45218" lon="6.06023">
        <ele>334.3</ele>
        <time>2012-11-18T09:06:07Z</time>
      </trkpt>
      <trkpt lat="43.45223" lon="6.06015">
        <ele>334.4</ele>
        <time>2012-11-18T09:06:15Z</time>
      </trkpt>
      <trkpt lat="43.45224" lon="6.06014">
        <ele>334.4</ele>
        <time>2012-11-18T09:06:16Z</time>
      </trkpt>
      <trkpt lat="43.45233" lon="6.05999">
        <ele>334.2</ele>
        <time>2012-11-18T09:06:25Z</time>
      </trkpt>
      <trkpt lat="43.45237" lon="6.05989">
        <ele>334.2</ele>
        <time>2012-11-18T09:06:33Z</time>
      </trkpt>
      <trkpt lat="43.45241" lon="6.05978">
        <ele>334.2</ele>
        <time>2012-11-18T09:06:43Z</time>
      </trkpt>
      <trkpt lat="43.45245" lon="6.05968">
        <ele>334.1</ele>
        <time>2012-11-18T09:06:52Z</time>
      </trkpt>
      <trkpt lat="43.45249" lon="6.05957">
        <ele>334.4</ele>
        <time>2012-11-18T09:07:01Z</time>
      </trkpt>
      <trkpt lat="43.45254" lon="6.05948">
        <ele>334.7</ele>
        <time>2012-11-18T09:07:10Z</time>
      </trkpt>
      <trkpt lat="43.45259" lon="6.05938">
        <ele>335.5</ele>
        <time>2012-11-18T09:07:20Z</time>
      </trkpt>
      <trkpt lat="43.4526" lon="6.05937">
        <ele>335.5</ele>
        <time>2012-11-18T09:07:21Z</time>
      </trkpt>
      <trkpt lat="43.45265" lon="6.05917">
        <ele>336.5</ele>
        <time>2012-11-18T09:07:39Z</time>
      </trkpt>
      <trkpt lat="43.45273" lon="6.05911">
        <ele>337.2</ele>
        <time>2012-11-18T09:07:47Z</time>
      </trkpt>
      <trkpt lat="43.45279" lon="6.05903">
        <ele>337.2</ele>
        <time>2012-11-18T09:07:54Z</time>
      </trkpt>
      <trkpt lat="43.45282" lon="6.05893">
        <ele>337.3</ele>
        <time>2012-11-18T09:08:01Z</time>
      </trkpt>
      <trkpt lat="43.45287" lon="6.05883">
        <ele>337.5</ele>
        <time>2012-11-18T09:08:11Z</time>
      </trkpt>
      <trkpt lat="43.45293" lon="6.05874">
        <ele>337.9</ele>
        <time>2012-11-18T09:08:19Z</time>
      </trkpt>
      <trkpt lat="43.45298" lon="6.05866">
        <ele>338.3</ele>
        <time>2012-11-18T09:08:27Z</time>
      </trkpt>
      <trkpt lat="43.45299" lon="6.05864">
        <ele>338.3</ele>
        <time>2012-11-18T09:08:28Z</time>
      </trkpt>
      <trkpt lat="43.4531" lon="6.0585">
        <ele>338.9</ele>
        <time>2012-11-18T09:08:40Z</time>
      </trkpt>
      <trkpt lat="43.45313" lon="6.05839">
        <ele>339.1</ele>
        <time>2012-11-18T09:08:48Z</time>
      </trkpt>
      <trkpt lat="43.45315" lon="6.05829">
        <ele>340.2</ele>
        <time>2012-11-18T09:08:56Z</time>
      </trkpt>
      <trkpt lat="43.45318" lon="6.05817">
        <ele>339.7</ele>
        <time>2012-11-18T09:09:04Z</time>
      </trkpt>
      <trkpt lat="43.45319" lon="6.05806">
        <ele>338.3</ele>
        <time>2012-11-18T09:09:13Z</time>
      </trkpt>
      <trkpt lat="43.45323" lon="6.05796">
        <ele>337.6</ele>
        <time>2012-11-18T09:09:22Z</time>
      </trkpt>
      <trkpt lat="43.45325" lon="6.05784">
        <ele>337.5</ele>
        <time>2012-11-18T09:09:31Z</time>
      </trkpt>
      <trkpt lat="43.45325" lon="6.05782">
        <ele>337.5</ele>
        <time>2012-11-18T09:09:32Z</time>
      </trkpt>
      <trkpt lat="43.45333" lon="6.05764">
        <ele>335.7</ele>
        <time>2012-11-18T09:09:48Z</time>
      </trkpt>
      <trkpt lat="43.45335" lon="6.05752">
        <ele>335.8</ele>
        <time>2012-11-18T09:09:55Z</time>
      </trkpt>
      <trkpt lat="43.45343" lon="6.05746">
        <ele>336</ele>
        <time>2012-11-18T09:10:04Z</time>
      </trkpt>
      <trkpt lat="43.45347" lon="6.05735">
        <ele>335.8</ele>
        <time>2012-11-18T09:10:12Z</time>
      </trkpt>
      <trkpt lat="43.45352" lon="6.05726">
        <ele>335.8</ele>
        <time>2012-11-18T09:10:20Z</time>
      </trkpt>
      <trkpt lat="43.45356" lon="6.05716">
        <ele>335.9</ele>
        <time>2012-11-18T09:10:28Z</time>
      </trkpt>
      <trkpt lat="43.45357" lon="6.05704">
        <ele>335.4</ele>
        <time>2012-11-18T09:10:35Z</time>
      </trkpt>
      <trkpt lat="43.45357" lon="6.05702">
        <ele>335.5</ele>
        <time>2012-11-18T09:10:36Z</time>
      </trkpt>
      <trkpt lat="43.45363" lon="6.05683">
        <ele>335.7</ele>
        <time>2012-11-18T09:10:50Z</time>
      </trkpt>
      <trkpt lat="43.45366" lon="6.05672">
        <ele>335.5</ele>
        <time>2012-11-18T09:10:58Z</time>
      </trkpt>
      <trkpt lat="43.4537" lon="6.05663">
        <ele>335.3</ele>
        <time>2012-11-18T09:11:05Z</time>
      </trkpt>
      <trkpt lat="43.45374" lon="6.05652">
        <ele>335.6</ele>
        <time>2012-11-18T09:11:19Z</time>
      </trkpt>
      <trkpt lat="43.45378" lon="6.05642">
        <ele>335.7</ele>
        <time>2012-11-18T09:11:40Z</time>
      </trkpt>
      <trkpt lat="43.45379" lon="6.05641">
        <ele>335.7</ele>
        <time>2012-11-18T09:11:41Z</time>
      </trkpt>
      <trkpt lat="43.45386" lon="6.05623">
        <ele>335.1</ele>
        <time>2012-11-18T09:12:00Z</time>
      </trkpt>
      <trkpt lat="43.4539" lon="6.05612">
        <ele>335.2</ele>
        <time>2012-11-18T09:12:22Z</time>
      </trkpt>
      <trkpt lat="43.45395" lon="6.05602">
        <ele>334.5</ele>
        <time>2012-11-18T09:12:30Z</time>
      </trkpt>
      <trkpt lat="43.45399" lon="6.05592">
        <ele>333</ele>
        <time>2012-11-18T09:12:38Z</time>
      </trkpt>
      <trkpt lat="43.45399" lon="6.05581">
        <ele>332.7</ele>
        <time>2012-11-18T09:12:45Z</time>
      </trkpt>
      <trkpt lat="43.454" lon="6.0558">
        <ele>332.8</ele>
        <time>2012-11-18T09:12:46Z</time>
      </trkpt>
      <trkpt lat="43.45409" lon="6.05561">
        <ele>330.4</ele>
        <time>2012-11-18T09:13:01Z</time>
      </trkpt>
      <trkpt lat="43.45411" lon="6.0555">
        <ele>328.9</ele>
        <time>2012-11-18T09:13:10Z</time>
      </trkpt>
      <trkpt lat="43.45413" lon="6.05539">
        <ele>328.6</ele>
        <time>2012-11-18T09:13:18Z</time>
      </trkpt>
      <trkpt lat="43.45413" lon="6.05528">
        <ele>328</ele>
        <time>2012-11-18T09:13:25Z</time>
      </trkpt>
      <trkpt lat="43.45417" lon="6.05518">
        <ele>326.9</ele>
        <time>2012-11-18T09:13:34Z</time>
      </trkpt>
      <trkpt lat="43.45416" lon="6.05506">
        <ele>326</ele>
        <time>2012-11-18T09:13:41Z</time>
      </trkpt>
      <trkpt lat="43.45419" lon="6.05495">
        <ele>325.8</ele>
        <time>2012-11-18T09:13:51Z</time>
      </trkpt>
      <trkpt lat="43.45419" lon="6.05493">
        <ele>325.6</ele>
        <time>2012-11-18T09:13:52Z</time>
      </trkpt>
      <trkpt lat="43.45428" lon="6.05477">
        <ele>325.6</ele>
        <time>2012-11-18T09:14:07Z</time>
      </trkpt>
      <trkpt lat="43.45429" lon="6.05467">
        <ele>324.4</ele>
        <time>2012-11-18T09:14:14Z</time>
      </trkpt>
      <trkpt lat="43.45431" lon="6.05456">
        <ele>324.1</ele>
        <time>2012-11-18T09:14:22Z</time>
      </trkpt>
      <trkpt lat="43.45437" lon="6.05448">
        <ele>324</ele>
        <time>2012-11-18T09:14:29Z</time>
      </trkpt>
      <trkpt lat="43.45443" lon="6.05439">
        <ele>323.8</ele>
        <time>2012-11-18T09:14:36Z</time>
      </trkpt>
      <trkpt lat="43.45445" lon="6.05427">
        <ele>322.5</ele>
        <time>2012-11-18T09:14:44Z</time>
      </trkpt>
      <trkpt lat="43.45449" lon="6.05418">
        <ele>322.8</ele>
        <time>2012-11-18T09:14:53Z</time>
      </trkpt>
      <trkpt lat="43.45449" lon="6.05415">
        <ele>322.6</ele>
        <time>2012-11-18T09:14:54Z</time>
      </trkpt>
      <trkpt lat="43.45455" lon="6.05395">
        <ele>321</ele>
        <time>2012-11-18T09:15:07Z</time>
      </trkpt>
      <trkpt lat="43.45456" lon="6.05383">
        <ele>319.9</ele>
        <time>2012-11-18T09:15:18Z</time>
      </trkpt>
      <trkpt lat="43.45458" lon="6.05371">
        <ele>318.9</ele>
        <time>2012-11-18T09:15:29Z</time>
      </trkpt>
      <trkpt lat="43.45466" lon="6.0537">
        <ele>320.1</ele>
        <time>2012-11-18T09:15:48Z</time>
      </trkpt>
      <trkpt lat="43.45474" lon="6.05376">
        <ele>321</ele>
        <time>2012-11-18T09:16:13Z</time>
      </trkpt>
      <trkpt lat="43.45474" lon="6.05377">
        <ele>321</ele>
        <time>2012-11-18T09:16:14Z</time>
      </trkpt>
      <trkpt lat="43.45482" lon="6.05382">
        <ele>321.1</ele>
        <time>2012-11-18T09:17:45Z</time>
      </trkpt>
      <trkpt lat="43.45489" lon="6.054">
        <ele>320.6</ele>
        <time>2012-11-18T09:18:08Z</time>
      </trkpt>
      <trkpt lat="43.45496" lon="6.05407">
        <ele>321.3</ele>
        <time>2012-11-18T09:18:16Z</time>
      </trkpt>
      <trkpt lat="43.45503" lon="6.05414">
        <ele>321.2</ele>
        <time>2012-11-18T09:18:23Z</time>
      </trkpt>
      <trkpt lat="43.45511" lon="6.0542">
        <ele>321.6</ele>
        <time>2012-11-18T09:18:30Z</time>
      </trkpt>
      <trkpt lat="43.45519" lon="6.05425">
        <ele>322.3</ele>
        <time>2012-11-18T09:18:38Z</time>
      </trkpt>
      <trkpt lat="43.45526" lon="6.05431">
        <ele>322.8</ele>
        <time>2012-11-18T09:18:46Z</time>
      </trkpt>
      <trkpt lat="43.45527" lon="6.05431">
        <ele>323</ele>
        <time>2012-11-18T09:18:47Z</time>
      </trkpt>
      <trkpt lat="43.45541" lon="6.05441">
        <ele>323.6</ele>
        <time>2012-11-18T09:19:12Z</time>
      </trkpt>
      <trkpt lat="43.45548" lon="6.05446">
        <ele>323.7</ele>
        <time>2012-11-18T09:19:19Z</time>
      </trkpt>
      <trkpt lat="43.45555" lon="6.05453">
        <ele>324.3</ele>
        <time>2012-11-18T09:19:27Z</time>
      </trkpt>
      <trkpt lat="43.45563" lon="6.05457">
        <ele>324.5</ele>
        <time>2012-11-18T09:19:36Z</time>
      </trkpt>
      <trkpt lat="43.4557" lon="6.05462">
        <ele>323.8</ele>
        <time>2012-11-18T09:19:44Z</time>
      </trkpt>
      <trkpt lat="43.45576" lon="6.05467">
        <ele>323.5</ele>
        <time>2012-11-18T09:19:50Z</time>
      </trkpt>
      <trkpt lat="43.45578" lon="6.05469">
        <ele>323.4</ele>
        <time>2012-11-18T09:19:51Z</time>
      </trkpt>
      <trkpt lat="43.45591" lon="6.05478">
        <ele>323</ele>
        <time>2012-11-18T09:20:07Z</time>
      </trkpt>
      <trkpt lat="43.45599" lon="6.05484">
        <ele>321.3</ele>
        <time>2012-11-18T09:20:15Z</time>
      </trkpt>
      <trkpt lat="43.45606" lon="6.05491">
        <ele>318.3</ele>
        <time>2012-11-18T09:20:29Z</time>
      </trkpt>
      <trkpt lat="43.45613" lon="6.05498">
        <ele>316.8</ele>
        <time>2012-11-18T09:20:41Z</time>
      </trkpt>
      <trkpt lat="43.45616" lon="6.05508">
        <ele>315.2</ele>
        <time>2012-11-18T09:20:50Z</time>
      </trkpt>
      <trkpt lat="43.45618" lon="6.05519">
        <ele>314.3</ele>
        <time>2012-11-18T09:21:02Z</time>
      </trkpt>
      <trkpt lat="43.45619" lon="6.0552">
        <ele>314.2</ele>
        <time>2012-11-18T09:21:03Z</time>
      </trkpt>
      <trkpt lat="43.45622" lon="6.05539">
        <ele>312.8</ele>
        <time>2012-11-18T09:21:23Z</time>
      </trkpt>
      <trkpt lat="43.45623" lon="6.05551">
        <ele>312.2</ele>
        <time>2012-11-18T09:21:32Z</time>
      </trkpt>
      <trkpt lat="43.45627" lon="6.05562">
        <ele>312.4</ele>
        <time>2012-11-18T09:21:40Z</time>
      </trkpt>
      <trkpt lat="43.45631" lon="6.05571">
        <ele>312.2</ele>
        <time>2012-11-18T09:21:48Z</time>
      </trkpt>
      <trkpt lat="43.45635" lon="6.05582">
        <ele>311.6</ele>
        <time>2012-11-18T09:21:57Z</time>
      </trkpt>
      <trkpt lat="43.4564" lon="6.05591">
        <ele>311.6</ele>
        <time>2012-11-18T09:22:08Z</time>
      </trkpt>
      <trkpt lat="43.45641" lon="6.05592">
        <ele>311.7</ele>
        <time>2012-11-18T09:22:09Z</time>
      </trkpt>
      <trkpt lat="43.45652" lon="6.05607">
        <ele>310.4</ele>
        <time>2012-11-18T09:22:23Z</time>
      </trkpt>
      <trkpt lat="43.45656" lon="6.05618">
        <ele>310.8</ele>
        <time>2012-11-18T09:22:37Z</time>
      </trkpt>
      <trkpt lat="43.45658" lon="6.05626">
        <ele>309.6</ele>
        <time>2012-11-18T09:22:44Z</time>
      </trkpt>
      <trkpt lat="43.45663" lon="6.05635">
        <ele>309.1</ele>
        <time>2012-11-18T09:22:54Z</time>
      </trkpt>
      <trkpt lat="43.45668" lon="6.05643">
        <ele>308.6</ele>
        <time>2012-11-18T09:22:59Z</time>
      </trkpt>
      <trkpt lat="43.45675" lon="6.05649">
        <ele>307.2</ele>
        <time>2012-11-18T09:23:08Z</time>
      </trkpt>
      <trkpt lat="43.45682" lon="6.05658">
        <ele>305</ele>
        <time>2012-11-18T09:23:24Z</time>
      </trkpt>
      <trkpt lat="43.45682" lon="6.05658">
        <ele>304.9</ele>
        <time>2012-11-18T09:23:25Z</time>
      </trkpt>
      <trkpt lat="43.45697" lon="6.05668">
        <ele>303.1</ele>
        <time>2012-11-18T09:23:48Z</time>
      </trkpt>
      <trkpt lat="43.45706" lon="6.05671">
        <ele>303.2</ele>
        <time>2012-11-18T09:23:55Z</time>
      </trkpt>
      <trkpt lat="43.45713" lon="6.05677">
        <ele>302.8</ele>
        <time>2012-11-18T09:24:06Z</time>
      </trkpt>
      <trkpt lat="43.45721" lon="6.05673">
        <ele>303.1</ele>
        <time>2012-11-18T09:24:19Z</time>
      </trkpt>
      <trkpt lat="43.45729" lon="6.05675">
        <ele>302.4</ele>
        <time>2012-11-18T09:24:34Z</time>
      </trkpt>
      <trkpt lat="43.4573" lon="6.05676">
        <ele>302.2</ele>
        <time>2012-11-18T09:24:35Z</time>
      </trkpt>
      <trkpt lat="43.45742" lon="6.05691">
        <ele>299.1</ele>
        <time>2012-11-18T09:25:02Z</time>
      </trkpt>
      <trkpt lat="43.45748" lon="6.05699">
        <ele>299.1</ele>
        <time>2012-11-18T09:25:09Z</time>
      </trkpt>
      <trkpt lat="43.45754" lon="6.05707">
        <ele>298.3</ele>
        <time>2012-11-18T09:25:21Z</time>
      </trkpt>
      <trkpt lat="43.45759" lon="6.05716">
        <ele>297.9</ele>
        <time>2012-11-18T09:25:30Z</time>
      </trkpt>
      <trkpt lat="43.45765" lon="6.05725">
        <ele>297.5</ele>
        <time>2012-11-18T09:25:38Z</time>
      </trkpt>
      <trkpt lat="43.45766" lon="6.05726">
        <ele>297.6</ele>
        <time>2012-11-18T09:25:39Z</time>
      </trkpt>
      <trkpt lat="43.45777" lon="6.05741">
        <ele>296.8</ele>
        <time>2012-11-18T09:25:52Z</time>
      </trkpt>
      <trkpt lat="43.45782" lon="6.0575">
        <ele>296.1</ele>
        <time>2012-11-18T09:26:01Z</time>
      </trkpt>
      <trkpt lat="43.45787" lon="6.05759">
        <ele>295.5</ele>
        <time>2012-11-18T09:26:12Z</time>
      </trkpt>
      <trkpt lat="43.45795" lon="6.05765">
        <ele>294.4</ele>
        <time>2012-11-18T09:26:23Z</time>
      </trkpt>
      <trkpt lat="43.45802" lon="6.05771">
        <ele>294.5</ele>
        <time>2012-11-18T09:26:31Z</time>
      </trkpt>
      <trkpt lat="43.45809" lon="6.05778">
        <ele>293.4</ele>
        <time>2012-11-18T09:26:41Z</time>
      </trkpt>
      <trkpt lat="43.4581" lon="6.0578">
        <ele>293.4</ele>
        <time>2012-11-18T09:26:42Z</time>
      </trkpt>
      <trkpt lat="43.45819" lon="6.05797">
        <ele>293.3</ele>
        <time>2012-11-18T09:26:55Z</time>
      </trkpt>
      <trkpt lat="43.45824" lon="6.05807">
        <ele>293.8</ele>
        <time>2012-11-18T09:27:05Z</time>
      </trkpt>
      <trkpt lat="43.45829" lon="6.05815">
        <ele>292.9</ele>
        <time>2012-11-18T09:27:15Z</time>
      </trkpt>
      <trkpt lat="43.45832" lon="6.05826">
        <ele>291</ele>
        <time>2012-11-18T09:27:24Z</time>
      </trkpt>
      <trkpt lat="43.45839" lon="6.05832">
        <ele>293</ele>
        <time>2012-11-18T09:27:31Z</time>
      </trkpt>
      <trkpt lat="43.45847" lon="6.05838">
        <ele>293.2</ele>
        <time>2012-11-18T09:27:38Z</time>
      </trkpt>
      <trkpt lat="43.45852" lon="6.05847">
        <ele>293.8</ele>
        <time>2012-11-18T09:27:47Z</time>
      </trkpt>
      <trkpt lat="43.45853" lon="6.05848">
        <ele>293.8</ele>
        <time>2012-11-18T09:27:48Z</time>
      </trkpt>
      <trkpt lat="43.45864" lon="6.05863">
        <ele>292.9</ele>
        <time>2012-11-18T09:28:18Z</time>
      </trkpt>
      <trkpt lat="43.45868" lon="6.05873">
        <ele>293.7</ele>
        <time>2012-11-18T09:28:27Z</time>
      </trkpt>
      <trkpt lat="43.45874" lon="6.05882">
        <ele>293.6</ele>
        <time>2012-11-18T09:28:36Z</time>
      </trkpt>
      <trkpt lat="43.45881" lon="6.05888">
        <ele>293.5</ele>
        <time>2012-11-18T09:28:44Z</time>
      </trkpt>
      <trkpt lat="43.45889" lon="6.05892">
        <ele>292.7</ele>
        <time>2012-11-18T09:28:51Z</time>
      </trkpt>
      <trkpt lat="43.45891" lon="6.05892">
        <ele>292.9</ele>
        <time>2012-11-18T09:28:52Z</time>
      </trkpt>
      <trkpt lat="43.45906" lon="6.05895">
        <ele>293.4</ele>
        <time>2012-11-18T09:29:06Z</time>
      </trkpt>
      <trkpt lat="43.45914" lon="6.05898">
        <ele>293.8</ele>
        <time>2012-11-18T09:29:12Z</time>
      </trkpt>
      <trkpt lat="43.45922" lon="6.05899">
        <ele>293.8</ele>
        <time>2012-11-18T09:29:19Z</time>
      </trkpt>
      <trkpt lat="43.45931" lon="6.05901">
        <ele>293.4</ele>
        <time>2012-11-18T09:29:32Z</time>
      </trkpt>
      <trkpt lat="43.45939" lon="6.05906">
        <ele>293.2</ele>
        <time>2012-11-18T09:29:54Z</time>
      </trkpt>
      <trkpt lat="43.45939" lon="6.05906">
        <ele>293.3</ele>
        <time>2012-11-18T09:29:55Z</time>
      </trkpt>
      <trkpt lat="43.45951" lon="6.05892">
        <ele>293.6</ele>
        <time>2012-11-18T09:30:08Z</time>
      </trkpt>
      <trkpt lat="43.45959" lon="6.05886">
        <ele>293.9</ele>
        <time>2012-11-18T09:30:16Z</time>
      </trkpt>
      <trkpt lat="43.45966" lon="6.0588">
        <ele>294.6</ele>
        <time>2012-11-18T09:30:24Z</time>
      </trkpt>
      <trkpt lat="43.45974" lon="6.05875">
        <ele>294.4</ele>
        <time>2012-11-18T09:30:32Z</time>
      </trkpt>
      <trkpt lat="43.45981" lon="6.05871">
        <ele>294.3</ele>
        <time>2012-11-18T09:30:41Z</time>
      </trkpt>
      <trkpt lat="43.45988" lon="6.05867">
        <ele>294.7</ele>
        <time>2012-11-18T09:30:48Z</time>
      </trkpt>
      <trkpt lat="43.45996" lon="6.05863">
        <ele>294.8</ele>
        <time>2012-11-18T09:30:56Z</time>
      </trkpt>
      <trkpt lat="43.45997" lon="6.05862">
        <ele>294.9</ele>
        <time>2012-11-18T09:30:57Z</time>
      </trkpt>
      <trkpt lat="43.46012" lon="6.05854">
        <ele>295</ele>
        <time>2012-11-18T09:31:11Z</time>
      </trkpt>
      <trkpt lat="43.4602" lon="6.05851">
        <ele>295.4</ele>
        <time>2012-11-18T09:31:19Z</time>
      </trkpt>
      <trkpt lat="43.46029" lon="6.05849">
        <ele>295.7</ele>
        <time>2012-11-18T09:31:27Z</time>
      </trkpt>
      <trkpt lat="43.46037" lon="6.05846">
        <ele>295.7</ele>
        <time>2012-11-18T09:31:36Z</time>
      </trkpt>
      <trkpt lat="43.46046" lon="6.05843">
        <ele>296.1</ele>
        <time>2012-11-18T09:31:44Z</time>
      </trkpt>
      <trkpt lat="43.46054" lon="6.05841">
        <ele>296.2</ele>
        <time>2012-11-18T09:31:51Z</time>
      </trkpt>
      <trkpt lat="43.46062" lon="6.05839">
        <ele>296.8</ele>
        <time>2012-11-18T09:31:59Z</time>
      </trkpt>
      <trkpt lat="43.46063" lon="6.05839">
        <ele>296.9</ele>
        <time>2012-11-18T09:32:00Z</time>
      </trkpt>
      <trkpt lat="43.46079" lon="6.05837">
        <ele>297.3</ele>
        <time>2012-11-18T09:32:25Z</time>
      </trkpt>
      <trkpt lat="43.46087" lon="6.05835">
        <ele>297.3</ele>
        <time>2012-11-18T09:32:33Z</time>
      </trkpt>
      <trkpt lat="43.46096" lon="6.05834">
        <ele>297.9</ele>
        <time>2012-11-18T09:32:41Z</time>
      </trkpt>
      <trkpt lat="43.46104" lon="6.05832">
        <ele>297.7</ele>
        <time>2012-11-18T09:32:48Z</time>
      </trkpt>
      <trkpt lat="43.46111" lon="6.05829">
        <ele>297.8</ele>
        <time>2012-11-18T09:32:56Z</time>
      </trkpt>
      <trkpt lat="43.46119" lon="6.05829">
        <ele>297.1</ele>
        <time>2012-11-18T09:33:02Z</time>
      </trkpt>
      <trkpt lat="43.46121" lon="6.05829">
        <ele>297.3</ele>
        <time>2012-11-18T09:33:03Z</time>
      </trkpt>
      <trkpt lat="43.46136" lon="6.0583">
        <ele>296.4</ele>
        <time>2012-11-18T09:33:15Z</time>
      </trkpt>
      <trkpt lat="43.46144" lon="6.05829">
        <ele>296</ele>
        <time>2012-11-18T09:33:21Z</time>
      </trkpt>
      <trkpt lat="43.46153" lon="6.0583">
        <ele>295.5</ele>
        <time>2012-11-18T09:33:29Z</time>
      </trkpt>
      <trkpt lat="43.46161" lon="6.05832">
        <ele>295.5</ele>
        <time>2012-11-18T09:33:36Z</time>
      </trkpt>
      <trkpt lat="43.46169" lon="6.05834">
        <ele>295.4</ele>
        <time>2012-11-18T09:33:42Z</time>
      </trkpt>
      <trkpt lat="43.46176" lon="6.05837">
        <ele>295</ele>
        <time>2012-11-18T09:33:48Z</time>
      </trkpt>
      <trkpt lat="43.46185" lon="6.05839">
        <ele>294.6</ele>
        <time>2012-11-18T09:33:55Z</time>
      </trkpt>
      <trkpt lat="43.46193" lon="6.05841">
        <ele>294.6</ele>
        <time>2012-11-18T09:34:02Z</time>
      </trkpt>
      <trkpt lat="43.46201" lon="6.05843">
        <ele>294</ele>
        <time>2012-11-18T09:34:09Z</time>
      </trkpt>
      <trkpt lat="43.46203" lon="6.05844">
        <ele>293.9</ele>
        <time>2012-11-18T09:34:10Z</time>
      </trkpt>
      <trkpt lat="43.46218" lon="6.05851">
        <ele>293.6</ele>
        <time>2012-11-18T09:34:23Z</time>
      </trkpt>
      <trkpt lat="43.46226" lon="6.05851">
        <ele>294.4</ele>
        <time>2012-11-18T09:34:31Z</time>
      </trkpt>
      <trkpt lat="43.46235" lon="6.0585">
        <ele>294.5</ele>
        <time>2012-11-18T09:34:41Z</time>
      </trkpt>
      <trkpt lat="43.46243" lon="6.05851">
        <ele>294.2</ele>
        <time>2012-11-18T09:34:49Z</time>
      </trkpt>
      <trkpt lat="43.4625" lon="6.05854">
        <ele>294.9</ele>
        <time>2012-11-18T09:34:56Z</time>
      </trkpt>
      <trkpt lat="43.46259" lon="6.05855">
        <ele>295.9</ele>
        <time>2012-11-18T09:35:03Z</time>
      </trkpt>
      <trkpt lat="43.46267" lon="6.05858">
        <ele>295.9</ele>
        <time>2012-11-18T09:35:16Z</time>
      </trkpt>
      <trkpt lat="43.46268" lon="6.05858">
        <ele>296.1</ele>
        <time>2012-11-18T09:35:17Z</time>
      </trkpt>
      <trkpt lat="43.46283" lon="6.05857">
        <ele>297</ele>
        <time>2012-11-18T09:35:30Z</time>
      </trkpt>
      <trkpt lat="43.46291" lon="6.05855">
        <ele>296.6</ele>
        <time>2012-11-18T09:35:39Z</time>
      </trkpt>
      <trkpt lat="43.46298" lon="6.05863">
        <ele>297.1</ele>
        <time>2012-11-18T09:36:05Z</time>
      </trkpt>
      <trkpt lat="43.4629" lon="6.05869">
        <ele>296.1</ele>
        <time>2012-11-18T09:36:16Z</time>
      </trkpt>
      <trkpt lat="43.46283" lon="6.05873">
        <ele>295.3</ele>
        <time>2012-11-18T09:36:24Z</time>
      </trkpt>
      <trkpt lat="43.46281" lon="6.05875">
        <ele>295.1</ele>
        <time>2012-11-18T09:36:25Z</time>
      </trkpt>
      <trkpt lat="43.46274" lon="6.05892">
        <ele>294.9</ele>
        <time>2012-11-18T09:36:37Z</time>
      </trkpt>
      <trkpt lat="43.46272" lon="6.05904">
        <ele>294.2</ele>
        <time>2012-11-18T09:36:45Z</time>
      </trkpt>
      <trkpt lat="43.46268" lon="6.05914">
        <ele>293.5</ele>
        <time>2012-11-18T09:36:53Z</time>
      </trkpt>
      <trkpt lat="43.46266" lon="6.05926">
        <ele>292.7</ele>
        <time>2012-11-18T09:37:01Z</time>
      </trkpt>
      <trkpt lat="43.46265" lon="6.05936">
        <ele>292.5</ele>
        <time>2012-11-18T09:37:07Z</time>
      </trkpt>
      <trkpt lat="43.46268" lon="6.05947">
        <ele>292.3</ele>
        <time>2012-11-18T09:37:12Z</time>
      </trkpt>
      <trkpt lat="43.46269" lon="6.05958">
        <ele>293</ele>
        <time>2012-11-18T09:37:18Z</time>
      </trkpt>
      <trkpt lat="43.46271" lon="6.05969">
        <ele>292.7</ele>
        <time>2012-11-18T09:37:24Z</time>
      </trkpt>
      <trkpt lat="43.46272" lon="6.05981">
        <ele>292.6</ele>
        <time>2012-11-18T09:37:32Z</time>
      </trkpt>
      <trkpt lat="43.46272" lon="6.05982">
        <ele>292.4</ele>
        <time>2012-11-18T09:37:33Z</time>
      </trkpt>
      <trkpt lat="43.4627" lon="6.06003">
        <ele>291.7</ele>
        <time>2012-11-18T09:38:00Z</time>
      </trkpt>
      <trkpt lat="43.46275" lon="6.06012">
        <ele>291.5</ele>
        <time>2012-11-18T09:38:06Z</time>
      </trkpt>
      <trkpt lat="43.46277" lon="6.06024">
        <ele>290.6</ele>
        <time>2012-11-18T09:38:14Z</time>
      </trkpt>
      <trkpt lat="43.46277" lon="6.06035">
        <ele>289.9</ele>
        <time>2012-11-18T09:38:24Z</time>
      </trkpt>
      <trkpt lat="43.46276" lon="6.06047">
        <ele>290.1</ele>
        <time>2012-11-18T09:38:33Z</time>
      </trkpt>
      <trkpt lat="43.46276" lon="6.06049">
        <ele>290</ele>
        <time>2012-11-18T09:38:34Z</time>
      </trkpt>
      <trkpt lat="43.46264" lon="6.06052">
        <ele>291.1</ele>
        <time>2012-11-18T09:39:16Z</time>
      </trkpt>
      <trkpt lat="43.46272" lon="6.06057">
        <ele>291.6</ele>
        <time>2012-11-18T09:39:24Z</time>
      </trkpt>
      <trkpt lat="43.4628" lon="6.06062">
        <ele>291.9</ele>
        <time>2012-11-18T09:39:29Z</time>
      </trkpt>
      <trkpt lat="43.46287" lon="6.06065">
        <ele>291.7</ele>
        <time>2012-11-18T09:39:35Z</time>
      </trkpt>
      <trkpt lat="43.46288" lon="6.06066">
        <ele>291.8</ele>
        <time>2012-11-18T09:39:36Z</time>
      </trkpt>
      <trkpt lat="43.46304" lon="6.06071">
        <ele>292.6</ele>
        <time>2012-11-18T09:39:53Z</time>
      </trkpt>
      <trkpt lat="43.46312" lon="6.06074">
        <ele>293.3</ele>
        <time>2012-11-18T09:40:04Z</time>
      </trkpt>
      <trkpt lat="43.4632" lon="6.06078">
        <ele>294.1</ele>
        <time>2012-11-18T09:40:13Z</time>
      </trkpt>
      <trkpt lat="43.46329" lon="6.06083">
        <ele>295.3</ele>
        <time>2012-11-18T09:40:25Z</time>
      </trkpt>
      <trkpt lat="43.46337" lon="6.06086">
        <ele>295.5</ele>
        <time>2012-11-18T09:40:34Z</time>
      </trkpt>
      <trkpt lat="43.46344" lon="6.06089">
        <ele>295.2</ele>
        <time>2012-11-18T09:40:40Z</time>
      </trkpt>
      <trkpt lat="43.46346" lon="6.06089">
        <ele>295.4</ele>
        <time>2012-11-18T09:40:41Z</time>
      </trkpt>
      <trkpt lat="43.46361" lon="6.0609">
        <ele>296.2</ele>
        <time>2012-11-18T09:40:57Z</time>
      </trkpt>
      <trkpt lat="43.4637" lon="6.06091">
        <ele>297.2</ele>
        <time>2012-11-18T09:41:08Z</time>
      </trkpt>
      <trkpt lat="43.46377" lon="6.06099">
        <ele>298.2</ele>
        <time>2012-11-18T09:41:19Z</time>
      </trkpt>
      <trkpt lat="43.46382" lon="6.06109">
        <ele>299.7</ele>
        <time>2012-11-18T09:41:34Z</time>
      </trkpt>
      <trkpt lat="43.46389" lon="6.06115">
        <ele>300</ele>
        <time>2012-11-18T09:41:41Z</time>
      </trkpt>
      <trkpt lat="43.4639" lon="6.06116">
        <ele>300</ele>
        <time>2012-11-18T09:41:42Z</time>
      </trkpt>
      <trkpt lat="43.46405" lon="6.06124">
        <ele>301.5</ele>
        <time>2012-11-18T09:42:02Z</time>
      </trkpt>
      <trkpt lat="43.4641" lon="6.06133">
        <ele>302.6</ele>
        <time>2012-11-18T09:42:13Z</time>
      </trkpt>
      <trkpt lat="43.46415" lon="6.06142">
        <ele>303.3</ele>
        <time>2012-11-18T09:42:21Z</time>
      </trkpt>
      <trkpt lat="43.46422" lon="6.0615">
        <ele>304</ele>
        <time>2012-11-18T09:42:30Z</time>
      </trkpt>
      <trkpt lat="43.46427" lon="6.06158">
        <ele>304.3</ele>
        <time>2012-11-18T09:42:39Z</time>
      </trkpt>
      <trkpt lat="43.46433" lon="6.06167">
        <ele>304.8</ele>
        <time>2012-11-18T09:42:45Z</time>
      </trkpt>
      <trkpt lat="43.46434" lon="6.06169">
        <ele>305</ele>
        <time>2012-11-18T09:42:46Z</time>
      </trkpt>
      <trkpt lat="43.46443" lon="6.06188">
        <ele>306.5</ele>
        <time>2012-11-18T09:43:11Z</time>
      </trkpt>
      <trkpt lat="43.46447" lon="6.06198">
        <ele>308.3</ele>
        <time>2012-11-18T09:43:18Z</time>
      </trkpt>
      <trkpt lat="43.4645" lon="6.06208">
        <ele>308.6</ele>
        <time>2012-11-18T09:43:28Z</time>
      </trkpt>
      <trkpt lat="43.46454" lon="6.06218">
        <ele>309.9</ele>
        <time>2012-11-18T09:43:38Z</time>
      </trkpt>
      <trkpt lat="43.46457" lon="6.06228">
        <ele>311.7</ele>
        <time>2012-11-18T09:43:50Z</time>
      </trkpt>
      <trkpt lat="43.46458" lon="6.0623">
        <ele>311.8</ele>
        <time>2012-11-18T09:43:51Z</time>
      </trkpt>
      <trkpt lat="43.46458" lon="6.06251">
        <ele>313.5</ele>
        <time>2012-11-18T09:44:10Z</time>
      </trkpt>
      <trkpt lat="43.46456" lon="6.06262">
        <ele>314.5</ele>
        <time>2012-11-18T09:44:21Z</time>
      </trkpt>
      <trkpt lat="43.46453" lon="6.06274">
        <ele>316.2</ele>
        <time>2012-11-18T09:44:30Z</time>
      </trkpt>
      <trkpt lat="43.46452" lon="6.06285">
        <ele>316.4</ele>
        <time>2012-11-18T09:44:38Z</time>
      </trkpt>
      <trkpt lat="43.46451" lon="6.06296">
        <ele>316.8</ele>
        <time>2012-11-18T09:44:45Z</time>
      </trkpt>
      <trkpt lat="43.46451" lon="6.06308">
        <ele>317.2</ele>
        <time>2012-11-18T09:44:53Z</time>
      </trkpt>
      <trkpt lat="43.46451" lon="6.06309">
        <ele>317.2</ele>
        <time>2012-11-18T09:44:54Z</time>
      </trkpt>
      <trkpt lat="43.46455" lon="6.0633">
        <ele>318.9</ele>
        <time>2012-11-18T09:45:08Z</time>
      </trkpt>
      <trkpt lat="43.46455" lon="6.06343">
        <ele>319.2</ele>
        <time>2012-11-18T09:45:17Z</time>
      </trkpt>
      <trkpt lat="43.46454" lon="6.06354">
        <ele>320</ele>
        <time>2012-11-18T09:45:28Z</time>
      </trkpt>
      <trkpt lat="43.46449" lon="6.06363">
        <ele>321</ele>
        <time>2012-11-18T09:45:37Z</time>
      </trkpt>
      <trkpt lat="43.46446" lon="6.06374">
        <ele>321.7</ele>
        <time>2012-11-18T09:45:45Z</time>
      </trkpt>
      <trkpt lat="43.46445" lon="6.06384">
        <ele>321.9</ele>
        <time>2012-11-18T09:45:52Z</time>
      </trkpt>
      <trkpt lat="43.46444" lon="6.06395">
        <ele>322.3</ele>
        <time>2012-11-18T09:45:58Z</time>
      </trkpt>
      <trkpt lat="43.46444" lon="6.06397">
        <ele>322.3</ele>
        <time>2012-11-18T09:45:59Z</time>
      </trkpt>
      <trkpt lat="43.4644" lon="6.06418">
        <ele>322.6</ele>
        <time>2012-11-18T09:46:18Z</time>
      </trkpt>
      <trkpt lat="43.46439" lon="6.06429">
        <ele>322.9</ele>
        <time>2012-11-18T09:46:25Z</time>
      </trkpt>
      <trkpt lat="43.46436" lon="6.06441">
        <ele>323.4</ele>
        <time>2012-11-18T09:46:32Z</time>
      </trkpt>
      <trkpt lat="43.46433" lon="6.06451">
        <ele>324</ele>
        <time>2012-11-18T09:46:39Z</time>
      </trkpt>
      <trkpt lat="43.46429" lon="6.0646">
        <ele>324.1</ele>
        <time>2012-11-18T09:46:48Z</time>
      </trkpt>
      <trkpt lat="43.46427" lon="6.06472">
        <ele>325</ele>
        <time>2012-11-18T09:46:55Z</time>
      </trkpt>
      <trkpt lat="43.46426" lon="6.06482">
        <ele>325.8</ele>
        <time>2012-11-18T09:47:02Z</time>
      </trkpt>
      <trkpt lat="43.46425" lon="6.06484">
        <ele>325.7</ele>
        <time>2012-11-18T09:47:03Z</time>
      </trkpt>
      <trkpt lat="43.46422" lon="6.06505">
        <ele>326.8</ele>
        <time>2012-11-18T09:47:17Z</time>
      </trkpt>
      <trkpt lat="43.46421" lon="6.06517">
        <ele>327</ele>
        <time>2012-11-18T09:47:25Z</time>
      </trkpt>
      <trkpt lat="43.46419" lon="6.06528">
        <ele>327.6</ele>
        <time>2012-11-18T09:47:33Z</time>
      </trkpt>
      <trkpt lat="43.46416" lon="6.0654">
        <ele>328.2</ele>
        <time>2012-11-18T09:47:41Z</time>
      </trkpt>
      <trkpt lat="43.46412" lon="6.0655">
        <ele>329</ele>
        <time>2012-11-18T09:47:51Z</time>
      </trkpt>
      <trkpt lat="43.4641" lon="6.06561">
        <ele>329.6</ele>
        <time>2012-11-18T09:48:00Z</time>
      </trkpt>
      <trkpt lat="43.46405" lon="6.06571">
        <ele>330.5</ele>
        <time>2012-11-18T09:48:09Z</time>
      </trkpt>
      <trkpt lat="43.46404" lon="6.06572">
        <ele>330.7</ele>
        <time>2012-11-18T09:48:10Z</time>
      </trkpt>
      <trkpt lat="43.46403" lon="6.06594">
        <ele>332.1</ele>
        <time>2012-11-18T09:48:24Z</time>
      </trkpt>
      <trkpt lat="43.46402" lon="6.06606">
        <ele>333.4</ele>
        <time>2012-11-18T09:48:33Z</time>
      </trkpt>
      <trkpt lat="43.46399" lon="6.06617">
        <ele>334.1</ele>
        <time>2012-11-18T09:48:44Z</time>
      </trkpt>
      <trkpt lat="43.46395" lon="6.06627">
        <ele>335.9</ele>
        <time>2012-11-18T09:48:57Z</time>
      </trkpt>
      <trkpt lat="43.46395" lon="6.06639">
        <ele>336.7</ele>
        <time>2012-11-18T09:50:50Z</time>
      </trkpt>
      <trkpt lat="43.46395" lon="6.06639">
        <ele>336.7</ele>
        <time>2012-11-18T09:50:51Z</time>
      </trkpt>
      <trkpt lat="43.46399" lon="6.06651">
        <ele>337.1</ele>
        <time>2012-11-18T10:00:08Z</time>
      </trkpt>
      <trkpt lat="43.46397" lon="6.06672">
        <ele>339.3</ele>
        <time>2012-11-18T10:00:29Z</time>
      </trkpt>
      <trkpt lat="43.46394" lon="6.06683">
        <ele>339.5</ele>
        <time>2012-11-18T10:00:40Z</time>
      </trkpt>
      <trkpt lat="43.46399" lon="6.06694">
        <ele>338.9</ele>
        <time>2012-11-18T10:00:48Z</time>
      </trkpt>
      <trkpt lat="43.46404" lon="6.06702">
        <ele>338.4</ele>
        <time>2012-11-18T10:00:54Z</time>
      </trkpt>
      <trkpt lat="43.46409" lon="6.06711">
        <ele>337.7</ele>
        <time>2012-11-18T10:01:03Z</time>
      </trkpt>
      <trkpt lat="43.46413" lon="6.06721">
        <ele>336.8</ele>
        <time>2012-11-18T10:01:11Z</time>
      </trkpt>
      <trkpt lat="43.46415" lon="6.06722">
        <ele>336.6</ele>
        <time>2012-11-18T10:01:12Z</time>
      </trkpt>
      <trkpt lat="43.46427" lon="6.06734">
        <ele>334.9</ele>
        <time>2012-11-18T10:01:25Z</time>
      </trkpt>
      <trkpt lat="43.46434" lon="6.06743">
        <ele>334.2</ele>
        <time>2012-11-18T10:01:33Z</time>
      </trkpt>
      <trkpt lat="43.46437" lon="6.06754">
        <ele>333.9</ele>
        <time>2012-11-18T10:01:41Z</time>
      </trkpt>
      <trkpt lat="43.46437" lon="6.06766">
        <ele>333.9</ele>
        <time>2012-11-18T10:01:51Z</time>
      </trkpt>
      <trkpt lat="43.46435" lon="6.06778">
        <ele>334</ele>
        <time>2012-11-18T10:02:00Z</time>
      </trkpt>
      <trkpt lat="43.46437" lon="6.06789">
        <ele>334.3</ele>
        <time>2012-11-18T10:02:08Z</time>
      </trkpt>
      <trkpt lat="43.46441" lon="6.06799">
        <ele>335.3</ele>
        <time>2012-11-18T10:02:15Z</time>
      </trkpt>
      <trkpt lat="43.46441" lon="6.068">
        <ele>335.8</ele>
        <time>2012-11-18T10:02:16Z</time>
      </trkpt>
      <trkpt lat="43.46453" lon="6.06816">
        <ele>336.6</ele>
        <time>2012-11-18T10:02:32Z</time>
      </trkpt>
      <trkpt lat="43.46457" lon="6.06825">
        <ele>336.6</ele>
        <time>2012-11-18T10:02:42Z</time>
      </trkpt>
      <trkpt lat="43.46462" lon="6.06835">
        <ele>336.1</ele>
        <time>2012-11-18T10:02:49Z</time>
      </trkpt>
      <trkpt lat="43.46467" lon="6.06843">
        <ele>336.9</ele>
        <time>2012-11-18T10:02:57Z</time>
      </trkpt>
      <trkpt lat="43.46473" lon="6.06851">
        <ele>337.1</ele>
        <time>2012-11-18T10:03:04Z</time>
      </trkpt>
      <trkpt lat="43.46478" lon="6.06861">
        <ele>337.2</ele>
        <time>2012-11-18T10:03:12Z</time>
      </trkpt>
      <trkpt lat="43.46483" lon="6.0687">
        <ele>337.4</ele>
        <time>2012-11-18T10:03:19Z</time>
      </trkpt>
      <trkpt lat="43.46484" lon="6.06872">
        <ele>337.2</ele>
        <time>2012-11-18T10:03:20Z</time>
      </trkpt>
      <trkpt lat="43.46486" lon="6.06892">
        <ele>336.3</ele>
        <time>2012-11-18T10:03:36Z</time>
      </trkpt>
      <trkpt lat="43.46487" lon="6.06904">
        <ele>336.6</ele>
        <time>2012-11-18T10:03:45Z</time>
      </trkpt>
      <trkpt lat="43.46489" lon="6.06915">
        <ele>337.4</ele>
        <time>2012-11-18T10:03:52Z</time>
      </trkpt>
      <trkpt lat="43.46488" lon="6.06926">
        <ele>337.7</ele>
        <time>2012-11-18T10:04:00Z</time>
      </trkpt>
      <trkpt lat="43.46489" lon="6.06938">
        <ele>337.7</ele>
        <time>2012-11-18T10:04:09Z</time>
      </trkpt>
      <trkpt lat="43.4649" lon="6.06951">
        <ele>337.8</ele>
        <time>2012-11-18T10:04:17Z</time>
      </trkpt>
      <trkpt lat="43.46489" lon="6.06962">
        <ele>338.4</ele>
        <time>2012-11-18T10:04:27Z</time>
      </trkpt>
      <trkpt lat="43.46489" lon="6.06964">
        <ele>338.6</ele>
        <time>2012-11-18T10:04:28Z</time>
      </trkpt>
      <trkpt lat="43.46489" lon="6.06985">
        <ele>339.6</ele>
        <time>2012-11-18T10:04:41Z</time>
      </trkpt>
      <trkpt lat="43.46488" lon="6.06996">
        <ele>340</ele>
        <time>2012-11-18T10:04:49Z</time>
      </trkpt>
      <trkpt lat="43.46488" lon="6.07007">
        <ele>340.3</ele>
        <time>2012-11-18T10:04:57Z</time>
      </trkpt>
      <trkpt lat="43.46487" lon="6.07019">
        <ele>340.7</ele>
        <time>2012-11-18T10:05:06Z</time>
      </trkpt>
      <trkpt lat="43.46487" lon="6.07031">
        <ele>340.7</ele>
        <time>2012-11-18T10:05:14Z</time>
      </trkpt>
      <trkpt lat="43.46488" lon="6.07043">
        <ele>340.6</ele>
        <time>2012-11-18T10:05:22Z</time>
      </trkpt>
      <trkpt lat="43.46489" lon="6.07055">
        <ele>339.8</ele>
        <time>2012-11-18T10:05:30Z</time>
      </trkpt>
      <trkpt lat="43.4649" lon="6.07056">
        <ele>339.8</ele>
        <time>2012-11-18T10:05:31Z</time>
      </trkpt>
      <trkpt lat="43.46492" lon="6.07078">
        <ele>340</ele>
        <time>2012-11-18T10:05:45Z</time>
      </trkpt>
      <trkpt lat="43.46491" lon="6.07089">
        <ele>339.9</ele>
        <time>2012-11-18T10:05:55Z</time>
      </trkpt>
      <trkpt lat="43.4649" lon="6.071">
        <ele>340.2</ele>
        <time>2012-11-18T10:06:01Z</time>
      </trkpt>
      <trkpt lat="43.46489" lon="6.07112">
        <ele>340.6</ele>
        <time>2012-11-18T10:06:09Z</time>
      </trkpt>
      <trkpt lat="43.46489" lon="6.07123">
        <ele>340.7</ele>
        <time>2012-11-18T10:06:16Z</time>
      </trkpt>
      <trkpt lat="43.46487" lon="6.07134">
        <ele>340.9</ele>
        <time>2012-11-18T10:06:24Z</time>
      </trkpt>
      <trkpt lat="43.46484" lon="6.07144">
        <ele>341</ele>
        <time>2012-11-18T10:06:34Z</time>
      </trkpt>
      <trkpt lat="43.46484" lon="6.07146">
        <ele>341.1</ele>
        <time>2012-11-18T10:06:35Z</time>
      </trkpt>
      <trkpt lat="43.46476" lon="6.07164">
        <ele>340.5</ele>
        <time>2012-11-18T10:06:50Z</time>
      </trkpt>
      <trkpt lat="43.46472" lon="6.07175">
        <ele>339.9</ele>
        <time>2012-11-18T10:06:58Z</time>
      </trkpt>
      <trkpt lat="43.46471" lon="6.07187">
        <ele>339.7</ele>
        <time>2012-11-18T10:07:06Z</time>
      </trkpt>
      <trkpt lat="43.46468" lon="6.07198">
        <ele>338.6</ele>
        <time>2012-11-18T10:07:13Z</time>
      </trkpt>
      <trkpt lat="43.46466" lon="6.07208">
        <ele>337.5</ele>
        <time>2012-11-18T10:07:20Z</time>
      </trkpt>
      <trkpt lat="43.4646" lon="6.07217">
        <ele>337.3</ele>
        <time>2012-11-18T10:07:29Z</time>
      </trkpt>
      <trkpt lat="43.46456" lon="6.07227">
        <ele>337</ele>
        <time>2012-11-18T10:07:39Z</time>
      </trkpt>
      <trkpt lat="43.46456" lon="6.07229">
        <ele>337</ele>
        <time>2012-11-18T10:07:40Z</time>
      </trkpt>
      <trkpt lat="43.46449" lon="6.07249">
        <ele>334.9</ele>
        <time>2012-11-18T10:07:55Z</time>
      </trkpt>
      <trkpt lat="43.46446" lon="6.0726">
        <ele>333.3</ele>
        <time>2012-11-18T10:08:04Z</time>
      </trkpt>
      <trkpt lat="43.46446" lon="6.07271">
        <ele>332.2</ele>
        <time>2012-11-18T10:08:12Z</time>
      </trkpt>
      <trkpt lat="43.46441" lon="6.0728">
        <ele>331.2</ele>
        <time>2012-11-18T10:08:19Z</time>
      </trkpt>
      <trkpt lat="43.46437" lon="6.07289">
        <ele>330.1</ele>
        <time>2012-11-18T10:08:27Z</time>
      </trkpt>
      <trkpt lat="43.46432" lon="6.07299">
        <ele>328.5</ele>
        <time>2012-11-18T10:08:35Z</time>
      </trkpt>
      <trkpt lat="43.46428" lon="6.07309">
        <ele>328.4</ele>
        <time>2012-11-18T10:08:43Z</time>
      </trkpt>
      <trkpt lat="43.46428" lon="6.07311">
        <ele>328.3</ele>
        <time>2012-11-18T10:08:44Z</time>
      </trkpt>
      <trkpt lat="43.46424" lon="6.07331">
        <ele>327.8</ele>
        <time>2012-11-18T10:08:58Z</time>
      </trkpt>
      <trkpt lat="43.46422" lon="6.07343">
        <ele>327.7</ele>
        <time>2012-11-18T10:09:06Z</time>
      </trkpt>
      <trkpt lat="43.46422" lon="6.07355">
        <ele>328.4</ele>
        <time>2012-11-18T10:09:14Z</time>
      </trkpt>
      <trkpt lat="43.46425" lon="6.07367">
        <ele>328.9</ele>
        <time>2012-11-18T10:09:23Z</time>
      </trkpt>
      <trkpt lat="43.46426" lon="6.07378">
        <ele>329.8</ele>
        <time>2012-11-18T10:09:31Z</time>
      </trkpt>
      <trkpt lat="43.46426" lon="6.0739">
        <ele>330.9</ele>
        <time>2012-11-18T10:09:44Z</time>
      </trkpt>
      <trkpt lat="43.46426" lon="6.07391">
        <ele>330.4</ele>
        <time>2012-11-18T10:09:45Z</time>
      </trkpt>
      <trkpt lat="43.46424" lon="6.07413">
        <ele>335.2</ele>
        <time>2012-11-18T10:10:14Z</time>
      </trkpt>
      <trkpt lat="43.46422" lon="6.07425">
        <ele>336.7</ele>
        <time>2012-11-18T10:10:24Z</time>
      </trkpt>
      <trkpt lat="43.46422" lon="6.07437">
        <ele>337.7</ele>
        <time>2012-11-18T10:10:37Z</time>
      </trkpt>
      <trkpt lat="43.4642" lon="6.07449">
        <ele>339.1</ele>
        <time>2012-11-18T10:10:52Z</time>
      </trkpt>
      <trkpt lat="43.4642" lon="6.07449">
        <ele>339.1</ele>
        <time>2012-11-18T10:10:53Z</time>
      </trkpt>
      <trkpt lat="43.46418" lon="6.07471">
        <ele>340.8</ele>
        <time>2012-11-18T10:11:13Z</time>
      </trkpt>
      <trkpt lat="43.46417" lon="6.07483">
        <ele>343.5</ele>
        <time>2012-11-18T10:11:25Z</time>
      </trkpt>
      <trkpt lat="43.46416" lon="6.07495">
        <ele>344.9</ele>
        <time>2012-11-18T10:11:38Z</time>
      </trkpt>
      <trkpt lat="43.46416" lon="6.07507">
        <ele>345.5</ele>
        <time>2012-11-18T10:11:50Z</time>
      </trkpt>
      <trkpt lat="43.46412" lon="6.07518">
        <ele>347.3</ele>
        <time>2012-11-18T10:12:04Z</time>
      </trkpt>
      <trkpt lat="43.46412" lon="6.07519">
        <ele>347.3</ele>
        <time>2012-11-18T10:12:05Z</time>
      </trkpt>
      <trkpt lat="43.4641" lon="6.07542">
        <ele>347.7</ele>
        <time>2012-11-18T10:12:37Z</time>
      </trkpt>
      <trkpt lat="43.46407" lon="6.07554">
        <ele>348.5</ele>
        <time>2012-11-18T10:12:48Z</time>
      </trkpt>
      <trkpt lat="43.46401" lon="6.07546">
        <ele>347.9</ele>
        <time>2012-11-18T10:16:48Z</time>
      </trkpt>
      <trkpt lat="43.464" lon="6.07545">
        <ele>347.7</ele>
        <time>2012-11-18T10:16:49Z</time>
      </trkpt>
      <trkpt lat="43.46387" lon="6.07532">
        <ele>346.9</ele>
        <time>2012-11-18T10:17:05Z</time>
      </trkpt>
      <trkpt lat="43.46378" lon="6.07533">
        <ele>347</ele>
        <time>2012-11-18T10:17:13Z</time>
      </trkpt>
      <trkpt lat="43.46375" lon="6.07543">
        <ele>346.4</ele>
        <time>2012-11-18T10:17:23Z</time>
      </trkpt>
      <trkpt lat="43.4637" lon="6.07554">
        <ele>346</ele>
        <time>2012-11-18T10:17:34Z</time>
      </trkpt>
      <trkpt lat="43.46362" lon="6.07554">
        <ele>345.1</ele>
        <time>2012-11-18T10:17:46Z</time>
      </trkpt>
      <trkpt lat="43.46353" lon="6.07551">
        <ele>345.3</ele>
        <time>2012-11-18T10:17:58Z</time>
      </trkpt>
      <trkpt lat="43.46352" lon="6.07551">
        <ele>345.5</ele>
        <time>2012-11-18T10:17:59Z</time>
      </trkpt>
      <trkpt lat="43.46337" lon="6.0755">
        <ele>344.9</ele>
        <time>2012-11-18T10:18:19Z</time>
      </trkpt>
      <trkpt lat="43.46328" lon="6.0755">
        <ele>345.4</ele>
        <time>2012-11-18T10:18:28Z</time>
      </trkpt>
      <trkpt lat="43.46321" lon="6.07551">
        <ele>345.6</ele>
        <time>2012-11-18T10:18:37Z</time>
      </trkpt>
      <trkpt lat="43.46314" lon="6.07551">
        <ele>344.9</ele>
        <time>2012-11-18T10:18:43Z</time>
      </trkpt>
      <trkpt lat="43.46305" lon="6.07554">
        <ele>345.7</ele>
        <time>2012-11-18T10:18:49Z</time>
      </trkpt>
      <trkpt lat="43.46298" lon="6.07561">
        <ele>345.1</ele>
        <time>2012-11-18T10:18:57Z</time>
      </trkpt>
      <trkpt lat="43.46293" lon="6.07571">
        <ele>344.7</ele>
        <time>2012-11-18T10:19:04Z</time>
      </trkpt>
      <trkpt lat="43.46293" lon="6.07572">
        <ele>344.5</ele>
        <time>2012-11-18T10:19:05Z</time>
      </trkpt>
      <trkpt lat="43.46285" lon="6.07591">
        <ele>343.5</ele>
        <time>2012-11-18T10:19:18Z</time>
      </trkpt>
      <trkpt lat="43.46281" lon="6.07601">
        <ele>343.2</ele>
        <time>2012-11-18T10:19:25Z</time>
      </trkpt>
      <trkpt lat="43.46275" lon="6.07609">
        <ele>342</ele>
        <time>2012-11-18T10:19:32Z</time>
      </trkpt>
      <trkpt lat="43.46266" lon="6.07609">
        <ele>341.5</ele>
        <time>2012-11-18T10:19:41Z</time>
      </trkpt>
      <trkpt lat="43.4626" lon="6.07602">
        <ele>341.1</ele>
        <time>2012-11-18T10:19:53Z</time>
      </trkpt>
      <trkpt lat="43.46253" lon="6.07597">
        <ele>339.9</ele>
        <time>2012-11-18T10:20:00Z</time>
      </trkpt>
      <trkpt lat="43.46246" lon="6.07603">
        <ele>340.3</ele>
        <time>2012-11-18T10:20:08Z</time>
      </trkpt>
      <trkpt lat="43.46245" lon="6.07605">
        <ele>340.4</ele>
        <time>2012-11-18T10:20:09Z</time>
      </trkpt>
      <trkpt lat="43.46239" lon="6.07624">
        <ele>339.6</ele>
        <time>2012-11-18T10:20:24Z</time>
      </trkpt>
      <trkpt lat="43.46233" lon="6.07632">
        <ele>339.1</ele>
        <time>2012-11-18T10:20:34Z</time>
      </trkpt>
      <trkpt lat="43.4623" lon="6.07643">
        <ele>339.6</ele>
        <time>2012-11-18T10:20:42Z</time>
      </trkpt>
      <trkpt lat="43.46222" lon="6.07648">
        <ele>339.3</ele>
        <time>2012-11-18T10:20:49Z</time>
      </trkpt>
      <trkpt lat="43.46215" lon="6.07655">
        <ele>339.7</ele>
        <time>2012-11-18T10:20:56Z</time>
      </trkpt>
      <trkpt lat="43.46208" lon="6.07661">
        <ele>339.9</ele>
        <time>2012-11-18T10:21:04Z</time>
      </trkpt>
      <trkpt lat="43.462" lon="6.07668">
        <ele>339.5</ele>
        <time>2012-11-18T10:21:12Z</time>
      </trkpt>
      <trkpt lat="43.46199" lon="6.07669">
        <ele>339.7</ele>
        <time>2012-11-18T10:21:13Z</time>
      </trkpt>
      <trkpt lat="43.46195" lon="6.07691">
        <ele>339.9</ele>
        <time>2012-11-18T10:21:29Z</time>
      </trkpt>
      <trkpt lat="43.46189" lon="6.077">
        <ele>340.6</ele>
        <time>2012-11-18T10:21:39Z</time>
      </trkpt>
      <trkpt lat="43.46186" lon="6.0771">
        <ele>341.8</ele>
        <time>2012-11-18T10:21:49Z</time>
      </trkpt>
      <trkpt lat="43.46181" lon="6.0772">
        <ele>344</ele>
        <time>2012-11-18T10:22:00Z</time>
      </trkpt>
      <trkpt lat="43.46174" lon="6.07725">
        <ele>345</ele>
        <time>2012-11-18T10:22:08Z</time>
      </trkpt>
      <trkpt lat="43.46169" lon="6.07733">
        <ele>345.1</ele>
        <time>2012-11-18T10:22:14Z</time>
      </trkpt>
      <trkpt lat="43.46168" lon="6.07735">
        <ele>345.4</ele>
        <time>2012-11-18T10:22:15Z</time>
      </trkpt>
      <trkpt lat="43.46161" lon="6.07752">
        <ele>346.3</ele>
        <time>2012-11-18T10:22:30Z</time>
      </trkpt>
      <trkpt lat="43.46155" lon="6.07761">
        <ele>347.7</ele>
        <time>2012-11-18T10:22:40Z</time>
      </trkpt>
      <trkpt lat="43.46152" lon="6.07772">
        <ele>348.2</ele>
        <time>2012-11-18T10:22:50Z</time>
      </trkpt>
      <trkpt lat="43.46148" lon="6.07783">
        <ele>349.8</ele>
        <time>2012-11-18T10:23:02Z</time>
      </trkpt>
      <trkpt lat="43.46142" lon="6.07792">
        <ele>350.7</ele>
        <time>2012-11-18T10:23:14Z</time>
      </trkpt>
      <trkpt lat="43.46142" lon="6.07793">
        <ele>350.6</ele>
        <time>2012-11-18T10:23:15Z</time>
      </trkpt>
      <trkpt lat="43.46129" lon="6.07808">
        <ele>353.6</ele>
        <time>2012-11-18T10:23:40Z</time>
      </trkpt>
      <trkpt lat="43.46123" lon="6.07815">
        <ele>354.4</ele>
        <time>2012-11-18T10:23:52Z</time>
      </trkpt>
      <trkpt lat="43.46116" lon="6.07822">
        <ele>356</ele>
        <time>2012-11-18T10:24:01Z</time>
      </trkpt>
      <trkpt lat="43.4611" lon="6.07829">
        <ele>357</ele>
        <time>2012-11-18T10:24:12Z</time>
      </trkpt>
      <trkpt lat="43.46103" lon="6.07838">
        <ele>358.4</ele>
        <time>2012-11-18T10:24:24Z</time>
      </trkpt>
      <trkpt lat="43.46102" lon="6.07838">
        <ele>358.6</ele>
        <time>2012-11-18T10:24:25Z</time>
      </trkpt>
      <trkpt lat="43.46093" lon="6.07857">
        <ele>361.3</ele>
        <time>2012-11-18T10:24:43Z</time>
      </trkpt>
      <trkpt lat="43.46092" lon="6.07867">
        <ele>362</ele>
        <time>2012-11-18T10:24:50Z</time>
      </trkpt>
      <trkpt lat="43.46094" lon="6.07878">
        <ele>361.7</ele>
        <time>2012-11-18T10:24:58Z</time>
      </trkpt>
      <trkpt lat="43.46096" lon="6.0789">
        <ele>361.2</ele>
        <time>2012-11-18T10:25:14Z</time>
      </trkpt>
      <trkpt lat="43.46104" lon="6.07894">
        <ele>360.6</ele>
        <time>2012-11-18T10:25:37Z</time>
      </trkpt>
      <trkpt lat="43.46105" lon="6.07895">
        <ele>360.4</ele>
        <time>2012-11-18T10:25:38Z</time>
      </trkpt>
      <trkpt lat="43.46117" lon="6.0791">
        <ele>360.9</ele>
        <time>2012-11-18T10:26:08Z</time>
      </trkpt>
      <trkpt lat="43.46126" lon="6.07913">
        <ele>360.5</ele>
        <time>2012-11-18T10:26:23Z</time>
      </trkpt>
      <trkpt lat="43.46134" lon="6.07914">
        <ele>361</ele>
        <time>2012-11-18T10:26:35Z</time>
      </trkpt>
      <trkpt lat="43.46142" lon="6.07919">
        <ele>361.1</ele>
        <time>2012-11-18T10:26:44Z</time>
      </trkpt>
      <trkpt lat="43.46143" lon="6.07919">
        <ele>361</ele>
        <time>2012-11-18T10:26:45Z</time>
      </trkpt>
      <trkpt lat="43.46158" lon="6.07928">
        <ele>360.4</ele>
        <time>2012-11-18T10:26:59Z</time>
      </trkpt>
      <trkpt lat="43.46164" lon="6.07935">
        <ele>359.7</ele>
        <time>2012-11-18T10:27:06Z</time>
      </trkpt>
      <trkpt lat="43.46167" lon="6.07946">
        <ele>358.6</ele>
        <time>2012-11-18T10:27:19Z</time>
      </trkpt>
      <trkpt lat="43.46171" lon="6.07957">
        <ele>358.1</ele>
        <time>2012-11-18T10:27:34Z</time>
      </trkpt>
      <trkpt lat="43.46175" lon="6.07966">
        <ele>357.7</ele>
        <time>2012-11-18T10:27:45Z</time>
      </trkpt>
      <trkpt lat="43.46176" lon="6.07968">
        <ele>357.6</ele>
        <time>2012-11-18T10:27:46Z</time>
      </trkpt>
      <trkpt lat="43.46181" lon="6.07988">
        <ele>357</ele>
        <time>2012-11-18T10:28:06Z</time>
      </trkpt>
      <trkpt lat="43.46183" lon="6.08">
        <ele>356.5</ele>
        <time>2012-11-18T10:28:17Z</time>
      </trkpt>
      <trkpt lat="43.46185" lon="6.08012">
        <ele>355.5</ele>
        <time>2012-11-18T10:28:26Z</time>
      </trkpt>
      <trkpt lat="43.46187" lon="6.08023">
        <ele>354.6</ele>
        <time>2012-11-18T10:28:35Z</time>
      </trkpt>
      <trkpt lat="43.46187" lon="6.08035">
        <ele>354</ele>
        <time>2012-11-18T10:28:44Z</time>
      </trkpt>
      <trkpt lat="43.46185" lon="6.08047">
        <ele>353.6</ele>
        <time>2012-11-18T10:28:54Z</time>
      </trkpt>
      <trkpt lat="43.46185" lon="6.08049">
        <ele>353.5</ele>
        <time>2012-11-18T10:28:55Z</time>
      </trkpt>
      <trkpt lat="43.46184" lon="6.0807">
        <ele>352.9</ele>
        <time>2012-11-18T10:29:11Z</time>
      </trkpt>
      <trkpt lat="43.46184" lon="6.08082">
        <ele>351.2</ele>
        <time>2012-11-18T10:29:20Z</time>
      </trkpt>
      <trkpt lat="43.46187" lon="6.08093">
        <ele>350.1</ele>
        <time>2012-11-18T10:29:31Z</time>
      </trkpt>
      <trkpt lat="43.46191" lon="6.08103">
        <ele>348.5</ele>
        <time>2012-11-18T10:29:39Z</time>
      </trkpt>
      <trkpt lat="43.46188" lon="6.08115">
        <ele>348.1</ele>
        <time>2012-11-18T10:29:49Z</time>
      </trkpt>
      <trkpt lat="43.46181" lon="6.0812">
        <ele>347.6</ele>
        <time>2012-11-18T10:30:00Z</time>
      </trkpt>
      <trkpt lat="43.4618" lon="6.08122">
        <ele>347.8</ele>
        <time>2012-11-18T10:30:01Z</time>
      </trkpt>
      <trkpt lat="43.4617" lon="6.08138">
        <ele>346.4</ele>
        <time>2012-11-18T10:30:15Z</time>
      </trkpt>
      <trkpt lat="43.46163" lon="6.08144">
        <ele>345.8</ele>
        <time>2012-11-18T10:30:23Z</time>
      </trkpt>
      <trkpt lat="43.46157" lon="6.08151">
        <ele>345.2</ele>
        <time>2012-11-18T10:30:32Z</time>
      </trkpt>
      <trkpt lat="43.46149" lon="6.08155">
        <ele>343.7</ele>
        <time>2012-11-18T10:30:40Z</time>
      </trkpt>
      <trkpt lat="43.46141" lon="6.08159">
        <ele>342.4</ele>
        <time>2012-11-18T10:30:50Z</time>
      </trkpt>
      <trkpt lat="43.46134" lon="6.08167">
        <ele>340.6</ele>
        <time>2012-11-18T10:31:00Z</time>
      </trkpt>
      <trkpt lat="43.46128" lon="6.08174">
        <ele>339.3</ele>
        <time>2012-11-18T10:31:10Z</time>
      </trkpt>
      <trkpt lat="43.46127" lon="6.08175">
        <ele>339.1</ele>
        <time>2012-11-18T10:31:11Z</time>
      </trkpt>
      <trkpt lat="43.46125" lon="6.08195">
        <ele>337.8</ele>
        <time>2012-11-18T10:31:25Z</time>
      </trkpt>
      <trkpt lat="43.46126" lon="6.08207">
        <ele>336.3</ele>
        <time>2012-11-18T10:31:33Z</time>
      </trkpt>
      <trkpt lat="43.46127" lon="6.08218">
        <ele>336.1</ele>
        <time>2012-11-18T10:31:41Z</time>
      </trkpt>
      <trkpt lat="43.46127" lon="6.0823">
        <ele>334.7</ele>
        <time>2012-11-18T10:31:52Z</time>
      </trkpt>
      <trkpt lat="43.4612" lon="6.08238">
        <ele>334.3</ele>
        <time>2012-11-18T10:32:03Z</time>
      </trkpt>
      <trkpt lat="43.46116" lon="6.08248">
        <ele>333.8</ele>
        <time>2012-11-18T10:32:14Z</time>
      </trkpt>
      <trkpt lat="43.46116" lon="6.0825">
        <ele>333.6</ele>
        <time>2012-11-18T10:32:15Z</time>
      </trkpt>
      <trkpt lat="43.46115" lon="6.08272">
        <ele>331.5</ele>
        <time>2012-11-18T10:32:32Z</time>
      </trkpt>
      <trkpt lat="43.46119" lon="6.08282">
        <ele>330.8</ele>
        <time>2012-11-18T10:32:44Z</time>
      </trkpt>
      <trkpt lat="43.46122" lon="6.08294">
        <ele>330.4</ele>
        <time>2012-11-18T10:32:57Z</time>
      </trkpt>
      <trkpt lat="43.46121" lon="6.08305">
        <ele>328.4</ele>
        <time>2012-11-18T10:33:08Z</time>
      </trkpt>
      <trkpt lat="43.46118" lon="6.08316">
        <ele>327.8</ele>
        <time>2012-11-18T10:33:18Z</time>
      </trkpt>
      <trkpt lat="43.46118" lon="6.08318">
        <ele>327.6</ele>
        <time>2012-11-18T10:33:19Z</time>
      </trkpt>
      <trkpt lat="43.4611" lon="6.08336">
        <ele>325.6</ele>
        <time>2012-11-18T10:33:37Z</time>
      </trkpt>
      <trkpt lat="43.46109" lon="6.08348">
        <ele>326.2</ele>
        <time>2012-11-18T10:33:44Z</time>
      </trkpt>
      <trkpt lat="43.46107" lon="6.08359">
        <ele>328.1</ele>
        <time>2012-11-18T10:33:58Z</time>
      </trkpt>
      <trkpt lat="43.46107" lon="6.0837">
        <ele>328.5</ele>
        <time>2012-11-18T10:34:09Z</time>
      </trkpt>
      <trkpt lat="43.46109" lon="6.08381">
        <ele>328.6</ele>
        <time>2012-11-18T10:34:17Z</time>
      </trkpt>
      <trkpt lat="43.46114" lon="6.08392">
        <ele>328.2</ele>
        <time>2012-11-18T10:34:26Z</time>
      </trkpt>
      <trkpt lat="43.46114" lon="6.08394">
        <ele>328.2</ele>
        <time>2012-11-18T10:34:27Z</time>
      </trkpt>
      <trkpt lat="43.46121" lon="6.08412">
        <ele>329</ele>
        <time>2012-11-18T10:34:40Z</time>
      </trkpt>
      <trkpt lat="43.46126" lon="6.08422">
        <ele>328.6</ele>
        <time>2012-11-18T10:34:49Z</time>
      </trkpt>
      <trkpt lat="43.4613" lon="6.08431">
        <ele>327.9</ele>
        <time>2012-11-18T10:34:53Z</time>
      </trkpt>
      <trkpt lat="43.46131" lon="6.08442">
        <ele>328.4</ele>
        <time>2012-11-18T10:35:06Z</time>
      </trkpt>
      <trkpt lat="43.4613" lon="6.08454">
        <ele>327.9</ele>
        <time>2012-11-18T10:35:14Z</time>
      </trkpt>
      <trkpt lat="43.4613" lon="6.08464">
        <ele>328.2</ele>
        <time>2012-11-18T10:35:21Z</time>
      </trkpt>
      <trkpt lat="43.4613" lon="6.08476">
        <ele>327.8</ele>
        <time>2012-11-18T10:35:28Z</time>
      </trkpt>
      <trkpt lat="43.4613" lon="6.08477">
        <ele>327.9</ele>
        <time>2012-11-18T10:35:29Z</time>
      </trkpt>
      <trkpt lat="43.46133" lon="6.08497">
        <ele>327.8</ele>
        <time>2012-11-18T10:35:43Z</time>
      </trkpt>
      <trkpt lat="43.46136" lon="6.08508">
        <ele>327.2</ele>
        <time>2012-11-18T10:35:51Z</time>
      </trkpt>
      <trkpt lat="43.46139" lon="6.08519">
        <ele>326.5</ele>
        <time>2012-11-18T10:36:00Z</time>
      </trkpt>
      <trkpt lat="43.46138" lon="6.08531">
        <ele>325.5</ele>
        <time>2012-11-18T10:36:07Z</time>
      </trkpt>
      <trkpt lat="43.46134" lon="6.08542">
        <ele>325</ele>
        <time>2012-11-18T10:36:16Z</time>
      </trkpt>
      <trkpt lat="43.46126" lon="6.08546">
        <ele>325.2</ele>
        <time>2012-11-18T10:36:27Z</time>
      </trkpt>
      <trkpt lat="43.46119" lon="6.08553">
        <ele>325</ele>
        <time>2012-11-18T10:36:39Z</time>
      </trkpt>
      <trkpt lat="43.46118" lon="6.08554">
        <ele>325.1</ele>
        <time>2012-11-18T10:36:40Z</time>
      </trkpt>
      <trkpt lat="43.46106" lon="6.08568">
        <ele>325.4</ele>
        <time>2012-11-18T10:36:57Z</time>
      </trkpt>
      <trkpt lat="43.46099" lon="6.08574">
        <ele>326.6</ele>
        <time>2012-11-18T10:37:06Z</time>
      </trkpt>
      <trkpt lat="43.46093" lon="6.08582">
        <ele>327</ele>
        <time>2012-11-18T10:37:16Z</time>
      </trkpt>
      <trkpt lat="43.46087" lon="6.0859">
        <ele>327.9</ele>
        <time>2012-11-18T10:37:26Z</time>
      </trkpt>
      <trkpt lat="43.46081" lon="6.086">
        <ele>328.4</ele>
        <time>2012-11-18T10:37:38Z</time>
      </trkpt>
      <trkpt lat="43.46075" lon="6.08608">
        <ele>329.1</ele>
        <time>2012-11-18T10:37:51Z</time>
      </trkpt>
      <trkpt lat="43.46075" lon="6.08609">
        <ele>328.8</ele>
        <time>2012-11-18T10:37:52Z</time>
      </trkpt>
      <trkpt lat="43.46064" lon="6.08625">
        <ele>330.9</ele>
        <time>2012-11-18T10:38:11Z</time>
      </trkpt>
      <trkpt lat="43.46058" lon="6.08635">
        <ele>331.8</ele>
        <time>2012-11-18T10:38:24Z</time>
      </trkpt>
      <trkpt lat="43.46054" lon="6.08644">
        <ele>332.5</ele>
        <time>2012-11-18T10:38:32Z</time>
      </trkpt>
      <trkpt lat="43.46051" lon="6.08656">
        <ele>331.9</ele>
        <time>2012-11-18T10:38:39Z</time>
      </trkpt>
      <trkpt lat="43.4605" lon="6.08668">
        <ele>332.3</ele>
        <time>2012-11-18T10:38:48Z</time>
      </trkpt>
      <trkpt lat="43.46046" lon="6.08679">
        <ele>332.8</ele>
        <time>2012-11-18T10:39:00Z</time>
      </trkpt>
      <trkpt lat="43.46045" lon="6.0868">
        <ele>332.7</ele>
        <time>2012-11-18T10:39:01Z</time>
      </trkpt>
      <trkpt lat="43.4604" lon="6.087">
        <ele>333.3</ele>
        <time>2012-11-18T10:39:19Z</time>
      </trkpt>
      <trkpt lat="43.46038" lon="6.08712">
        <ele>333</ele>
        <time>2012-11-18T10:39:28Z</time>
      </trkpt>
      <trkpt lat="43.46034" lon="6.08723">
        <ele>332.9</ele>
        <time>2012-11-18T10:39:39Z</time>
      </trkpt>
      <trkpt lat="43.46032" lon="6.08734">
        <ele>333.7</ele>
        <time>2012-11-18T10:39:47Z</time>
      </trkpt>
      <trkpt lat="43.4603" lon="6.08746">
        <ele>333.3</ele>
        <time>2012-11-18T10:39:58Z</time>
      </trkpt>
      <trkpt lat="43.4603" lon="6.08758">
        <ele>333</ele>
        <time>2012-11-18T10:40:07Z</time>
      </trkpt>
      <trkpt lat="43.4603" lon="6.08759">
        <ele>333</ele>
        <time>2012-11-18T10:40:08Z</time>
      </trkpt>
      <trkpt lat="43.46029" lon="6.08781">
        <ele>333.8</ele>
        <time>2012-11-18T10:40:25Z</time>
      </trkpt>
      <trkpt lat="43.46029" lon="6.08792">
        <ele>333.7</ele>
        <time>2012-11-18T10:40:32Z</time>
      </trkpt>
      <trkpt lat="43.46029" lon="6.08804">
        <ele>333.8</ele>
        <time>2012-11-18T10:40:42Z</time>
      </trkpt>
      <trkpt lat="43.46028" lon="6.08816">
        <ele>333.1</ele>
        <time>2012-11-18T10:40:51Z</time>
      </trkpt>
      <trkpt lat="43.46029" lon="6.08828">
        <ele>332.5</ele>
        <time>2012-11-18T10:41:01Z</time>
      </trkpt>
      <trkpt lat="43.4603" lon="6.08839">
        <ele>331.4</ele>
        <time>2012-11-18T10:41:10Z</time>
      </trkpt>
      <trkpt lat="43.4603" lon="6.0884">
        <ele>331.6</ele>
        <time>2012-11-18T10:41:11Z</time>
      </trkpt>
      <trkpt lat="43.46031" lon="6.08863">
        <ele>333</ele>
        <time>2012-11-18T10:41:31Z</time>
      </trkpt>
      <trkpt lat="43.4603" lon="6.08875">
        <ele>332.9</ele>
        <time>2012-11-18T10:41:44Z</time>
      </trkpt>
      <trkpt lat="43.46025" lon="6.08885">
        <ele>332.9</ele>
        <time>2012-11-18T10:41:53Z</time>
      </trkpt>
      <trkpt lat="43.46022" lon="6.08896">
        <ele>333.4</ele>
        <time>2012-11-18T10:42:05Z</time>
      </trkpt>
      <trkpt lat="43.46019" lon="6.08907">
        <ele>333.7</ele>
        <time>2012-11-18T10:42:16Z</time>
      </trkpt>
      <trkpt lat="43.46018" lon="6.08908">
        <ele>333.4</ele>
        <time>2012-11-18T10:42:17Z</time>
      </trkpt>
      <trkpt lat="43.46011" lon="6.08928">
        <ele>333.7</ele>
        <time>2012-11-18T10:42:38Z</time>
      </trkpt>
      <trkpt lat="43.46007" lon="6.08938">
        <ele>333.3</ele>
        <time>2012-11-18T10:42:48Z</time>
      </trkpt>
      <trkpt lat="43.46002" lon="6.08948">
        <ele>333.5</ele>
        <time>2012-11-18T10:42:57Z</time>
      </trkpt>
      <trkpt lat="43.46" lon="6.08959">
        <ele>333.7</ele>
        <time>2012-11-18T10:43:08Z</time>
      </trkpt>
      <trkpt lat="43.45996" lon="6.08969">
        <ele>333.6</ele>
        <time>2012-11-18T10:43:16Z</time>
      </trkpt>
      <trkpt lat="43.45991" lon="6.08978">
        <ele>333.8</ele>
        <time>2012-11-18T10:43:24Z</time>
      </trkpt>
      <trkpt lat="43.45991" lon="6.0898">
        <ele>333.7</ele>
        <time>2012-11-18T10:43:25Z</time>
      </trkpt>
      <trkpt lat="43.45984" lon="6.08998">
        <ele>333.7</ele>
        <time>2012-11-18T10:43:42Z</time>
      </trkpt>
      <trkpt lat="43.4598" lon="6.09008">
        <ele>332.5</ele>
        <time>2012-11-18T10:43:51Z</time>
      </trkpt>
      <trkpt lat="43.45977" lon="6.0902">
        <ele>332.5</ele>
        <time>2012-11-18T10:43:59Z</time>
      </trkpt>
      <trkpt lat="43.45974" lon="6.09031">
        <ele>332.6</ele>
        <time>2012-11-18T10:44:07Z</time>
      </trkpt>
      <trkpt lat="43.45969" lon="6.0904">
        <ele>332.3</ele>
        <time>2012-11-18T10:44:14Z</time>
      </trkpt>
      <trkpt lat="43.4596" lon="6.09042">
        <ele>332.4</ele>
        <time>2012-11-18T10:44:32Z</time>
      </trkpt>
      <trkpt lat="43.4596" lon="6.09042">
        <ele>332.5</ele>
        <time>2012-11-18T10:44:33Z</time>
      </trkpt>
      <trkpt lat="43.45944" lon="6.09048">
        <ele>331.3</ele>
        <time>2012-11-18T10:45:04Z</time>
      </trkpt>
      <trkpt lat="43.45936" lon="6.09052">
        <ele>330</ele>
        <time>2012-11-18T10:45:28Z</time>
      </trkpt>
      <trkpt lat="43.4593" lon="6.0906">
        <ele>329.4</ele>
        <time>2012-11-18T10:45:40Z</time>
      </trkpt>
      <trkpt lat="43.4593" lon="6.09061">
        <ele>329.4</ele>
        <time>2012-11-18T10:45:41Z</time>
      </trkpt>
      <trkpt lat="43.45917" lon="6.09074">
        <ele>329.3</ele>
        <time>2012-11-18T10:46:03Z</time>
      </trkpt>
      <trkpt lat="43.45909" lon="6.09079">
        <ele>329.1</ele>
        <time>2012-11-18T10:46:28Z</time>
      </trkpt>
      <trkpt lat="43.45903" lon="6.09088">
        <ele>327.6</ele>
        <time>2012-11-18T10:46:50Z</time>
      </trkpt>
      <trkpt lat="43.45902" lon="6.09089">
        <ele>327.4</ele>
        <time>2012-11-18T10:46:51Z</time>
      </trkpt>
      <trkpt lat="43.45893" lon="6.09108">
        <ele>324.5</ele>
        <time>2012-11-18T10:47:13Z</time>
      </trkpt>
      <trkpt lat="43.45891" lon="6.09119">
        <ele>323.3</ele>
        <time>2012-11-18T10:47:27Z</time>
      </trkpt>
      <trkpt lat="43.45888" lon="6.09131">
        <ele>322.6</ele>
        <time>2012-11-18T10:48:20Z</time>
      </trkpt>
      <trkpt lat="43.45888" lon="6.09131">
        <ele>322.5</ele>
        <time>2012-11-18T10:48:21Z</time>
      </trkpt>
      <trkpt lat="43.45895" lon="6.09123">
        <ele>320.6</ele>
        <time>2012-11-18T11:16:25Z</time>
      </trkpt>
      <trkpt lat="43.45885" lon="6.09126">
        <ele>319.8</ele>
        <time>2012-11-18T11:32:40Z</time>
      </trkpt>
      <trkpt lat="43.45894" lon="6.09119">
        <ele>320.5</ele>
        <time>2012-11-18T11:36:16Z</time>
      </trkpt>
      <trkpt lat="43.45885" lon="6.09126">
        <ele>321.6</ele>
        <time>2012-11-18T11:43:09Z</time>
      </trkpt>
      <trkpt lat="43.45894" lon="6.09119">
        <ele>322.2</ele>
        <time>2012-11-18T11:46:37Z</time>
      </trkpt>
      <trkpt lat="43.45886" lon="6.09127">
        <ele>323.3</ele>
        <time>2012-11-18T11:47:48Z</time>
      </trkpt>
      <trkpt lat="43.45889" lon="6.09114">
        <ele>322.4</ele>
        <time>2012-11-18T11:49:52Z</time>
      </trkpt>
      <trkpt lat="43.45891" lon="6.09091">
        <ele>320.8</ele>
        <time>2012-11-18T11:50:49Z</time>
      </trkpt>
      <trkpt lat="43.45894" lon="6.0908">
        <ele>319.9</ele>
        <time>2012-11-18T11:51:02Z</time>
      </trkpt>
      <trkpt lat="43.45894" lon="6.09079">
        <ele>319.9</ele>
        <time>2012-11-18T11:51:03Z</time>
      </trkpt>
      <trkpt lat="43.45901" lon="6.09058">
        <ele>316.4</ele>
        <time>2012-11-18T11:51:33Z</time>
      </trkpt>
      <trkpt lat="43.45906" lon="6.0905">
        <ele>315.4</ele>
        <time>2012-11-18T11:51:42Z</time>
      </trkpt>
      <trkpt lat="43.45909" lon="6.09038">
        <ele>315</ele>
        <time>2012-11-18T11:51:54Z</time>
      </trkpt>
      <trkpt lat="43.45914" lon="6.09029">
        <ele>315.1</ele>
        <time>2012-11-18T11:52:05Z</time>
      </trkpt>
      <trkpt lat="43.45914" lon="6.09028">
        <ele>315.1</ele>
        <time>2012-11-18T11:52:06Z</time>
      </trkpt>
      <trkpt lat="43.45916" lon="6.09006">
        <ele>313.1</ele>
        <time>2012-11-18T11:52:30Z</time>
      </trkpt>
      <trkpt lat="43.45913" lon="6.08996">
        <ele>311.8</ele>
        <time>2012-11-18T11:52:38Z</time>
      </trkpt>
      <trkpt lat="43.45907" lon="6.08988">
        <ele>311.4</ele>
        <time>2012-11-18T11:52:42Z</time>
      </trkpt>
      <trkpt lat="43.45905" lon="6.08976">
        <ele>310.5</ele>
        <time>2012-11-18T11:52:52Z</time>
      </trkpt>
      <trkpt lat="43.45903" lon="6.08964">
        <ele>310.5</ele>
        <time>2012-11-18T11:53:02Z</time>
      </trkpt>
      <trkpt lat="43.459" lon="6.08975">
        <ele>307.7</ele>
        <time>2012-11-18T11:53:22Z</time>
      </trkpt>
      <trkpt lat="43.45899" lon="6.08975">
        <ele>307.8</ele>
        <time>2012-11-18T11:53:23Z</time>
      </trkpt>
      <trkpt lat="43.45888" lon="6.08991">
        <ele>303.9</ele>
        <time>2012-11-18T11:53:46Z</time>
      </trkpt>
      <trkpt lat="43.45884" lon="6.09002">
        <ele>302.1</ele>
        <time>2012-11-18T11:53:58Z</time>
      </trkpt>
      <trkpt lat="43.45888" lon="6.09013">
        <ele>301.6</ele>
        <time>2012-11-18T11:54:21Z</time>
      </trkpt>
      <trkpt lat="43.45884" lon="6.09024">
        <ele>299.6</ele>
        <time>2012-11-18T11:55:04Z</time>
      </trkpt>
      <trkpt lat="43.45883" lon="6.09025">
        <ele>299.4</ele>
        <time>2012-11-18T11:55:05Z</time>
      </trkpt>
      <trkpt lat="43.45876" lon="6.09004">
        <ele>295.6</ele>
        <time>2012-11-18T11:55:38Z</time>
      </trkpt>
      <trkpt lat="43.45877" lon="6.08993">
        <ele>294.7</ele>
        <time>2012-11-18T11:55:46Z</time>
      </trkpt>
      <trkpt lat="43.45874" lon="6.08983">
        <ele>293</ele>
        <time>2012-11-18T11:55:53Z</time>
      </trkpt>
      <trkpt lat="43.45872" lon="6.08971">
        <ele>291.6</ele>
        <time>2012-11-18T11:56:02Z</time>
      </trkpt>
      <trkpt lat="43.45868" lon="6.0896">
        <ele>290.3</ele>
        <time>2012-11-18T11:56:08Z</time>
      </trkpt>
      <trkpt lat="43.45868" lon="6.08958">
        <ele>290</ele>
        <time>2012-11-18T11:56:09Z</time>
      </trkpt>
      <trkpt lat="43.45864" lon="6.0894">
        <ele>287.4</ele>
        <time>2012-11-18T11:56:24Z</time>
      </trkpt>
      <trkpt lat="43.45861" lon="6.0893">
        <ele>286.5</ele>
        <time>2012-11-18T11:56:30Z</time>
      </trkpt>
      <trkpt lat="43.45856" lon="6.08921">
        <ele>285.1</ele>
        <time>2012-11-18T11:56:37Z</time>
      </trkpt>
      <trkpt lat="43.4585" lon="6.08912">
        <ele>282.7</ele>
        <time>2012-11-18T11:56:46Z</time>
      </trkpt>
      <trkpt lat="43.45847" lon="6.08902">
        <ele>282.1</ele>
        <time>2012-11-18T11:56:51Z</time>
      </trkpt>
      <trkpt lat="43.45844" lon="6.08891">
        <ele>282.1</ele>
        <time>2012-11-18T11:56:58Z</time>
      </trkpt>
      <trkpt lat="43.4584" lon="6.0888">
        <ele>280.1</ele>
        <time>2012-11-18T11:57:07Z</time>
      </trkpt>
      <trkpt lat="43.45835" lon="6.0887">
        <ele>278.7</ele>
        <time>2012-11-18T11:57:17Z</time>
      </trkpt>
      <trkpt lat="43.45835" lon="6.08868">
        <ele>278.6</ele>
        <time>2012-11-18T11:57:18Z</time>
      </trkpt>
      <trkpt lat="43.45823" lon="6.08853">
        <ele>276.1</ele>
        <time>2012-11-18T11:57:35Z</time>
      </trkpt>
      <trkpt lat="43.45821" lon="6.08841">
        <ele>274.1</ele>
        <time>2012-11-18T11:57:46Z</time>
      </trkpt>
      <trkpt lat="43.45815" lon="6.08832">
        <ele>272.5</ele>
        <time>2012-11-18T11:57:56Z</time>
      </trkpt>
      <trkpt lat="43.45811" lon="6.08822">
        <ele>270.6</ele>
        <time>2012-11-18T11:58:06Z</time>
      </trkpt>
      <trkpt lat="43.45806" lon="6.08813">
        <ele>269.7</ele>
        <time>2012-11-18T11:58:14Z</time>
      </trkpt>
      <trkpt lat="43.458" lon="6.08803">
        <ele>267.2</ele>
        <time>2012-11-18T11:58:27Z</time>
      </trkpt>
      <trkpt lat="43.45799" lon="6.08802">
        <ele>267</ele>
        <time>2012-11-18T11:58:28Z</time>
      </trkpt>
      <trkpt lat="43.45797" lon="6.08781">
        <ele>262.4</ele>
        <time>2012-11-18T11:58:46Z</time>
      </trkpt>
      <trkpt lat="43.45793" lon="6.0877">
        <ele>261.8</ele>
        <time>2012-11-18T11:58:56Z</time>
      </trkpt>
      <trkpt lat="43.45789" lon="6.0876">
        <ele>260.7</ele>
        <time>2012-11-18T11:59:04Z</time>
      </trkpt>
      <trkpt lat="43.45789" lon="6.08749">
        <ele>258.6</ele>
        <time>2012-11-18T11:59:15Z</time>
      </trkpt>
      <trkpt lat="43.45784" lon="6.08739">
        <ele>257.2</ele>
        <time>2012-11-18T11:59:26Z</time>
      </trkpt>
      <trkpt lat="43.45779" lon="6.08729">
        <ele>254.5</ele>
        <time>2012-11-18T11:59:37Z</time>
      </trkpt>
      <trkpt lat="43.45779" lon="6.08728">
        <ele>254.3</ele>
        <time>2012-11-18T11:59:38Z</time>
      </trkpt>
      <trkpt lat="43.4577" lon="6.0871">
        <ele>250.4</ele>
        <time>2012-11-18T12:00:07Z</time>
      </trkpt>
      <trkpt lat="43.45767" lon="6.08699">
        <ele>250</ele>
        <time>2012-11-18T12:00:16Z</time>
      </trkpt>
      <trkpt lat="43.4576" lon="6.08692">
        <ele>248.5</ele>
        <time>2012-11-18T12:00:23Z</time>
      </trkpt>
      <trkpt lat="43.45756" lon="6.08682">
        <ele>248.2</ele>
        <time>2012-11-18T12:00:32Z</time>
      </trkpt>
      <trkpt lat="43.45749" lon="6.08676">
        <ele>247</ele>
        <time>2012-11-18T12:00:40Z</time>
      </trkpt>
      <trkpt lat="43.45749" lon="6.08674">
        <ele>246.2</ele>
        <time>2012-11-18T12:00:41Z</time>
      </trkpt>
      <trkpt lat="43.45737" lon="6.08659">
        <ele>244.5</ele>
        <time>2012-11-18T12:00:57Z</time>
      </trkpt>
      <trkpt lat="43.45729" lon="6.08655">
        <ele>242.9</ele>
        <time>2012-11-18T12:01:06Z</time>
      </trkpt>
      <trkpt lat="43.45724" lon="6.08645">
        <ele>241.1</ele>
        <time>2012-11-18T12:01:17Z</time>
      </trkpt>
      <trkpt lat="43.45721" lon="6.08635">
        <ele>241</ele>
        <time>2012-11-18T12:01:25Z</time>
      </trkpt>
      <trkpt lat="43.45716" lon="6.08625">
        <ele>238.6</ele>
        <time>2012-11-18T12:01:33Z</time>
      </trkpt>
      <trkpt lat="43.45712" lon="6.08614">
        <ele>237.7</ele>
        <time>2012-11-18T12:01:43Z</time>
      </trkpt>
      <trkpt lat="43.45711" lon="6.08613">
        <ele>237.4</ele>
        <time>2012-11-18T12:01:44Z</time>
      </trkpt>
      <trkpt lat="43.45707" lon="6.08591">
        <ele>234.4</ele>
        <time>2012-11-18T12:02:11Z</time>
      </trkpt>
      <trkpt lat="43.45704" lon="6.0858">
        <ele>232.5</ele>
        <time>2012-11-18T12:02:23Z</time>
      </trkpt>
      <trkpt lat="43.45699" lon="6.0857">
        <ele>231.6</ele>
        <time>2012-11-18T12:02:34Z</time>
      </trkpt>
      <trkpt lat="43.45694" lon="6.08561">
        <ele>231.4</ele>
        <time>2012-11-18T12:02:43Z</time>
      </trkpt>
      <trkpt lat="43.45688" lon="6.08552">
        <ele>229.4</ele>
        <time>2012-11-18T12:02:53Z</time>
      </trkpt>
      <trkpt lat="43.45688" lon="6.0855">
        <ele>229.3</ele>
        <time>2012-11-18T12:02:54Z</time>
      </trkpt>
      <trkpt lat="43.45683" lon="6.08531">
        <ele>228.4</ele>
        <time>2012-11-18T12:03:08Z</time>
      </trkpt>
      <trkpt lat="43.45679" lon="6.0852">
        <ele>227.6</ele>
        <time>2012-11-18T12:03:18Z</time>
      </trkpt>
      <trkpt lat="43.45684" lon="6.0851">
        <ele>227.4</ele>
        <time>2012-11-18T12:03:27Z</time>
      </trkpt>
      <trkpt lat="43.45683" lon="6.08499">
        <ele>227.5</ele>
        <time>2012-11-18T12:03:34Z</time>
      </trkpt>
      <trkpt lat="43.45678" lon="6.08489">
        <ele>227.9</ele>
        <time>2012-11-18T12:03:42Z</time>
      </trkpt>
      <trkpt lat="43.45676" lon="6.08478">
        <ele>227.9</ele>
        <time>2012-11-18T12:03:49Z</time>
      </trkpt>
      <trkpt lat="43.45675" lon="6.08466">
        <ele>227.6</ele>
        <time>2012-11-18T12:03:57Z</time>
      </trkpt>
      <trkpt lat="43.45674" lon="6.08465">
        <ele>227.7</ele>
        <time>2012-11-18T12:03:58Z</time>
      </trkpt>
      <trkpt lat="43.4567" lon="6.08443">
        <ele>229.9</ele>
        <time>2012-11-18T12:04:14Z</time>
      </trkpt>
      <trkpt lat="43.45672" lon="6.08432">
        <ele>230.8</ele>
        <time>2012-11-18T12:04:22Z</time>
      </trkpt>
      <trkpt lat="43.45671" lon="6.08421">
        <ele>230.8</ele>
        <time>2012-11-18T12:04:29Z</time>
      </trkpt>
      <trkpt lat="43.45673" lon="6.0841">
        <ele>230</ele>
        <time>2012-11-18T12:04:35Z</time>
      </trkpt>
      <trkpt lat="43.45673" lon="6.08399">
        <ele>230.1</ele>
        <time>2012-11-18T12:04:42Z</time>
      </trkpt>
      <trkpt lat="43.45674" lon="6.08387">
        <ele>230.3</ele>
        <time>2012-11-18T12:04:48Z</time>
      </trkpt>
      <trkpt lat="43.45673" lon="6.08377">
        <ele>229.5</ele>
        <time>2012-11-18T12:04:55Z</time>
      </trkpt>
      <trkpt lat="43.45672" lon="6.08365">
        <ele>229.5</ele>
        <time>2012-11-18T12:05:03Z</time>
      </trkpt>
      <trkpt lat="43.45672" lon="6.08363">
        <ele>229.2</ele>
        <time>2012-11-18T12:05:04Z</time>
      </trkpt>
      <trkpt lat="43.45671" lon="6.08341">
        <ele>228.6</ele>
        <time>2012-11-18T12:05:18Z</time>
      </trkpt>
      <trkpt lat="43.45669" lon="6.08329">
        <ele>228.2</ele>
        <time>2012-11-18T12:05:26Z</time>
      </trkpt>
      <trkpt lat="43.45669" lon="6.08317">
        <ele>228.9</ele>
        <time>2012-11-18T12:05:34Z</time>
      </trkpt>
      <trkpt lat="43.45668" lon="6.08306">
        <ele>228.1</ele>
        <time>2012-11-18T12:05:42Z</time>
      </trkpt>
      <trkpt lat="43.45668" lon="6.08295">
        <ele>228.2</ele>
        <time>2012-11-18T12:05:49Z</time>
      </trkpt>
      <trkpt lat="43.45669" lon="6.08284">
        <ele>229.2</ele>
        <time>2012-11-18T12:05:56Z</time>
      </trkpt>
      <trkpt lat="43.45667" lon="6.08272">
        <ele>227.8</ele>
        <time>2012-11-18T12:06:04Z</time>
      </trkpt>
      <trkpt lat="43.45666" lon="6.0827">
        <ele>227.6</ele>
        <time>2012-11-18T12:06:05Z</time>
      </trkpt>
      <trkpt lat="43.45662" lon="6.0825">
        <ele>228.5</ele>
        <time>2012-11-18T12:06:19Z</time>
      </trkpt>
      <trkpt lat="43.45658" lon="6.0824">
        <ele>228.7</ele>
        <time>2012-11-18T12:06:26Z</time>
      </trkpt>
      <trkpt lat="43.45656" lon="6.08228">
        <ele>228.2</ele>
        <time>2012-11-18T12:06:34Z</time>
      </trkpt>
      <trkpt lat="43.45657" lon="6.08217">
        <ele>228.9</ele>
        <time>2012-11-18T12:06:42Z</time>
      </trkpt>
      <trkpt lat="43.45658" lon="6.08205">
        <ele>230.7</ele>
        <time>2012-11-18T12:06:50Z</time>
      </trkpt>
      <trkpt lat="43.45658" lon="6.08194">
        <ele>231.1</ele>
        <time>2012-11-18T12:07:00Z</time>
      </trkpt>
      <trkpt lat="43.45659" lon="6.08183">
        <ele>231.4</ele>
        <time>2012-11-18T12:07:08Z</time>
      </trkpt>
      <trkpt lat="43.45659" lon="6.08181">
        <ele>231.5</ele>
        <time>2012-11-18T12:07:09Z</time>
      </trkpt>
      <trkpt lat="43.45662" lon="6.0816">
        <ele>231.5</ele>
        <time>2012-11-18T12:07:24Z</time>
      </trkpt>
      <trkpt lat="43.45661" lon="6.08148">
        <ele>231.5</ele>
        <time>2012-11-18T12:07:32Z</time>
      </trkpt>
      <trkpt lat="43.45661" lon="6.08136">
        <ele>232</ele>
        <time>2012-11-18T12:07:39Z</time>
      </trkpt>
      <trkpt lat="43.45665" lon="6.08126">
        <ele>232</ele>
        <time>2012-11-18T12:07:47Z</time>
      </trkpt>
      <trkpt lat="43.4567" lon="6.08116">
        <ele>231.8</ele>
        <time>2012-11-18T12:07:53Z</time>
      </trkpt>
      <trkpt lat="43.45676" lon="6.08108">
        <ele>233</ele>
        <time>2012-11-18T12:07:59Z</time>
      </trkpt>
      <trkpt lat="43.4568" lon="6.08097">
        <ele>233.3</ele>
        <time>2012-11-18T12:08:07Z</time>
      </trkpt>
      <trkpt lat="43.4568" lon="6.08085">
        <ele>234</ele>
        <time>2012-11-18T12:08:15Z</time>
      </trkpt>
      <trkpt lat="43.4568" lon="6.08084">
        <ele>234.3</ele>
        <time>2012-11-18T12:08:16Z</time>
      </trkpt>
      <trkpt lat="43.45685" lon="6.08063">
        <ele>235</ele>
        <time>2012-11-18T12:08:34Z</time>
      </trkpt>
      <trkpt lat="43.45686" lon="6.08052">
        <ele>235.7</ele>
        <time>2012-11-18T12:08:44Z</time>
      </trkpt>
      <trkpt lat="43.45692" lon="6.08044">
        <ele>237</ele>
        <time>2012-11-18T12:08:52Z</time>
      </trkpt>
      <trkpt lat="43.45698" lon="6.08035">
        <ele>237.3</ele>
        <time>2012-11-18T12:09:02Z</time>
      </trkpt>
      <trkpt lat="43.45701" lon="6.08025">
        <ele>238.2</ele>
        <time>2012-11-18T12:09:09Z</time>
      </trkpt>
      <trkpt lat="43.45705" lon="6.08015">
        <ele>239.8</ele>
        <time>2012-11-18T12:09:19Z</time>
      </trkpt>
      <trkpt lat="43.45706" lon="6.08013">
        <ele>239.9</ele>
        <time>2012-11-18T12:09:20Z</time>
      </trkpt>
      <trkpt lat="43.45712" lon="6.07996">
        <ele>241</ele>
        <time>2012-11-18T12:09:32Z</time>
      </trkpt>
      <trkpt lat="43.45715" lon="6.07985">
        <ele>239.4</ele>
        <time>2012-11-18T12:09:41Z</time>
      </trkpt>
      <trkpt lat="43.45719" lon="6.07974">
        <ele>240.9</ele>
        <time>2012-11-18T12:09:47Z</time>
      </trkpt>
      <trkpt lat="43.45722" lon="6.07964">
        <ele>241.6</ele>
        <time>2012-11-18T12:09:54Z</time>
      </trkpt>
      <trkpt lat="43.45726" lon="6.07953">
        <ele>242.6</ele>
        <time>2012-11-18T12:10:05Z</time>
      </trkpt>
      <trkpt lat="43.45729" lon="6.07942">
        <ele>243.3</ele>
        <time>2012-11-18T12:10:13Z</time>
      </trkpt>
      <trkpt lat="43.45733" lon="6.07931">
        <ele>244</ele>
        <time>2012-11-18T12:10:22Z</time>
      </trkpt>
      <trkpt lat="43.45733" lon="6.07929">
        <ele>244.5</ele>
        <time>2012-11-18T12:10:23Z</time>
      </trkpt>
      <trkpt lat="43.45741" lon="6.07911">
        <ele>244.8</ele>
        <time>2012-11-18T12:10:39Z</time>
      </trkpt>
      <trkpt lat="43.45744" lon="6.079">
        <ele>245.9</ele>
        <time>2012-11-18T12:10:48Z</time>
      </trkpt>
      <trkpt lat="43.45747" lon="6.07889">
        <ele>246.7</ele>
        <time>2012-11-18T12:11:00Z</time>
      </trkpt>
      <trkpt lat="43.45752" lon="6.07879">
        <ele>248.1</ele>
        <time>2012-11-18T12:11:10Z</time>
      </trkpt>
      <trkpt lat="43.45758" lon="6.07871">
        <ele>247.7</ele>
        <time>2012-11-18T12:11:26Z</time>
      </trkpt>
      <trkpt lat="43.45758" lon="6.0787">
        <ele>247.9</ele>
        <time>2012-11-18T12:11:27Z</time>
      </trkpt>
      <trkpt lat="43.4576" lon="6.07848">
        <ele>247.8</ele>
        <time>2012-11-18T12:11:47Z</time>
      </trkpt>
      <trkpt lat="43.45763" lon="6.07838">
        <ele>248.4</ele>
        <time>2012-11-18T12:11:56Z</time>
      </trkpt>
      <trkpt lat="43.45766" lon="6.07827">
        <ele>249.8</ele>
        <time>2012-11-18T12:12:04Z</time>
      </trkpt>
      <trkpt lat="43.45772" lon="6.07818">
        <ele>249</ele>
        <time>2012-11-18T12:12:13Z</time>
      </trkpt>
      <trkpt lat="43.45773" lon="6.07806">
        <ele>249.7</ele>
        <time>2012-11-18T12:12:26Z</time>
      </trkpt>
      <trkpt lat="43.45776" lon="6.07796">
        <ele>250.1</ele>
        <time>2012-11-18T12:12:34Z</time>
      </trkpt>
      <trkpt lat="43.45777" lon="6.07794">
        <ele>249.8</ele>
        <time>2012-11-18T12:12:35Z</time>
      </trkpt>
      <trkpt lat="43.45775" lon="6.07773">
        <ele>250</ele>
        <time>2012-11-18T12:13:28Z</time>
      </trkpt>
      <trkpt lat="43.45779" lon="6.07762">
        <ele>250.2</ele>
        <time>2012-11-18T12:13:39Z</time>
      </trkpt>
      <trkpt lat="43.45779" lon="6.07761">
        <ele>250</ele>
        <time>2012-11-18T12:13:40Z</time>
      </trkpt>
      <trkpt lat="43.45787" lon="6.07741">
        <ele>250.6</ele>
        <time>2012-11-18T12:13:57Z</time>
      </trkpt>
      <trkpt lat="43.45791" lon="6.0773">
        <ele>250.2</ele>
        <time>2012-11-18T12:14:06Z</time>
      </trkpt>
      <trkpt lat="43.45793" lon="6.07719">
        <ele>251.3</ele>
        <time>2012-11-18T12:14:14Z</time>
      </trkpt>
      <trkpt lat="43.45795" lon="6.07708">
        <ele>252.7</ele>
        <time>2012-11-18T12:14:21Z</time>
      </trkpt>
      <trkpt lat="43.45796" lon="6.07697">
        <ele>253.1</ele>
        <time>2012-11-18T12:14:30Z</time>
      </trkpt>
      <trkpt lat="43.45796" lon="6.07685">
        <ele>252.1</ele>
        <time>2012-11-18T12:14:40Z</time>
      </trkpt>
      <trkpt lat="43.45796" lon="6.07683">
        <ele>252.1</ele>
        <time>2012-11-18T12:14:41Z</time>
      </trkpt>
      <trkpt lat="43.45802" lon="6.07664">
        <ele>251.8</ele>
        <time>2012-11-18T12:16:26Z</time>
      </trkpt>
      <trkpt lat="43.45802" lon="6.07662">
        <ele>251.4</ele>
        <time>2012-11-18T12:16:27Z</time>
      </trkpt>
      <trkpt lat="43.45818" lon="6.07654">
        <ele>253</ele>
        <time>2012-11-18T12:16:49Z</time>
      </trkpt>
      <trkpt lat="43.45821" lon="6.07644">
        <ele>253</ele>
        <time>2012-11-18T12:16:57Z</time>
      </trkpt>
      <trkpt lat="43.45822" lon="6.07634">
        <ele>252.4</ele>
        <time>2012-11-18T12:17:06Z</time>
      </trkpt>
      <trkpt lat="43.45824" lon="6.07622">
        <ele>251.8</ele>
        <time>2012-11-18T12:17:13Z</time>
      </trkpt>
      <trkpt lat="43.45825" lon="6.07611">
        <ele>252</ele>
        <time>2012-11-18T12:17:22Z</time>
      </trkpt>
      <trkpt lat="43.45826" lon="6.07599">
        <ele>252.7</ele>
        <time>2012-11-18T12:17:30Z</time>
      </trkpt>
      <trkpt lat="43.45827" lon="6.07596">
        <ele>252.9</ele>
        <time>2012-11-18T12:17:31Z</time>
      </trkpt>
      <trkpt lat="43.45829" lon="6.07576">
        <ele>252.1</ele>
        <time>2012-11-18T12:17:45Z</time>
      </trkpt>
      <trkpt lat="43.45832" lon="6.07566">
        <ele>250.5</ele>
        <time>2012-11-18T12:17:52Z</time>
      </trkpt>
      <trkpt lat="43.45835" lon="6.07555">
        <ele>251.2</ele>
        <time>2012-11-18T12:17:59Z</time>
      </trkpt>
      <trkpt lat="43.45837" lon="6.07543">
        <ele>252.2</ele>
        <time>2012-11-18T12:18:07Z</time>
      </trkpt>
      <trkpt lat="43.45838" lon="6.07531">
        <ele>252.1</ele>
        <time>2012-11-18T12:18:16Z</time>
      </trkpt>
      <trkpt lat="43.45844" lon="6.07522">
        <ele>251.7</ele>
        <time>2012-11-18T12:18:24Z</time>
      </trkpt>
      <trkpt lat="43.45848" lon="6.07512">
        <ele>252.9</ele>
        <time>2012-11-18T12:18:32Z</time>
      </trkpt>
      <trkpt lat="43.45848" lon="6.0751">
        <ele>253.2</ele>
        <time>2012-11-18T12:18:33Z</time>
      </trkpt>
      <trkpt lat="43.45851" lon="6.07489">
        <ele>252.8</ele>
        <time>2012-11-18T12:18:48Z</time>
      </trkpt>
      <trkpt lat="43.45855" lon="6.07477">
        <ele>252.9</ele>
        <time>2012-11-18T12:18:56Z</time>
      </trkpt>
      <trkpt lat="43.45858" lon="6.07466">
        <ele>253.6</ele>
        <time>2012-11-18T12:19:04Z</time>
      </trkpt>
      <trkpt lat="43.45862" lon="6.07455">
        <ele>254</ele>
        <time>2012-11-18T12:19:13Z</time>
      </trkpt>
      <trkpt lat="43.45863" lon="6.07443">
        <ele>254</ele>
        <time>2012-11-18T12:19:25Z</time>
      </trkpt>
      <trkpt lat="43.45865" lon="6.07431">
        <ele>253.8</ele>
        <time>2012-11-18T12:19:33Z</time>
      </trkpt>
      <trkpt lat="43.45865" lon="6.0743">
        <ele>254.1</ele>
        <time>2012-11-18T12:19:34Z</time>
      </trkpt>
      <trkpt lat="43.45869" lon="6.07409">
        <ele>254.5</ele>
        <time>2012-11-18T12:19:48Z</time>
      </trkpt>
      <trkpt lat="43.4587" lon="6.07399">
        <ele>254.7</ele>
        <time>2012-11-18T12:19:55Z</time>
      </trkpt>
      <trkpt lat="43.45875" lon="6.07389">
        <ele>254.8</ele>
        <time>2012-11-18T12:20:03Z</time>
      </trkpt>
      <trkpt lat="43.45878" lon="6.07379">
        <ele>255.7</ele>
        <time>2012-11-18T12:20:10Z</time>
      </trkpt>
      <trkpt lat="43.4588" lon="6.07367">
        <ele>256.7</ele>
        <time>2012-11-18T12:20:23Z</time>
      </trkpt>
      <trkpt lat="43.45884" lon="6.07356">
        <ele>257.8</ele>
        <time>2012-11-18T12:20:31Z</time>
      </trkpt>
      <trkpt lat="43.45882" lon="6.07344">
        <ele>258.1</ele>
        <time>2012-11-18T12:20:44Z</time>
      </trkpt>
      <trkpt lat="43.45882" lon="6.07344">
        <ele>258.8</ele>
        <time>2012-11-18T12:20:45Z</time>
      </trkpt>
      <trkpt lat="43.45888" lon="6.07324">
        <ele>258.6</ele>
        <time>2012-11-18T12:21:03Z</time>
      </trkpt>
      <trkpt lat="43.45891" lon="6.07313">
        <ele>258.1</ele>
        <time>2012-11-18T12:21:11Z</time>
      </trkpt>
      <trkpt lat="43.45894" lon="6.07302">
        <ele>257.2</ele>
        <time>2012-11-18T12:21:19Z</time>
      </trkpt>
      <trkpt lat="43.45896" lon="6.07291">
        <ele>257.7</ele>
        <time>2012-11-18T12:21:28Z</time>
      </trkpt>
      <trkpt lat="43.459" lon="6.0728">
        <ele>257.3</ele>
        <time>2012-11-18T12:21:35Z</time>
      </trkpt>
      <trkpt lat="43.45903" lon="6.0727">
        <ele>257.5</ele>
        <time>2012-11-18T12:21:42Z</time>
      </trkpt>
      <trkpt lat="43.45905" lon="6.07258">
        <ele>259.3</ele>
        <time>2012-11-18T12:21:50Z</time>
      </trkpt>
      <trkpt lat="43.45905" lon="6.07256">
        <ele>259.4</ele>
        <time>2012-11-18T12:21:51Z</time>
      </trkpt>
      <trkpt lat="43.45907" lon="6.07235">
        <ele>258.8</ele>
        <time>2012-11-18T12:22:03Z</time>
      </trkpt>
      <trkpt lat="43.45909" lon="6.07223">
        <ele>259.2</ele>
        <time>2012-11-18T12:22:11Z</time>
      </trkpt>
      <trkpt lat="43.45909" lon="6.07211">
        <ele>258.5</ele>
        <time>2012-11-18T12:22:20Z</time>
      </trkpt>
      <trkpt lat="43.45913" lon="6.07202">
        <ele>259.7</ele>
        <time>2012-11-18T12:22:28Z</time>
      </trkpt>
      <trkpt lat="43.45916" lon="6.07191">
        <ele>259.8</ele>
        <time>2012-11-18T12:22:36Z</time>
      </trkpt>
      <trkpt lat="43.45917" lon="6.07181">
        <ele>258.1</ele>
        <time>2012-11-18T12:22:43Z</time>
      </trkpt>
      <trkpt lat="43.45919" lon="6.07171">
        <ele>258.5</ele>
        <time>2012-11-18T12:22:51Z</time>
      </trkpt>
      <trkpt lat="43.4592" lon="6.07168">
        <ele>258.9</ele>
        <time>2012-11-18T12:22:52Z</time>
      </trkpt>
      <trkpt lat="43.45922" lon="6.0715">
        <ele>259.5</ele>
        <time>2012-11-18T12:23:03Z</time>
      </trkpt>
      <trkpt lat="43.45924" lon="6.07139">
        <ele>258.3</ele>
        <time>2012-11-18T12:23:09Z</time>
      </trkpt>
      <trkpt lat="43.45925" lon="6.07127">
        <ele>258.5</ele>
        <time>2012-11-18T12:23:17Z</time>
      </trkpt>
      <trkpt lat="43.45925" lon="6.07117">
        <ele>258.1</ele>
        <time>2012-11-18T12:23:24Z</time>
      </trkpt>
      <trkpt lat="43.4593" lon="6.07107">
        <ele>260.8</ele>
        <time>2012-11-18T12:23:32Z</time>
      </trkpt>
      <trkpt lat="43.45933" lon="6.07096">
        <ele>261.3</ele>
        <time>2012-11-18T12:23:40Z</time>
      </trkpt>
      <trkpt lat="43.45935" lon="6.07084">
        <ele>260.7</ele>
        <time>2012-11-18T12:23:48Z</time>
      </trkpt>
      <trkpt lat="43.45938" lon="6.07074">
        <ele>260</ele>
        <time>2012-11-18T12:23:58Z</time>
      </trkpt>
      <trkpt lat="43.45939" lon="6.07073">
        <ele>259.8</ele>
        <time>2012-11-18T12:23:59Z</time>
      </trkpt>
      <trkpt lat="43.45947" lon="6.07055">
        <ele>261.1</ele>
        <time>2012-11-18T12:24:10Z</time>
      </trkpt>
      <trkpt lat="43.45952" lon="6.07045">
        <ele>262.8</ele>
        <time>2012-11-18T12:24:18Z</time>
      </trkpt>
      <trkpt lat="43.45956" lon="6.07034">
        <ele>263</ele>
        <time>2012-11-18T12:24:30Z</time>
      </trkpt>
      <trkpt lat="43.45959" lon="6.07024">
        <ele>263.6</ele>
        <time>2012-11-18T12:24:38Z</time>
      </trkpt>
      <trkpt lat="43.45962" lon="6.07014">
        <ele>264.2</ele>
        <time>2012-11-18T12:24:46Z</time>
      </trkpt>
      <trkpt lat="43.45965" lon="6.07003">
        <ele>264.2</ele>
        <time>2012-11-18T12:24:54Z</time>
      </trkpt>
      <trkpt lat="43.45967" lon="6.06991">
        <ele>264.1</ele>
        <time>2012-11-18T12:25:03Z</time>
      </trkpt>
      <trkpt lat="43.45967" lon="6.0699">
        <ele>264.1</ele>
        <time>2012-11-18T12:25:04Z</time>
      </trkpt>
      <trkpt lat="43.45972" lon="6.06969">
        <ele>264.7</ele>
        <time>2012-11-18T12:25:19Z</time>
      </trkpt>
      <trkpt lat="43.45973" lon="6.06959">
        <ele>265.8</ele>
        <time>2012-11-18T12:25:27Z</time>
      </trkpt>
      <trkpt lat="43.45977" lon="6.06948">
        <ele>265.7</ele>
        <time>2012-11-18T12:25:34Z</time>
      </trkpt>
      <trkpt lat="43.4598" lon="6.06938">
        <ele>266.4</ele>
        <time>2012-11-18T12:25:41Z</time>
      </trkpt>
      <trkpt lat="43.45986" lon="6.06929">
        <ele>266.2</ele>
        <time>2012-11-18T12:25:52Z</time>
      </trkpt>
      <trkpt lat="43.45991" lon="6.0692">
        <ele>268.8</ele>
        <time>2012-11-18T12:26:00Z</time>
      </trkpt>
      <trkpt lat="43.45997" lon="6.06911">
        <ele>268</ele>
        <time>2012-11-18T12:26:08Z</time>
      </trkpt>
      <trkpt lat="43.45998" lon="6.0691">
        <ele>268.3</ele>
        <time>2012-11-18T12:26:09Z</time>
      </trkpt>
      <trkpt lat="43.46009" lon="6.06896">
        <ele>270.3</ele>
        <time>2012-11-18T12:26:27Z</time>
      </trkpt>
      <trkpt lat="43.46017" lon="6.0689">
        <ele>272.5</ele>
        <time>2012-11-18T12:26:39Z</time>
      </trkpt>
      <trkpt lat="43.46023" lon="6.06882">
        <ele>273.4</ele>
        <time>2012-11-18T12:26:49Z</time>
      </trkpt>
      <trkpt lat="43.4603" lon="6.06873">
        <ele>274.9</ele>
        <time>2012-11-18T12:26:59Z</time>
      </trkpt>
      <trkpt lat="43.46036" lon="6.06864">
        <ele>276.3</ele>
        <time>2012-11-18T12:27:09Z</time>
      </trkpt>
      <trkpt lat="43.46037" lon="6.06864">
        <ele>276.1</ele>
        <time>2012-11-18T12:27:10Z</time>
      </trkpt>
      <trkpt lat="43.46045" lon="6.06845">
        <ele>276.9</ele>
        <time>2012-11-18T12:27:24Z</time>
      </trkpt>
      <trkpt lat="43.46049" lon="6.06835">
        <ele>276.9</ele>
        <time>2012-11-18T12:27:31Z</time>
      </trkpt>
      <trkpt lat="43.46053" lon="6.06824">
        <ele>277.2</ele>
        <time>2012-11-18T12:27:38Z</time>
      </trkpt>
      <trkpt lat="43.46057" lon="6.06814">
        <ele>277.1</ele>
        <time>2012-11-18T12:27:46Z</time>
      </trkpt>
      <trkpt lat="43.46059" lon="6.06803">
        <ele>277.3</ele>
        <time>2012-11-18T12:27:54Z</time>
      </trkpt>
      <trkpt lat="43.46063" lon="6.06792">
        <ele>276.6</ele>
        <time>2012-11-18T12:28:03Z</time>
      </trkpt>
      <trkpt lat="43.46067" lon="6.06782">
        <ele>277.3</ele>
        <time>2012-11-18T12:28:11Z</time>
      </trkpt>
      <trkpt lat="43.46068" lon="6.06781">
        <ele>277.2</ele>
        <time>2012-11-18T12:28:12Z</time>
      </trkpt>
      <trkpt lat="43.46073" lon="6.06762">
        <ele>278.5</ele>
        <time>2012-11-18T12:28:26Z</time>
      </trkpt>
      <trkpt lat="43.46077" lon="6.06751">
        <ele>278</ele>
        <time>2012-11-18T12:28:33Z</time>
      </trkpt>
      <trkpt lat="43.46082" lon="6.06741">
        <ele>279.2</ele>
        <time>2012-11-18T12:28:43Z</time>
      </trkpt>
      <trkpt lat="43.46085" lon="6.0673">
        <ele>280.1</ele>
        <time>2012-11-18T12:28:53Z</time>
      </trkpt>
      <trkpt lat="43.4609" lon="6.06719">
        <ele>280.4</ele>
        <time>2012-11-18T12:29:03Z</time>
      </trkpt>
      <trkpt lat="43.46094" lon="6.06709">
        <ele>280.3</ele>
        <time>2012-11-18T12:29:12Z</time>
      </trkpt>
      <trkpt lat="43.46094" lon="6.06708">
        <ele>280.4</ele>
        <time>2012-11-18T12:29:13Z</time>
      </trkpt>
      <trkpt lat="43.46099" lon="6.06688">
        <ele>280.6</ele>
        <time>2012-11-18T12:29:28Z</time>
      </trkpt>
      <trkpt lat="43.46102" lon="6.06677">
        <ele>281.4</ele>
        <time>2012-11-18T12:29:35Z</time>
      </trkpt>
      <trkpt lat="43.46105" lon="6.06666">
        <ele>282</ele>
        <time>2012-11-18T12:29:42Z</time>
      </trkpt>
      <trkpt lat="43.46108" lon="6.06655">
        <ele>280.9</ele>
        <time>2012-11-18T12:29:50Z</time>
      </trkpt>
      <trkpt lat="43.46111" lon="6.06644">
        <ele>280.9</ele>
        <time>2012-11-18T12:29:58Z</time>
      </trkpt>
      <trkpt lat="43.46111" lon="6.06633">
        <ele>280.9</ele>
        <time>2012-11-18T12:30:05Z</time>
      </trkpt>
      <trkpt lat="43.46114" lon="6.06622">
        <ele>280.5</ele>
        <time>2012-11-18T12:30:12Z</time>
      </trkpt>
      <trkpt lat="43.46118" lon="6.06611">
        <ele>279.9</ele>
        <time>2012-11-18T12:30:19Z</time>
      </trkpt>
      <trkpt lat="43.46117" lon="6.0661">
        <ele>279.6</ele>
        <time>2012-11-18T12:30:20Z</time>
      </trkpt>
      <trkpt lat="43.46117" lon="6.06588">
        <ele>279.4</ele>
        <time>2012-11-18T12:30:34Z</time>
      </trkpt>
      <trkpt lat="43.46118" lon="6.06577">
        <ele>279.8</ele>
        <time>2012-11-18T12:30:42Z</time>
      </trkpt>
      <trkpt lat="43.46119" lon="6.06566">
        <ele>281</ele>
        <time>2012-11-18T12:30:50Z</time>
      </trkpt>
      <trkpt lat="43.46123" lon="6.06556">
        <ele>280.9</ele>
        <time>2012-11-18T12:30:59Z</time>
      </trkpt>
      <trkpt lat="43.4613" lon="6.06548">
        <ele>281.2</ele>
        <time>2012-11-18T12:31:08Z</time>
      </trkpt>
      <trkpt lat="43.46136" lon="6.06541">
        <ele>281.4</ele>
        <time>2012-11-18T12:31:15Z</time>
      </trkpt>
      <trkpt lat="43.46143" lon="6.06533">
        <ele>283</ele>
        <time>2012-11-18T12:31:25Z</time>
      </trkpt>
      <trkpt lat="43.46144" lon="6.06532">
        <ele>283</ele>
        <time>2012-11-18T12:31:26Z</time>
      </trkpt>
      <trkpt lat="43.46156" lon="6.06519">
        <ele>285.7</ele>
        <time>2012-11-18T12:31:41Z</time>
      </trkpt>
      <trkpt lat="43.46161" lon="6.0651">
        <ele>285.1</ele>
        <time>2012-11-18T12:31:49Z</time>
      </trkpt>
      <trkpt lat="43.46165" lon="6.065">
        <ele>285.9</ele>
        <time>2012-11-18T12:31:58Z</time>
      </trkpt>
      <trkpt lat="43.46167" lon="6.06489">
        <ele>286.8</ele>
        <time>2012-11-18T12:32:07Z</time>
      </trkpt>
      <trkpt lat="43.4617" lon="6.06478">
        <ele>286.3</ele>
        <time>2012-11-18T12:32:15Z</time>
      </trkpt>
      <trkpt lat="43.46172" lon="6.06466">
        <ele>287.6</ele>
        <time>2012-11-18T12:32:23Z</time>
      </trkpt>
      <trkpt lat="43.46173" lon="6.06454">
        <ele>287.9</ele>
        <time>2012-11-18T12:32:31Z</time>
      </trkpt>
      <trkpt lat="43.46173" lon="6.06453">
        <ele>287.7</ele>
        <time>2012-11-18T12:32:32Z</time>
      </trkpt>
      <trkpt lat="43.46166" lon="6.06433">
        <ele>287.5</ele>
        <time>2012-11-18T12:32:45Z</time>
      </trkpt>
      <trkpt lat="43.46164" lon="6.06421">
        <ele>287.6</ele>
        <time>2012-11-18T12:32:54Z</time>
      </trkpt>
      <trkpt lat="43.46164" lon="6.0641">
        <ele>288.6</ele>
        <time>2012-11-18T12:33:03Z</time>
      </trkpt>
      <trkpt lat="43.46163" lon="6.06399">
        <ele>288.2</ele>
        <time>2012-11-18T12:33:11Z</time>
      </trkpt>
      <trkpt lat="43.46162" lon="6.06389">
        <ele>289.7</ele>
        <time>2012-11-18T12:33:17Z</time>
      </trkpt>
      <trkpt lat="43.46162" lon="6.06377">
        <ele>289.9</ele>
        <time>2012-11-18T12:33:24Z</time>
      </trkpt>
      <trkpt lat="43.46162" lon="6.06365">
        <ele>289.3</ele>
        <time>2012-11-18T12:33:30Z</time>
      </trkpt>
      <trkpt lat="43.4616" lon="6.06354">
        <ele>289.4</ele>
        <time>2012-11-18T12:33:38Z</time>
      </trkpt>
      <trkpt lat="43.46161" lon="6.06352">
        <ele>289.2</ele>
        <time>2012-11-18T12:33:39Z</time>
      </trkpt>
      <trkpt lat="43.46158" lon="6.06331">
        <ele>289.2</ele>
        <time>2012-11-18T12:33:53Z</time>
      </trkpt>
      <trkpt lat="43.46157" lon="6.0632">
        <ele>289.2</ele>
        <time>2012-11-18T12:34:00Z</time>
      </trkpt>
      <trkpt lat="43.46157" lon="6.06309">
        <ele>290.5</ele>
        <time>2012-11-18T12:34:08Z</time>
      </trkpt>
      <trkpt lat="43.46157" lon="6.06297">
        <ele>290.1</ele>
        <time>2012-11-18T12:34:15Z</time>
      </trkpt>
      <trkpt lat="43.46157" lon="6.06286">
        <ele>290.6</ele>
        <time>2012-11-18T12:34:21Z</time>
      </trkpt>
      <trkpt lat="43.46157" lon="6.06275">
        <ele>289.9</ele>
        <time>2012-11-18T12:34:28Z</time>
      </trkpt>
      <trkpt lat="43.46158" lon="6.06264">
        <ele>290.3</ele>
        <time>2012-11-18T12:34:36Z</time>
      </trkpt>
      <trkpt lat="43.46159" lon="6.06252">
        <ele>291.9</ele>
        <time>2012-11-18T12:34:45Z</time>
      </trkpt>
      <trkpt lat="43.46159" lon="6.0625">
        <ele>292.3</ele>
        <time>2012-11-18T12:34:46Z</time>
      </trkpt>
      <trkpt lat="43.46163" lon="6.06229">
        <ele>292.2</ele>
        <time>2012-11-18T12:34:59Z</time>
      </trkpt>
      <trkpt lat="43.46165" lon="6.0622">
        <ele>292.5</ele>
        <time>2012-11-18T12:35:08Z</time>
      </trkpt>
      <trkpt lat="43.46166" lon="6.06208">
        <ele>291.9</ele>
        <time>2012-11-18T12:35:16Z</time>
      </trkpt>
      <trkpt lat="43.46169" lon="6.06197">
        <ele>292.5</ele>
        <time>2012-11-18T12:35:23Z</time>
      </trkpt>
      <trkpt lat="43.46172" lon="6.06186">
        <ele>292.7</ele>
        <time>2012-11-18T12:35:31Z</time>
      </trkpt>
      <trkpt lat="43.46173" lon="6.06175">
        <ele>292.9</ele>
        <time>2012-11-18T12:35:39Z</time>
      </trkpt>
      <trkpt lat="43.46179" lon="6.06166">
        <ele>295.4</ele>
        <time>2012-11-18T12:35:46Z</time>
      </trkpt>
      <trkpt lat="43.4618" lon="6.06166">
        <ele>295.4</ele>
        <time>2012-11-18T12:35:47Z</time>
      </trkpt>
      <trkpt lat="43.4619" lon="6.06149">
        <ele>295.1</ele>
        <time>2012-11-18T12:36:01Z</time>
      </trkpt>
      <trkpt lat="43.46194" lon="6.06138">
        <ele>293.8</ele>
        <time>2012-11-18T12:36:09Z</time>
      </trkpt>
      <trkpt lat="43.46197" lon="6.06128">
        <ele>292.9</ele>
        <time>2012-11-18T12:36:17Z</time>
      </trkpt>
      <trkpt lat="43.462" lon="6.06118">
        <ele>293.1</ele>
        <time>2012-11-18T12:36:27Z</time>
      </trkpt>
      <trkpt lat="43.46194" lon="6.06109">
        <ele>292.5</ele>
        <time>2012-11-18T12:37:24Z</time>
      </trkpt>
      <trkpt lat="43.46194" lon="6.06109">
        <ele>292.5</ele>
        <time>2012-11-18T12:37:25Z</time>
      </trkpt>
      <trkpt lat="43.4619" lon="6.06098">
        <ele>292.3</ele>
        <time>2012-11-18T12:39:39Z</time>
      </trkpt>
      <trkpt lat="43.46207" lon="6.06099">
        <ele>292.1</ele>
        <time>2012-11-18T12:40:36Z</time>
      </trkpt>
      <trkpt lat="43.46214" lon="6.06098">
        <ele>291.2</ele>
        <time>2012-11-18T12:40:43Z</time>
      </trkpt>
      <trkpt lat="43.46216" lon="6.06098">
        <ele>291.5</ele>
        <time>2012-11-18T12:40:44Z</time>
      </trkpt>
      <trkpt lat="43.46229" lon="6.06088">
        <ele>293.4</ele>
        <time>2012-11-18T12:41:03Z</time>
      </trkpt>
      <trkpt lat="43.46238" lon="6.06085">
        <ele>293.9</ele>
        <time>2012-11-18T12:41:11Z</time>
      </trkpt>
      <trkpt lat="43.46245" lon="6.06078">
        <ele>294.8</ele>
        <time>2012-11-18T12:41:19Z</time>
      </trkpt>
      <trkpt lat="43.46252" lon="6.06074">
        <ele>295.3</ele>
        <time>2012-11-18T12:41:29Z</time>
      </trkpt>
      <trkpt lat="43.4626" lon="6.06069">
        <ele>294.9</ele>
        <time>2012-11-18T12:41:39Z</time>
      </trkpt>
      <trkpt lat="43.46269" lon="6.06066">
        <ele>295.7</ele>
        <time>2012-11-18T12:41:49Z</time>
      </trkpt>
      <trkpt lat="43.46269" lon="6.06065">
        <ele>295.7</ele>
        <time>2012-11-18T12:41:50Z</time>
      </trkpt>
      <trkpt lat="43.46278" lon="6.06047">
        <ele>294.6</ele>
        <time>2012-11-18T12:42:11Z</time>
      </trkpt>
      <trkpt lat="43.46281" lon="6.06035">
        <ele>294.6</ele>
        <time>2012-11-18T12:42:20Z</time>
      </trkpt>
      <trkpt lat="43.46282" lon="6.06024">
        <ele>295.6</ele>
        <time>2012-11-18T12:42:29Z</time>
      </trkpt>
      <trkpt lat="43.4628" lon="6.06013">
        <ele>295.4</ele>
        <time>2012-11-18T12:42:38Z</time>
      </trkpt>
      <trkpt lat="43.46275" lon="6.06003">
        <ele>296.7</ele>
        <time>2012-11-18T12:42:48Z</time>
      </trkpt>
      <trkpt lat="43.46273" lon="6.05992">
        <ele>296.7</ele>
        <time>2012-11-18T12:42:58Z</time>
      </trkpt>
      <trkpt lat="43.46272" lon="6.05991">
        <ele>297.1</ele>
        <time>2012-11-18T12:42:59Z</time>
      </trkpt>
      <trkpt lat="43.46272" lon="6.05969">
        <ele>298.4</ele>
        <time>2012-11-18T12:43:14Z</time>
      </trkpt>
      <trkpt lat="43.46274" lon="6.05957">
        <ele>298.2</ele>
        <time>2012-11-18T12:43:21Z</time>
      </trkpt>
      <trkpt lat="43.46272" lon="6.05946">
        <ele>298.2</ele>
        <time>2012-11-18T12:43:28Z</time>
      </trkpt>
      <trkpt lat="43.46271" lon="6.05934">
        <ele>297.9</ele>
        <time>2012-11-18T12:43:38Z</time>
      </trkpt>
      <trkpt lat="43.46271" lon="6.05922">
        <ele>299.8</ele>
        <time>2012-11-18T12:43:48Z</time>
      </trkpt>
      <trkpt lat="43.46271" lon="6.0591">
        <ele>299.5</ele>
        <time>2012-11-18T12:43:58Z</time>
      </trkpt>
      <trkpt lat="43.4627" lon="6.05898">
        <ele>299.7</ele>
        <time>2012-11-18T12:44:11Z</time>
      </trkpt>
      <trkpt lat="43.4627" lon="6.05897">
        <ele>299.3</ele>
        <time>2012-11-18T12:44:12Z</time>
      </trkpt>
      <trkpt lat="43.46262" lon="6.05877">
        <ele>298.9</ele>
        <time>2012-11-18T12:44:28Z</time>
      </trkpt>
      <trkpt lat="43.46256" lon="6.05869">
        <ele>300.6</ele>
        <time>2012-11-18T12:44:36Z</time>
      </trkpt>
      <trkpt lat="43.46252" lon="6.05859">
        <ele>301.3</ele>
        <time>2012-11-18T12:44:49Z</time>
      </trkpt>
      <trkpt lat="43.46247" lon="6.05849">
        <ele>302.5</ele>
        <time>2012-11-18T12:44:59Z</time>
      </trkpt>
      <trkpt lat="43.46239" lon="6.05847">
        <ele>302.7</ele>
        <time>2012-11-18T12:45:06Z</time>
      </trkpt>
      <trkpt lat="43.46231" lon="6.05846">
        <ele>302.4</ele>
        <time>2012-11-18T12:45:12Z</time>
      </trkpt>
      <trkpt lat="43.4623" lon="6.05845">
        <ele>302.4</ele>
        <time>2012-11-18T12:45:13Z</time>
      </trkpt>
      <trkpt lat="43.46215" lon="6.05843">
        <ele>301.3</ele>
        <time>2012-11-18T12:45:27Z</time>
      </trkpt>
      <trkpt lat="43.46206" lon="6.05841">
        <ele>302.2</ele>
        <time>2012-11-18T12:45:35Z</time>
      </trkpt>
      <trkpt lat="43.46197" lon="6.05838">
        <ele>302.5</ele>
        <time>2012-11-18T12:45:41Z</time>
      </trkpt>
      <trkpt lat="43.4619" lon="6.05836">
        <ele>303.6</ele>
        <time>2012-11-18T12:45:48Z</time>
      </trkpt>
      <trkpt lat="43.46182" lon="6.05833">
        <ele>304.4</ele>
        <time>2012-11-18T12:45:55Z</time>
      </trkpt>
      <trkpt lat="43.46174" lon="6.05832">
        <ele>303.9</ele>
        <time>2012-11-18T12:46:03Z</time>
      </trkpt>
      <trkpt lat="43.46165" lon="6.0583">
        <ele>303.7</ele>
        <time>2012-11-18T12:46:10Z</time>
      </trkpt>
      <trkpt lat="43.46157" lon="6.05827">
        <ele>304.2</ele>
        <time>2012-11-18T12:46:17Z</time>
      </trkpt>
      <trkpt lat="43.46156" lon="6.05827">
        <ele>304.1</ele>
        <time>2012-11-18T12:46:18Z</time>
      </trkpt>
      <trkpt lat="43.46141" lon="6.05824">
        <ele>304.4</ele>
        <time>2012-11-18T12:46:33Z</time>
      </trkpt>
      <trkpt lat="43.46133" lon="6.05823">
        <ele>305.9</ele>
        <time>2012-11-18T12:46:40Z</time>
      </trkpt>
      <trkpt lat="43.46125" lon="6.05822">
        <ele>304.9</ele>
        <time>2012-11-18T12:46:47Z</time>
      </trkpt>
      <trkpt lat="43.46117" lon="6.05823">
        <ele>306.2</ele>
        <time>2012-11-18T12:46:55Z</time>
      </trkpt>
      <trkpt lat="43.46108" lon="6.05827">
        <ele>307.2</ele>
        <time>2012-11-18T12:47:04Z</time>
      </trkpt>
      <trkpt lat="43.461" lon="6.05827">
        <ele>308.1</ele>
        <time>2012-11-18T12:47:11Z</time>
      </trkpt>
      <trkpt lat="43.46092" lon="6.05829">
        <ele>306.8</ele>
        <time>2012-11-18T12:47:18Z</time>
      </trkpt>
      <trkpt lat="43.46091" lon="6.05829">
        <ele>306.5</ele>
        <time>2012-11-18T12:47:19Z</time>
      </trkpt>
      <trkpt lat="43.46075" lon="6.05833">
        <ele>307.7</ele>
        <time>2012-11-18T12:47:35Z</time>
      </trkpt>
      <trkpt lat="43.46067" lon="6.05836">
        <ele>306.9</ele>
        <time>2012-11-18T12:47:43Z</time>
      </trkpt>
      <trkpt lat="43.46058" lon="6.05838">
        <ele>307</ele>
        <time>2012-11-18T12:47:51Z</time>
      </trkpt>
      <trkpt lat="43.4605" lon="6.05841">
        <ele>306.1</ele>
        <time>2012-11-18T12:47:58Z</time>
      </trkpt>
      <trkpt lat="43.46042" lon="6.05842">
        <ele>306.6</ele>
        <time>2012-11-18T12:48:05Z</time>
      </trkpt>
      <trkpt lat="43.46034" lon="6.05844">
        <ele>307.6</ele>
        <time>2012-11-18T12:48:11Z</time>
      </trkpt>
      <trkpt lat="43.46025" lon="6.05846">
        <ele>306.5</ele>
        <time>2012-11-18T12:48:18Z</time>
      </trkpt>
      <trkpt lat="43.46017" lon="6.05849">
        <ele>306.8</ele>
        <time>2012-11-18T12:48:26Z</time>
      </trkpt>
      <trkpt lat="43.46016" lon="6.0585">
        <ele>306.4</ele>
        <time>2012-11-18T12:48:27Z</time>
      </trkpt>
      <trkpt lat="43.46001" lon="6.05857">
        <ele>305.7</ele>
        <time>2012-11-18T12:48:43Z</time>
      </trkpt>
      <trkpt lat="43.45992" lon="6.05858">
        <ele>307.2</ele>
        <time>2012-11-18T12:48:51Z</time>
      </trkpt>
      <trkpt lat="43.45984" lon="6.05864">
        <ele>306.3</ele>
        <time>2012-11-18T12:48:57Z</time>
      </trkpt>
      <trkpt lat="43.45976" lon="6.05869">
        <ele>306</ele>
        <time>2012-11-18T12:49:04Z</time>
      </trkpt>
      <trkpt lat="43.45969" lon="6.05874">
        <ele>306.4</ele>
        <time>2012-11-18T12:49:13Z</time>
      </trkpt>
      <trkpt lat="43.45962" lon="6.05878">
        <ele>305.9</ele>
        <time>2012-11-18T12:49:19Z</time>
      </trkpt>
      <trkpt lat="43.45954" lon="6.05882">
        <ele>305.8</ele>
        <time>2012-11-18T12:49:26Z</time>
      </trkpt>
      <trkpt lat="43.45947" lon="6.05889">
        <ele>306.1</ele>
        <time>2012-11-18T12:49:34Z</time>
      </trkpt>
      <trkpt lat="43.45946" lon="6.0589">
        <ele>305.8</ele>
        <time>2012-11-18T12:49:35Z</time>
      </trkpt>
      <trkpt lat="43.4593" lon="6.05895">
        <ele>306.7</ele>
        <time>2012-11-18T12:49:53Z</time>
      </trkpt>
      <trkpt lat="43.45923" lon="6.05901">
        <ele>306.9</ele>
        <time>2012-11-18T12:50:10Z</time>
      </trkpt>
      <trkpt lat="43.45916" lon="6.05894">
        <ele>307.4</ele>
        <time>2012-11-18T12:51:11Z</time>
      </trkpt>
      <trkpt lat="43.45915" lon="6.05893">
        <ele>307.5</ele>
        <time>2012-11-18T12:51:12Z</time>
      </trkpt>
      <trkpt lat="43.45901" lon="6.05885">
        <ele>306.3</ele>
        <time>2012-11-18T12:51:26Z</time>
      </trkpt>
      <trkpt lat="43.45893" lon="6.05881">
        <ele>306.9</ele>
        <time>2012-11-18T12:51:33Z</time>
      </trkpt>
      <trkpt lat="43.45885" lon="6.05877">
        <ele>306.4</ele>
        <time>2012-11-18T12:51:42Z</time>
      </trkpt>
      <trkpt lat="43.45877" lon="6.05872">
        <ele>306.1</ele>
        <time>2012-11-18T12:51:50Z</time>
      </trkpt>
      <trkpt lat="43.4587" lon="6.05866">
        <ele>307.7</ele>
        <time>2012-11-18T12:51:58Z</time>
      </trkpt>
      <trkpt lat="43.45862" lon="6.05861">
        <ele>307.2</ele>
        <time>2012-11-18T12:52:07Z</time>
      </trkpt>
      <trkpt lat="43.45856" lon="6.05853">
        <ele>307.1</ele>
        <time>2012-11-18T12:52:14Z</time>
      </trkpt>
      <trkpt lat="43.45855" lon="6.05852">
        <ele>307.5</ele>
        <time>2012-11-18T12:52:15Z</time>
      </trkpt>
      <trkpt lat="43.45846" lon="6.05835">
        <ele>307.7</ele>
        <time>2012-11-18T12:52:31Z</time>
      </trkpt>
      <trkpt lat="43.45841" lon="6.05826">
        <ele>308</ele>
        <time>2012-11-18T12:52:40Z</time>
      </trkpt>
      <trkpt lat="43.45834" lon="6.0582">
        <ele>308.6</ele>
        <time>2012-11-18T12:52:48Z</time>
      </trkpt>
      <trkpt lat="43.4583" lon="6.05809">
        <ele>308.8</ele>
        <time>2012-11-18T12:52:54Z</time>
      </trkpt>
      <trkpt lat="43.45825" lon="6.05802">
        <ele>309.9</ele>
        <time>2012-11-18T12:53:03Z</time>
      </trkpt>
      <trkpt lat="43.4582" lon="6.05792">
        <ele>309.3</ele>
        <time>2012-11-18T12:53:10Z</time>
      </trkpt>
      <trkpt lat="43.45817" lon="6.0578">
        <ele>309.4</ele>
        <time>2012-11-18T12:53:19Z</time>
      </trkpt>
      <trkpt lat="43.45817" lon="6.05779">
        <ele>309.3</ele>
        <time>2012-11-18T12:53:20Z</time>
      </trkpt>
      <trkpt lat="43.45806" lon="6.05764">
        <ele>309.5</ele>
        <time>2012-11-18T12:53:34Z</time>
      </trkpt>
      <trkpt lat="43.45799" lon="6.05758">
        <ele>310.5</ele>
        <time>2012-11-18T12:53:42Z</time>
      </trkpt>
      <trkpt lat="43.45791" lon="6.05753">
        <ele>311.1</ele>
        <time>2012-11-18T12:53:50Z</time>
      </trkpt>
      <trkpt lat="43.45785" lon="6.05745">
        <ele>311.6</ele>
        <time>2012-11-18T12:53:59Z</time>
      </trkpt>
      <trkpt lat="43.45779" lon="6.05738">
        <ele>313.4</ele>
        <time>2012-11-18T12:54:07Z</time>
      </trkpt>
      <trkpt lat="43.45773" lon="6.0573">
        <ele>313.3</ele>
        <time>2012-11-18T12:54:15Z</time>
      </trkpt>
      <trkpt lat="43.45767" lon="6.05722">
        <ele>314.7</ele>
        <time>2012-11-18T12:54:25Z</time>
      </trkpt>
      <trkpt lat="43.45767" lon="6.0572">
        <ele>314.6</ele>
        <time>2012-11-18T12:54:26Z</time>
      </trkpt>
      <trkpt lat="43.45757" lon="6.05703">
        <ele>315.5</ele>
        <time>2012-11-18T12:54:44Z</time>
      </trkpt>
      <trkpt lat="43.45751" lon="6.05694">
        <ele>315.9</ele>
        <time>2012-11-18T12:54:54Z</time>
      </trkpt>
      <trkpt lat="43.45747" lon="6.05684">
        <ele>316.6</ele>
        <time>2012-11-18T12:55:02Z</time>
      </trkpt>
      <trkpt lat="43.45741" lon="6.05676">
        <ele>317.6</ele>
        <time>2012-11-18T12:55:10Z</time>
      </trkpt>
      <trkpt lat="43.45733" lon="6.0567">
        <ele>319.8</ele>
        <time>2012-11-18T12:55:21Z</time>
      </trkpt>
      <trkpt lat="43.45726" lon="6.05666">
        <ele>320.7</ele>
        <time>2012-11-18T12:55:31Z</time>
      </trkpt>
      <trkpt lat="43.45725" lon="6.05666">
        <ele>320.8</ele>
        <time>2012-11-18T12:55:32Z</time>
      </trkpt>
      <trkpt lat="43.45708" lon="6.05663">
        <ele>321.3</ele>
        <time>2012-11-18T12:55:53Z</time>
      </trkpt>
      <trkpt lat="43.457" lon="6.0566">
        <ele>321.6</ele>
        <time>2012-11-18T12:56:02Z</time>
      </trkpt>
      <trkpt lat="43.45692" lon="6.05654">
        <ele>322.2</ele>
        <time>2012-11-18T12:56:09Z</time>
      </trkpt>
      <trkpt lat="43.45685" lon="6.05647">
        <ele>323.8</ele>
        <time>2012-11-18T12:56:24Z</time>
      </trkpt>
      <trkpt lat="43.45677" lon="6.05642">
        <ele>325.9</ele>
        <time>2012-11-18T12:56:34Z</time>
      </trkpt>
      <trkpt lat="43.45676" lon="6.05642">
        <ele>326.1</ele>
        <time>2012-11-18T12:56:35Z</time>
      </trkpt>
      <trkpt lat="43.45664" lon="6.05627">
        <ele>328.4</ele>
        <time>2012-11-18T12:57:02Z</time>
      </trkpt>
      <trkpt lat="43.45661" lon="6.05615">
        <ele>330.3</ele>
        <time>2012-11-18T12:57:14Z</time>
      </trkpt>
      <trkpt lat="43.45656" lon="6.05606">
        <ele>330.6</ele>
        <time>2012-11-18T12:57:50Z</time>
      </trkpt>
      <trkpt lat="43.45655" lon="6.05605">
        <ele>330.6</ele>
        <time>2012-11-18T12:57:51Z</time>
      </trkpt>
      <trkpt lat="43.45649" lon="6.05596">
        <ele>330.7</ele>
        <time>2012-11-18T12:58:55Z</time>
      </trkpt>
      <trkpt lat="43.45639" lon="6.05581">
        <ele>331.5</ele>
        <time>2012-11-18T12:59:09Z</time>
      </trkpt>
      <trkpt lat="43.45635" lon="6.0557">
        <ele>331.9</ele>
        <time>2012-11-18T12:59:18Z</time>
      </trkpt>
      <trkpt lat="43.45632" lon="6.05559">
        <ele>332.1</ele>
        <time>2012-11-18T12:59:29Z</time>
      </trkpt>
      <trkpt lat="43.45632" lon="6.05546">
        <ele>332.6</ele>
        <time>2012-11-18T12:59:40Z</time>
      </trkpt>
      <trkpt lat="43.4563" lon="6.05535">
        <ele>333.3</ele>
        <time>2012-11-18T12:59:49Z</time>
      </trkpt>
      <trkpt lat="43.45626" lon="6.05525">
        <ele>334.2</ele>
        <time>2012-11-18T12:59:58Z</time>
      </trkpt>
      <trkpt lat="43.45625" lon="6.05524">
        <ele>334.4</ele>
        <time>2012-11-18T12:59:59Z</time>
      </trkpt>
      <trkpt lat="43.45619" lon="6.05504">
        <ele>336.8</ele>
        <time>2012-11-18T13:00:21Z</time>
      </trkpt>
      <trkpt lat="43.45613" lon="6.05494">
        <ele>338.5</ele>
        <time>2012-11-18T13:00:31Z</time>
      </trkpt>
      <trkpt lat="43.45605" lon="6.05489">
        <ele>340.6</ele>
        <time>2012-11-18T13:00:43Z</time>
      </trkpt>
      <trkpt lat="43.45599" lon="6.05481">
        <ele>342.5</ele>
        <time>2012-11-18T13:00:54Z</time>
      </trkpt>
      <trkpt lat="43.45592" lon="6.05474">
        <ele>344.4</ele>
        <time>2012-11-18T13:01:05Z</time>
      </trkpt>
      <trkpt lat="43.4559" lon="6.05473">
        <ele>344.4</ele>
        <time>2012-11-18T13:01:06Z</time>
      </trkpt>
      <trkpt lat="43.45577" lon="6.05462">
        <ele>345</ele>
        <time>2012-11-18T13:01:24Z</time>
      </trkpt>
      <trkpt lat="43.45569" lon="6.05458">
        <ele>345.2</ele>
        <time>2012-11-18T13:01:33Z</time>
      </trkpt>
      <trkpt lat="43.45561" lon="6.05453">
        <ele>344.9</ele>
        <time>2012-11-18T13:01:40Z</time>
      </trkpt>
      <trkpt lat="43.45553" lon="6.05446">
        <ele>345</ele>
        <time>2012-11-18T13:01:50Z</time>
      </trkpt>
      <trkpt lat="43.45545" lon="6.0544">
        <ele>346.2</ele>
        <time>2012-11-18T13:01:58Z</time>
      </trkpt>
      <trkpt lat="43.45539" lon="6.05434">
        <ele>345.4</ele>
        <time>2012-11-18T13:02:05Z</time>
      </trkpt>
      <trkpt lat="43.45531" lon="6.0543">
        <ele>344.9</ele>
        <time>2012-11-18T13:02:13Z</time>
      </trkpt>
      <trkpt lat="43.45529" lon="6.0543">
        <ele>344.7</ele>
        <time>2012-11-18T13:02:14Z</time>
      </trkpt>
      <trkpt lat="43.45516" lon="6.05421">
        <ele>343.9</ele>
        <time>2012-11-18T13:02:28Z</time>
      </trkpt>
      <trkpt lat="43.45508" lon="6.05416">
        <ele>344.1</ele>
        <time>2012-11-18T13:02:35Z</time>
      </trkpt>
      <trkpt lat="43.45501" lon="6.05408">
        <ele>344</ele>
        <time>2012-11-18T13:02:43Z</time>
      </trkpt>
      <trkpt lat="43.45494" lon="6.054">
        <ele>344.6</ele>
        <time>2012-11-18T13:02:51Z</time>
      </trkpt>
      <trkpt lat="43.45488" lon="6.05392">
        <ele>344.3</ele>
        <time>2012-11-18T13:02:59Z</time>
      </trkpt>
      <trkpt lat="43.45486" lon="6.05381">
        <ele>344.8</ele>
        <time>2012-11-18T13:03:06Z</time>
      </trkpt>
      <trkpt lat="43.45484" lon="6.0537">
        <ele>345.2</ele>
        <time>2012-11-18T13:03:16Z</time>
      </trkpt>
      <trkpt lat="43.45484" lon="6.05368">
        <ele>346</ele>
        <time>2012-11-18T13:03:17Z</time>
      </trkpt>
      <trkpt lat="43.45478" lon="6.0536">
        <ele>345.9</ele>
        <time>2012-11-18T13:05:07Z</time>
      </trkpt>
      <trkpt lat="43.45469" lon="6.0536">
        <ele>345</ele>
        <time>2012-11-18T13:06:43Z</time>
      </trkpt>
      <trkpt lat="43.45453" lon="6.05362">
        <ele>343.2</ele>
        <time>2012-11-18T13:07:00Z</time>
      </trkpt>
      <trkpt lat="43.45451" lon="6.05374">
        <ele>344</ele>
        <time>2012-11-18T13:07:08Z</time>
      </trkpt>
      <trkpt lat="43.4545" lon="6.05386">
        <ele>345.4</ele>
        <time>2012-11-18T13:07:17Z</time>
      </trkpt>
      <trkpt lat="43.45447" lon="6.05397">
        <ele>346.7</ele>
        <time>2012-11-18T13:07:25Z</time>
      </trkpt>
      <trkpt lat="43.45445" lon="6.05408">
        <ele>347.1</ele>
        <time>2012-11-18T13:07:31Z</time>
      </trkpt>
      <trkpt lat="43.45445" lon="6.05419">
        <ele>347.4</ele>
        <time>2012-11-18T13:07:40Z</time>
      </trkpt>
      <trkpt lat="43.45443" lon="6.05431">
        <ele>348.4</ele>
        <time>2012-11-18T13:07:49Z</time>
      </trkpt>
      <trkpt lat="43.45442" lon="6.05431">
        <ele>348.8</ele>
        <time>2012-11-18T13:07:50Z</time>
      </trkpt>
      <trkpt lat="43.4543" lon="6.05445">
        <ele>350.3</ele>
        <time>2012-11-18T13:08:10Z</time>
      </trkpt>
      <trkpt lat="43.45425" lon="6.05455">
        <ele>351.3</ele>
        <time>2012-11-18T13:08:20Z</time>
      </trkpt>
      <trkpt lat="43.45423" lon="6.05467">
        <ele>352</ele>
        <time>2012-11-18T13:08:29Z</time>
      </trkpt>
      <trkpt lat="43.45418" lon="6.05476">
        <ele>352.4</ele>
        <time>2012-11-18T13:08:36Z</time>
      </trkpt>
      <trkpt lat="43.45415" lon="6.05486">
        <ele>352.9</ele>
        <time>2012-11-18T13:08:43Z</time>
      </trkpt>
      <trkpt lat="43.45412" lon="6.05497">
        <ele>352.9</ele>
        <time>2012-11-18T13:08:51Z</time>
      </trkpt>
      <trkpt lat="43.45412" lon="6.05498">
        <ele>352.7</ele>
        <time>2012-11-18T13:08:52Z</time>
      </trkpt>
      <trkpt lat="43.45407" lon="6.05518">
        <ele>353.8</ele>
        <time>2012-11-18T13:09:05Z</time>
      </trkpt>
      <trkpt lat="43.45404" lon="6.05529">
        <ele>354.9</ele>
        <time>2012-11-18T13:09:16Z</time>
      </trkpt>
      <trkpt lat="43.454" lon="6.0554">
        <ele>355.8</ele>
        <time>2012-11-18T13:09:25Z</time>
      </trkpt>
      <trkpt lat="43.45395" lon="6.0555">
        <ele>357.3</ele>
        <time>2012-11-18T13:09:35Z</time>
      </trkpt>
      <trkpt lat="43.45392" lon="6.0556">
        <ele>358.1</ele>
        <time>2012-11-18T13:09:43Z</time>
      </trkpt>
      <trkpt lat="43.4539" lon="6.05571">
        <ele>359.2</ele>
        <time>2012-11-18T13:09:53Z</time>
      </trkpt>
      <trkpt lat="43.4539" lon="6.05572">
        <ele>359.3</ele>
        <time>2012-11-18T13:09:54Z</time>
      </trkpt>
      <trkpt lat="43.45381" lon="6.05591">
        <ele>361.8</ele>
        <time>2012-11-18T13:10:13Z</time>
      </trkpt>
      <trkpt lat="43.45377" lon="6.05602">
        <ele>362</ele>
        <time>2012-11-18T13:10:21Z</time>
      </trkpt>
      <trkpt lat="43.45375" lon="6.05613">
        <ele>363</ele>
        <time>2012-11-18T13:10:29Z</time>
      </trkpt>
      <trkpt lat="43.45373" lon="6.05624">
        <ele>363.5</ele>
        <time>2012-11-18T13:10:38Z</time>
      </trkpt>
      <trkpt lat="43.45371" lon="6.05636">
        <ele>363.5</ele>
        <time>2012-11-18T13:10:46Z</time>
      </trkpt>
      <trkpt lat="43.45369" lon="6.05647">
        <ele>363</ele>
        <time>2012-11-18T13:10:53Z</time>
      </trkpt>
      <trkpt lat="43.45367" lon="6.05658">
        <ele>363</ele>
        <time>2012-11-18T13:11:01Z</time>
      </trkpt>
      <trkpt lat="43.45366" lon="6.05659">
        <ele>363.4</ele>
        <time>2012-11-18T13:11:02Z</time>
      </trkpt>
      <trkpt lat="43.45358" lon="6.05679">
        <ele>363.2</ele>
        <time>2012-11-18T13:11:17Z</time>
      </trkpt>
      <trkpt lat="43.45354" lon="6.05689">
        <ele>363.5</ele>
        <time>2012-11-18T13:11:23Z</time>
      </trkpt>
      <trkpt lat="43.45349" lon="6.05698">
        <ele>363.2</ele>
        <time>2012-11-18T13:11:30Z</time>
      </trkpt>
      <trkpt lat="43.45345" lon="6.05708">
        <ele>363.1</ele>
        <time>2012-11-18T13:11:38Z</time>
      </trkpt>
      <trkpt lat="43.45341" lon="6.05718">
        <ele>363.4</ele>
        <time>2012-11-18T13:11:46Z</time>
      </trkpt>
      <trkpt lat="43.45338" lon="6.05729">
        <ele>363.3</ele>
        <time>2012-11-18T13:11:53Z</time>
      </trkpt>
      <trkpt lat="43.45334" lon="6.05738">
        <ele>363.5</ele>
        <time>2012-11-18T13:12:01Z</time>
      </trkpt>
      <trkpt lat="43.45331" lon="6.05749">
        <ele>363.8</ele>
        <time>2012-11-18T13:12:08Z</time>
      </trkpt>
      <trkpt lat="43.45331" lon="6.0575">
        <ele>363.7</ele>
        <time>2012-11-18T13:12:09Z</time>
      </trkpt>
      <trkpt lat="43.45321" lon="6.05768">
        <ele>363.8</ele>
        <time>2012-11-18T13:12:24Z</time>
      </trkpt>
      <trkpt lat="43.45318" lon="6.05779">
        <ele>364.8</ele>
        <time>2012-11-18T13:12:34Z</time>
      </trkpt>
      <trkpt lat="43.45314" lon="6.05788">
        <ele>365.3</ele>
        <time>2012-11-18T13:12:41Z</time>
      </trkpt>
      <trkpt lat="43.45312" lon="6.05799">
        <ele>365.8</ele>
        <time>2012-11-18T13:12:48Z</time>
      </trkpt>
      <trkpt lat="43.45311" lon="6.05811">
        <ele>366.6</ele>
        <time>2012-11-18T13:12:56Z</time>
      </trkpt>
      <trkpt lat="43.45311" lon="6.05823">
        <ele>367.5</ele>
        <time>2012-11-18T13:13:05Z</time>
      </trkpt>
      <trkpt lat="43.45308" lon="6.05834">
        <ele>367.1</ele>
        <time>2012-11-18T13:13:24Z</time>
      </trkpt>
      <trkpt lat="43.45308" lon="6.05835">
        <ele>366.9</ele>
        <time>2012-11-18T13:13:25Z</time>
      </trkpt>
      <trkpt lat="43.45299" lon="6.05853">
        <ele>366.4</ele>
        <time>2012-11-18T13:13:43Z</time>
      </trkpt>
      <trkpt lat="43.45293" lon="6.05861">
        <ele>366</ele>
        <time>2012-11-18T13:13:51Z</time>
      </trkpt>
      <trkpt lat="43.45287" lon="6.05869">
        <ele>364.9</ele>
        <time>2012-11-18T13:14:00Z</time>
      </trkpt>
      <trkpt lat="43.45281" lon="6.05877">
        <ele>365.1</ele>
        <time>2012-11-18T13:14:08Z</time>
      </trkpt>
      <trkpt lat="43.45275" lon="6.05885">
        <ele>364.7</ele>
        <time>2012-11-18T13:14:17Z</time>
      </trkpt>
      <trkpt lat="43.45271" lon="6.05896">
        <ele>363.8</ele>
        <time>2012-11-18T13:14:27Z</time>
      </trkpt>
      <trkpt lat="43.4527" lon="6.05897">
        <ele>363.7</ele>
        <time>2012-11-18T13:14:28Z</time>
      </trkpt>
      <trkpt lat="43.45261" lon="6.05914">
        <ele>362.3</ele>
        <time>2012-11-18T13:14:43Z</time>
      </trkpt>
      <trkpt lat="43.45257" lon="6.05924">
        <ele>361.5</ele>
        <time>2012-11-18T13:14:50Z</time>
      </trkpt>
      <trkpt lat="43.45253" lon="6.05934">
        <ele>361.1</ele>
        <time>2012-11-18T13:14:58Z</time>
      </trkpt>
      <trkpt lat="43.45248" lon="6.05944">
        <ele>360</ele>
        <time>2012-11-18T13:15:06Z</time>
      </trkpt>
      <trkpt lat="43.45243" lon="6.05953">
        <ele>360.2</ele>
        <time>2012-11-18T13:15:13Z</time>
      </trkpt>
      <trkpt lat="43.45239" lon="6.05961">
        <ele>359.7</ele>
        <time>2012-11-18T13:15:19Z</time>
      </trkpt>
      <trkpt lat="43.45235" lon="6.05971">
        <ele>359.7</ele>
        <time>2012-11-18T13:15:27Z</time>
      </trkpt>
      <trkpt lat="43.4523" lon="6.05981">
        <ele>359.3</ele>
        <time>2012-11-18T13:15:34Z</time>
      </trkpt>
      <trkpt lat="43.45229" lon="6.05983">
        <ele>359.1</ele>
        <time>2012-11-18T13:15:35Z</time>
      </trkpt>
      <trkpt lat="43.45221" lon="6.05999">
        <ele>359.1</ele>
        <time>2012-11-18T13:15:47Z</time>
      </trkpt>
      <trkpt lat="43.45215" lon="6.06008">
        <ele>358.5</ele>
        <time>2012-11-18T13:15:54Z</time>
      </trkpt>
      <trkpt lat="43.45215" lon="6.0602">
        <ele>357.8</ele>
        <time>2012-11-18T13:16:02Z</time>
      </trkpt>
      <trkpt lat="43.45214" lon="6.0603">
        <ele>357.6</ele>
        <time>2012-11-18T13:16:09Z</time>
      </trkpt>
      <trkpt lat="43.45214" lon="6.06043">
        <ele>357.5</ele>
        <time>2012-11-18T13:16:25Z</time>
      </trkpt>
      <trkpt lat="43.45211" lon="6.06054">
        <ele>354.6</ele>
        <time>2012-11-18T13:19:16Z</time>
      </trkpt>
      <trkpt lat="43.4521" lon="6.06055">
        <ele>354.6</ele>
        <time>2012-11-18T13:19:17Z</time>
      </trkpt>
      <trkpt lat="43.45204" lon="6.06076">
        <ele>354.2</ele>
        <time>2012-11-18T13:19:42Z</time>
      </trkpt>
      <trkpt lat="43.45201" lon="6.06088">
        <ele>354</ele>
        <time>2012-11-18T13:19:52Z</time>
      </trkpt>
      <trkpt lat="43.45198" lon="6.06098">
        <ele>353.6</ele>
        <time>2012-11-18T13:20:00Z</time>
      </trkpt>
      <trkpt lat="43.45193" lon="6.06108">
        <ele>353.1</ele>
        <time>2012-11-18T13:20:09Z</time>
      </trkpt>
      <trkpt lat="43.45192" lon="6.0612">
        <ele>352.7</ele>
        <time>2012-11-18T13:20:19Z</time>
      </trkpt>
      <trkpt lat="43.45192" lon="6.06121">
        <ele>352.5</ele>
        <time>2012-11-18T13:20:20Z</time>
      </trkpt>
      <trkpt lat="43.45203" lon="6.06138">
        <ele>352.3</ele>
        <time>2012-11-18T13:20:43Z</time>
      </trkpt>
      <trkpt lat="43.45208" lon="6.06148">
        <ele>350.8</ele>
        <time>2012-11-18T13:20:56Z</time>
      </trkpt>
      <trkpt lat="43.45213" lon="6.06157">
        <ele>349.5</ele>
        <time>2012-11-18T13:21:04Z</time>
      </trkpt>
      <trkpt lat="43.4522" lon="6.06165">
        <ele>349.4</ele>
        <time>2012-11-18T13:21:11Z</time>
      </trkpt>
      <trkpt lat="43.45226" lon="6.06173">
        <ele>349.2</ele>
        <time>2012-11-18T13:21:19Z</time>
      </trkpt>
      <trkpt lat="43.45232" lon="6.06182">
        <ele>348.7</ele>
        <time>2012-11-18T13:21:28Z</time>
      </trkpt>
      <trkpt lat="43.45232" lon="6.06183">
        <ele>348.5</ele>
        <time>2012-11-18T13:21:29Z</time>
      </trkpt>
      <trkpt lat="43.45242" lon="6.06199">
        <ele>349.2</ele>
        <time>2012-11-18T13:21:44Z</time>
      </trkpt>
      <trkpt lat="43.45247" lon="6.06208">
        <ele>349.5</ele>
        <time>2012-11-18T13:21:56Z</time>
      </trkpt>
      <trkpt lat="43.4525" lon="6.0622">
        <ele>352</ele>
        <time>2012-11-18T13:22:16Z</time>
      </trkpt>
      <trkpt lat="43.45257" lon="6.06226">
        <ele>353.6</ele>
        <time>2012-11-18T13:22:31Z</time>
      </trkpt>
      <trkpt lat="43.45258" lon="6.06226">
        <ele>353.8</ele>
        <time>2012-11-18T13:22:32Z</time>
      </trkpt>
      <trkpt lat="43.45271" lon="6.0624">
        <ele>355.7</ele>
        <time>2012-11-18T13:23:01Z</time>
      </trkpt>
      <trkpt lat="43.45278" lon="6.06246">
        <ele>355.6</ele>
        <time>2012-11-18T13:23:13Z</time>
      </trkpt>
      <trkpt lat="43.45286" lon="6.06252">
        <ele>354.9</ele>
        <time>2012-11-18T13:23:26Z</time>
      </trkpt>
      <trkpt lat="43.45293" lon="6.06259">
        <ele>353.7</ele>
        <time>2012-11-18T13:23:54Z</time>
      </trkpt>
      <trkpt lat="43.45293" lon="6.0626">
        <ele>353.8</ele>
        <time>2012-11-18T13:23:55Z</time>
      </trkpt>
      <trkpt lat="43.45292" lon="6.06284">
        <ele>353.7</ele>
        <time>2012-11-18T13:24:27Z</time>
      </trkpt>
      <trkpt lat="43.45293" lon="6.06295">
        <ele>353.4</ele>
        <time>2012-11-18T13:24:35Z</time>
      </trkpt>
      <trkpt lat="43.45293" lon="6.06307">
        <ele>353.4</ele>
        <time>2012-11-18T13:24:45Z</time>
      </trkpt>
      <trkpt lat="43.45294" lon="6.0632">
        <ele>353.6</ele>
        <time>2012-11-18T13:24:54Z</time>
      </trkpt>
      <trkpt lat="43.45293" lon="6.06331">
        <ele>353.6</ele>
        <time>2012-11-18T13:25:02Z</time>
      </trkpt>
      <trkpt lat="43.45293" lon="6.06333">
        <ele>353.6</ele>
        <time>2012-11-18T13:25:03Z</time>
      </trkpt>
      <trkpt lat="43.45287" lon="6.06353">
        <ele>353.6</ele>
        <time>2012-11-18T13:25:20Z</time>
      </trkpt>
      <trkpt lat="43.45285" lon="6.06364">
        <ele>354.2</ele>
        <time>2012-11-18T13:25:28Z</time>
      </trkpt>
      <trkpt lat="43.45282" lon="6.06375">
        <ele>353.7</ele>
        <time>2012-11-18T13:25:37Z</time>
      </trkpt>
      <trkpt lat="43.45278" lon="6.06386">
        <ele>353.3</ele>
        <time>2012-11-18T13:25:45Z</time>
      </trkpt>
      <trkpt lat="43.45274" lon="6.06396">
        <ele>353.6</ele>
        <time>2012-11-18T13:25:52Z</time>
      </trkpt>
      <trkpt lat="43.45273" lon="6.06407">
        <ele>353.3</ele>
        <time>2012-11-18T13:25:59Z</time>
      </trkpt>
      <trkpt lat="43.45273" lon="6.06419">
        <ele>353.6</ele>
        <time>2012-11-18T13:26:06Z</time>
      </trkpt>
      <trkpt lat="43.45272" lon="6.0642">
        <ele>353.6</ele>
        <time>2012-11-18T13:26:07Z</time>
      </trkpt>
      <trkpt lat="43.45271" lon="6.06442">
        <ele>353.2</ele>
        <time>2012-11-18T13:26:22Z</time>
      </trkpt>
      <trkpt lat="43.45271" lon="6.06454">
        <ele>352.8</ele>
        <time>2012-11-18T13:26:30Z</time>
      </trkpt>
      <trkpt lat="43.45268" lon="6.06464">
        <ele>352.5</ele>
        <time>2012-11-18T13:26:37Z</time>
      </trkpt>
      <trkpt lat="43.45264" lon="6.06474">
        <ele>352.7</ele>
        <time>2012-11-18T13:26:44Z</time>
      </trkpt>
      <trkpt lat="43.4526" lon="6.06484">
        <ele>351.4</ele>
        <time>2012-11-18T13:26:51Z</time>
      </trkpt>
      <trkpt lat="43.45255" lon="6.06494">
        <ele>351.3</ele>
        <time>2012-11-18T13:26:59Z</time>
      </trkpt>
      <trkpt lat="43.4525" lon="6.06504">
        <ele>349.6</ele>
        <time>2012-11-18T13:27:09Z</time>
      </trkpt>
      <trkpt lat="43.4525" lon="6.06505">
        <ele>349.5</ele>
        <time>2012-11-18T13:27:10Z</time>
      </trkpt>
      <trkpt lat="43.4524" lon="6.06523">
        <ele>347.9</ele>
        <time>2012-11-18T13:27:29Z</time>
      </trkpt>
      <trkpt lat="43.45236" lon="6.06534">
        <ele>346.3</ele>
        <time>2012-11-18T13:27:37Z</time>
      </trkpt>
      <trkpt lat="43.45233" lon="6.06545">
        <ele>346.3</ele>
        <time>2012-11-18T13:27:44Z</time>
      </trkpt>
      <trkpt lat="43.4523" lon="6.06556">
        <ele>345.4</ele>
        <time>2012-11-18T13:27:55Z</time>
      </trkpt>
      <trkpt lat="43.45229" lon="6.06567">
        <ele>344</ele>
        <time>2012-11-18T13:28:04Z</time>
      </trkpt>
      <trkpt lat="43.45226" lon="6.06578">
        <ele>343.1</ele>
        <time>2012-11-18T13:28:13Z</time>
      </trkpt>
      <trkpt lat="43.45226" lon="6.06579">
        <ele>343</ele>
        <time>2012-11-18T13:28:14Z</time>
      </trkpt>
      <trkpt lat="43.45221" lon="6.066">
        <ele>340.7</ele>
        <time>2012-11-18T13:28:32Z</time>
      </trkpt>
      <trkpt lat="43.45218" lon="6.06612">
        <ele>339.8</ele>
        <time>2012-11-18T13:28:40Z</time>
      </trkpt>
      <trkpt lat="43.45215" lon="6.06623">
        <ele>339.2</ele>
        <time>2012-11-18T13:28:49Z</time>
      </trkpt>
      <trkpt lat="43.45211" lon="6.06633">
        <ele>339</ele>
        <time>2012-11-18T13:28:57Z</time>
      </trkpt>
      <trkpt lat="43.45207" lon="6.06644">
        <ele>338.3</ele>
        <time>2012-11-18T13:29:06Z</time>
      </trkpt>
      <trkpt lat="43.45204" lon="6.06654">
        <ele>337.7</ele>
        <time>2012-11-18T13:29:15Z</time>
      </trkpt>
      <trkpt lat="43.45203" lon="6.06655">
        <ele>338</ele>
        <time>2012-11-18T13:29:16Z</time>
      </trkpt>
      <trkpt lat="43.45203" lon="6.06677">
        <ele>337</ele>
        <time>2012-11-18T13:29:31Z</time>
      </trkpt>
      <trkpt lat="43.45205" lon="6.06689">
        <ele>336.8</ele>
        <time>2012-11-18T13:29:39Z</time>
      </trkpt>
      <trkpt lat="43.45207" lon="6.067">
        <ele>337.1</ele>
        <time>2012-11-18T13:29:47Z</time>
      </trkpt>
      <trkpt lat="43.45207" lon="6.06712">
        <ele>336.9</ele>
        <time>2012-11-18T13:29:55Z</time>
      </trkpt>
      <trkpt lat="43.45205" lon="6.06723">
        <ele>336.1</ele>
        <time>2012-11-18T13:30:05Z</time>
      </trkpt>
      <trkpt lat="43.45201" lon="6.06734">
        <ele>336.5</ele>
        <time>2012-11-18T13:30:13Z</time>
      </trkpt>
      <trkpt lat="43.45197" lon="6.06744">
        <ele>335.5</ele>
        <time>2012-11-18T13:30:23Z</time>
      </trkpt>
      <trkpt lat="43.45196" lon="6.06745">
        <ele>335.1</ele>
        <time>2012-11-18T13:30:24Z</time>
      </trkpt>
      <trkpt lat="43.45185" lon="6.06761">
        <ele>332.9</ele>
        <time>2012-11-18T13:30:41Z</time>
      </trkpt>
      <trkpt lat="43.45181" lon="6.06772">
        <ele>330.7</ele>
        <time>2012-11-18T13:31:00Z</time>
      </trkpt>
      <trkpt lat="43.45187" lon="6.06781">
        <ele>331.4</ele>
        <time>2012-11-18T13:31:54Z</time>
      </trkpt>
      <trkpt lat="43.45187" lon="6.06782">
        <ele>331.2</ele>
        <time>2012-11-18T13:31:55Z</time>
      </trkpt>
      <trkpt lat="43.45179" lon="6.06801">
        <ele>330.9</ele>
        <time>2012-11-18T13:32:18Z</time>
      </trkpt>
      <trkpt lat="43.45183" lon="6.06812">
        <ele>331.6</ele>
        <time>2012-11-18T13:32:26Z</time>
      </trkpt>
      <trkpt lat="43.45179" lon="6.06822">
        <ele>332.7</ele>
        <time>2012-11-18T13:32:56Z</time>
      </trkpt>
      <trkpt lat="43.45179" lon="6.06824">
        <ele>332.3</ele>
        <time>2012-11-18T13:32:57Z</time>
      </trkpt>
      <trkpt lat="43.45175" lon="6.06845">
        <ele>334.2</ele>
        <time>2012-11-18T13:33:16Z</time>
      </trkpt>
      <trkpt lat="43.45174" lon="6.06857">
        <ele>334.6</ele>
        <time>2012-11-18T13:33:25Z</time>
      </trkpt>
      <trkpt lat="43.45175" lon="6.06869">
        <ele>335.3</ele>
        <time>2012-11-18T13:33:40Z</time>
      </trkpt>
      <trkpt lat="43.45177" lon="6.0688">
        <ele>336.4</ele>
        <time>2012-11-18T13:33:50Z</time>
      </trkpt>
      <trkpt lat="43.45177" lon="6.06891">
        <ele>337.4</ele>
        <time>2012-11-18T13:34:01Z</time>
      </trkpt>
      <trkpt lat="43.45177" lon="6.06893">
        <ele>337.8</ele>
        <time>2012-11-18T13:34:02Z</time>
      </trkpt>
      <trkpt lat="43.45181" lon="6.06914">
        <ele>340.4</ele>
        <time>2012-11-18T13:34:25Z</time>
      </trkpt>
      <trkpt lat="43.45176" lon="6.06924">
        <ele>340.3</ele>
        <time>2012-11-18T13:34:36Z</time>
      </trkpt>
      <trkpt lat="43.45172" lon="6.06935">
        <ele>340.1</ele>
        <time>2012-11-18T13:34:47Z</time>
      </trkpt>
      <trkpt lat="43.45167" lon="6.06945">
        <ele>340.5</ele>
        <time>2012-11-18T13:34:58Z</time>
      </trkpt>
      <trkpt lat="43.45162" lon="6.06954">
        <ele>341.7</ele>
        <time>2012-11-18T13:35:08Z</time>
      </trkpt>
      <trkpt lat="43.45161" lon="6.06955">
        <ele>341.7</ele>
        <time>2012-11-18T13:35:09Z</time>
      </trkpt>
      <trkpt lat="43.45152" lon="6.06973">
        <ele>342.4</ele>
        <time>2012-11-18T13:35:27Z</time>
      </trkpt>
      <trkpt lat="43.45149" lon="6.06984">
        <ele>343.2</ele>
        <time>2012-11-18T13:35:36Z</time>
      </trkpt>
      <trkpt lat="43.45149" lon="6.06996">
        <ele>343.3</ele>
        <time>2012-11-18T13:35:44Z</time>
      </trkpt>
      <trkpt lat="43.45147" lon="6.07007">
        <ele>343.2</ele>
        <time>2012-11-18T13:35:52Z</time>
      </trkpt>
      <trkpt lat="43.45148" lon="6.07019">
        <ele>342.5</ele>
        <time>2012-11-18T13:36:00Z</time>
      </trkpt>
      <trkpt lat="43.4515" lon="6.0703">
        <ele>342.2</ele>
        <time>2012-11-18T13:36:07Z</time>
      </trkpt>
      <trkpt lat="43.45151" lon="6.07041">
        <ele>342</ele>
        <time>2012-11-18T13:36:15Z</time>
      </trkpt>
      <trkpt lat="43.45152" lon="6.07043">
        <ele>342</ele>
        <time>2012-11-18T13:36:16Z</time>
      </trkpt>
      <trkpt lat="43.45157" lon="6.07063">
        <ele>341.8</ele>
        <time>2012-11-18T13:36:33Z</time>
      </trkpt>
      <trkpt lat="43.45161" lon="6.07074">
        <ele>341</ele>
        <time>2012-11-18T13:36:41Z</time>
      </trkpt>
      <trkpt lat="43.45166" lon="6.07083">
        <ele>341.2</ele>
        <time>2012-11-18T13:36:50Z</time>
      </trkpt>
      <trkpt lat="43.45168" lon="6.07095">
        <ele>341.8</ele>
        <time>2012-11-18T13:36:59Z</time>
      </trkpt>
      <trkpt lat="43.45169" lon="6.07106">
        <ele>342</ele>
        <time>2012-11-18T13:37:07Z</time>
      </trkpt>
      <trkpt lat="43.45169" lon="6.07118">
        <ele>342</ele>
        <time>2012-11-18T13:37:16Z</time>
      </trkpt>
      <trkpt lat="43.45169" lon="6.0712">
        <ele>342.2</ele>
        <time>2012-11-18T13:37:17Z</time>
      </trkpt>
      <trkpt lat="43.45168" lon="6.07141">
        <ele>343</ele>
        <time>2012-11-18T13:37:33Z</time>
      </trkpt>
      <trkpt lat="43.45164" lon="6.07151">
        <ele>343.4</ele>
        <time>2012-11-18T13:37:41Z</time>
      </trkpt>
      <trkpt lat="43.4516" lon="6.07162">
        <ele>343.6</ele>
        <time>2012-11-18T13:37:50Z</time>
      </trkpt>
      <trkpt lat="43.45156" lon="6.07172">
        <ele>344</ele>
        <time>2012-11-18T13:37:59Z</time>
      </trkpt>
      <trkpt lat="43.45151" lon="6.07182">
        <ele>345</ele>
        <time>2012-11-18T13:38:08Z</time>
      </trkpt>
      <trkpt lat="43.45146" lon="6.07191">
        <ele>345.3</ele>
        <time>2012-11-18T13:38:16Z</time>
      </trkpt>
      <trkpt lat="43.4514" lon="6.072">
        <ele>346.2</ele>
        <time>2012-11-18T13:38:24Z</time>
      </trkpt>
      <trkpt lat="43.4514" lon="6.07201">
        <ele>346.2</ele>
        <time>2012-11-18T13:38:25Z</time>
      </trkpt>
      <trkpt lat="43.45131" lon="6.07219">
        <ele>346.8</ele>
        <time>2012-11-18T13:38:41Z</time>
      </trkpt>
      <trkpt lat="43.45126" lon="6.07228">
        <ele>346.9</ele>
        <time>2012-11-18T13:38:48Z</time>
      </trkpt>
      <trkpt lat="43.45122" lon="6.07238">
        <ele>346.6</ele>
        <time>2012-11-18T13:38:57Z</time>
      </trkpt>
      <trkpt lat="43.45118" lon="6.07248">
        <ele>346.8</ele>
        <time>2012-11-18T13:39:05Z</time>
      </trkpt>
      <trkpt lat="43.45112" lon="6.07257">
        <ele>347.2</ele>
        <time>2012-11-18T13:39:14Z</time>
      </trkpt>
      <trkpt lat="43.45105" lon="6.07263">
        <ele>348.4</ele>
        <time>2012-11-18T13:39:23Z</time>
      </trkpt>
      <trkpt lat="43.45099" lon="6.07273">
        <ele>349.3</ele>
        <time>2012-11-18T13:39:35Z</time>
      </trkpt>
      <trkpt lat="43.45099" lon="6.07274">
        <ele>349.8</ele>
        <time>2012-11-18T13:39:36Z</time>
      </trkpt>
      <trkpt lat="43.4509" lon="6.07291">
        <ele>350.1</ele>
        <time>2012-11-18T13:39:51Z</time>
      </trkpt>
      <trkpt lat="43.45082" lon="6.07296">
        <ele>351.7</ele>
        <time>2012-11-18T13:40:02Z</time>
      </trkpt>
      <trkpt lat="43.45074" lon="6.07295">
        <ele>352.8</ele>
        <time>2012-11-18T13:40:14Z</time>
      </trkpt>
      <trkpt lat="43.45067" lon="6.07289">
        <ele>354.2</ele>
        <time>2012-11-18T13:40:26Z</time>
      </trkpt>
      <trkpt lat="43.4506" lon="6.0728">
        <ele>355.1</ele>
        <time>2012-11-18T13:40:36Z</time>
      </trkpt>
      <trkpt lat="43.4506" lon="6.07279">
        <ele>355.2</ele>
        <time>2012-11-18T13:40:37Z</time>
      </trkpt>
      <trkpt lat="43.45044" lon="6.07277">
        <ele>357.6</ele>
        <time>2012-11-18T13:40:58Z</time>
      </trkpt>
      <trkpt lat="43.45036" lon="6.07276">
        <ele>358</ele>
        <time>2012-11-18T13:41:07Z</time>
      </trkpt>
      <trkpt lat="43.45028" lon="6.07279">
        <ele>357.2</ele>
        <time>2012-11-18T13:41:15Z</time>
      </trkpt>
      <trkpt lat="43.45019" lon="6.07282">
        <ele>357.1</ele>
        <time>2012-11-18T13:41:25Z</time>
      </trkpt>
      <trkpt lat="43.45011" lon="6.07288">
        <ele>357.3</ele>
        <time>2012-11-18T13:41:33Z</time>
      </trkpt>
      <trkpt lat="43.45005" lon="6.07297">
        <ele>357.2</ele>
        <time>2012-11-18T13:42:19Z</time>
      </trkpt>
      <trkpt lat="43.45005" lon="6.07298">
        <ele>357.2</ele>
        <time>2012-11-18T13:42:20Z</time>
      </trkpt>
      <trkpt lat="43.45005" lon="6.07284">
        <ele>356.7</ele>
        <time>2012-11-18T13:46:10Z</time>
      </trkpt>
      <trkpt lat="43.45004" lon="6.07261">
        <ele>359.5</ele>
        <time>2012-11-18T13:46:44Z</time>
      </trkpt>
      <trkpt lat="43.44999" lon="6.07251">
        <ele>359.2</ele>
        <time>2012-11-18T13:49:12Z</time>
      </trkpt>
      <trkpt lat="43.44998" lon="6.0725">
        <ele>359.2</ele>
        <time>2012-11-18T13:49:13Z</time>
      </trkpt>
      <trkpt lat="43.45005" lon="6.07261">
        <ele>359</ele>
        <time>2012-11-18T13:52:20Z</time>
      </trkpt>
      <trkpt lat="43.45011" lon="6.07271">
        <ele>356.7</ele>
        <time>2012-11-18T13:53:21Z</time>
      </trkpt>
      <trkpt lat="43.45012" lon="6.07271">
        <ele>356.7</ele>
        <time>2012-11-18T13:53:22Z</time>
      </trkpt>
      <trkpt lat="43.45025" lon="6.07266">
        <ele>356.3</ele>
        <time>2012-11-18T13:53:56Z</time>
      </trkpt>
      <trkpt lat="43.45027" lon="6.07255">
        <ele>355.1</ele>
        <time>2012-11-18T13:54:24Z</time>
      </trkpt>
      <trkpt lat="43.45027" lon="6.07254">
        <ele>355.3</ele>
        <time>2012-11-18T13:54:25Z</time>
      </trkpt>
      <trkpt lat="43.45018" lon="6.07235">
        <ele>353.1</ele>
        <time>2012-11-18T13:54:53Z</time>
      </trkpt>
      <trkpt lat="43.4501" lon="6.07229">
        <ele>351.8</ele>
        <time>2012-11-18T13:55:18Z</time>
      </trkpt>
      <trkpt lat="43.45004" lon="6.07222">
        <ele>349.6</ele>
        <time>2012-11-18T13:56:05Z</time>
      </trkpt>
      <trkpt lat="43.45003" lon="6.07221">
        <ele>349.4</ele>
        <time>2012-11-18T13:56:06Z</time>
      </trkpt>
      <trkpt lat="43.45002" lon="6.07208">
        <ele>343.2</ele>
        <time>2012-11-18T13:56:51Z</time>
      </trkpt>
      <trkpt lat="43.45011" lon="6.07209">
        <ele>342.3</ele>
        <time>2012-11-18T13:57:02Z</time>
      </trkpt>
      <trkpt lat="43.4501" lon="6.07196">
        <ele>339.1</ele>
        <time>2012-11-18T13:57:29Z</time>
      </trkpt>
      <trkpt lat="43.4501" lon="6.07196">
        <ele>338.9</ele>
        <time>2012-11-18T13:57:30Z</time>
      </trkpt>
      <trkpt lat="43.44997" lon="6.07184">
        <ele>335.6</ele>
        <time>2012-11-18T13:57:50Z</time>
      </trkpt>
      <trkpt lat="43.44988" lon="6.07183">
        <ele>334.5</ele>
        <time>2012-11-18T13:57:59Z</time>
      </trkpt>
      <trkpt lat="43.44979" lon="6.07185">
        <ele>334.9</ele>
        <time>2012-11-18T13:58:10Z</time>
      </trkpt>
      <trkpt lat="43.44971" lon="6.0719">
        <ele>332.7</ele>
        <time>2012-11-18T13:58:32Z</time>
      </trkpt>
      <trkpt lat="43.4497" lon="6.0719">
        <ele>332.8</ele>
        <time>2012-11-18T13:58:33Z</time>
      </trkpt>
      <trkpt lat="43.44955" lon="6.07184">
        <ele>331.7</ele>
        <time>2012-11-18T13:58:50Z</time>
      </trkpt>
      <trkpt lat="43.44947" lon="6.0718">
        <ele>331.7</ele>
        <time>2012-11-18T13:59:04Z</time>
      </trkpt>
      <trkpt lat="43.4494" lon="6.07173">
        <ele>330.5</ele>
        <time>2012-11-18T13:59:14Z</time>
      </trkpt>
      <trkpt lat="43.44936" lon="6.07163">
        <ele>329.7</ele>
        <time>2012-11-18T13:59:22Z</time>
      </trkpt>
      <trkpt lat="43.44935" lon="6.07151">
        <ele>328.8</ele>
        <time>2012-11-18T13:59:31Z</time>
      </trkpt>
      <trkpt lat="43.44933" lon="6.07139">
        <ele>326.5</ele>
        <time>2012-11-18T13:59:40Z</time>
      </trkpt>
      <trkpt lat="43.44933" lon="6.07138">
        <ele>327</ele>
        <time>2012-11-18T13:59:41Z</time>
      </trkpt>
      <trkpt lat="43.44928" lon="6.07116">
        <ele>323.1</ele>
        <time>2012-11-18T14:00:02Z</time>
      </trkpt>
      <trkpt lat="43.44928" lon="6.07104">
        <ele>321</ele>
        <time>2012-11-18T14:00:15Z</time>
      </trkpt>
      <trkpt lat="43.44928" lon="6.07092">
        <ele>318.6</ele>
        <time>2012-11-18T14:00:29Z</time>
      </trkpt>
      <trkpt lat="43.44926" lon="6.0708">
        <ele>316.8</ele>
        <time>2012-11-18T14:00:42Z</time>
      </trkpt>
      <trkpt lat="43.44926" lon="6.0708">
        <ele>316.5</ele>
        <time>2012-11-18T14:00:43Z</time>
      </trkpt>
      <trkpt lat="43.44922" lon="6.07057">
        <ele>312.2</ele>
        <time>2012-11-18T14:01:10Z</time>
      </trkpt>
      <trkpt lat="43.44919" lon="6.07046">
        <ele>309.4</ele>
        <time>2012-11-18T14:01:26Z</time>
      </trkpt>
      <trkpt lat="43.44918" lon="6.07034">
        <ele>306</ele>
        <time>2012-11-18T14:01:40Z</time>
      </trkpt>
      <trkpt lat="43.44918" lon="6.07022">
        <ele>304.2</ele>
        <time>2012-11-18T14:01:57Z</time>
      </trkpt>
      <trkpt lat="43.44917" lon="6.07021">
        <ele>304</ele>
        <time>2012-11-18T14:01:58Z</time>
      </trkpt>
      <trkpt lat="43.44911" lon="6.07">
        <ele>298.1</ele>
        <time>2012-11-18T14:02:26Z</time>
      </trkpt>
      <trkpt lat="43.44904" lon="6.06994">
        <ele>295.8</ele>
        <time>2012-11-18T14:02:40Z</time>
      </trkpt>
      <trkpt lat="43.44901" lon="6.06983">
        <ele>292.4</ele>
        <time>2012-11-18T14:02:59Z</time>
      </trkpt>
      <trkpt lat="43.449" lon="6.06982">
        <ele>292.4</ele>
        <time>2012-11-18T14:03:00Z</time>
      </trkpt>
      <trkpt lat="43.44894" lon="6.06969">
        <ele>289.9</ele>
        <time>2012-11-18T14:03:23Z</time>
      </trkpt>
      <trkpt lat="43.44886" lon="6.06968">
        <ele>288.8</ele>
        <time>2012-11-18T14:03:43Z</time>
      </trkpt>
      <trkpt lat="43.44879" lon="6.0696">
        <ele>287.1</ele>
        <time>2012-11-18T14:04:36Z</time>
      </trkpt>
      <trkpt lat="43.44878" lon="6.06961">
        <ele>287</ele>
        <time>2012-11-18T14:04:37Z</time>
      </trkpt>
      <trkpt lat="43.44875" lon="6.06971">
        <ele>285.2</ele>
        <time>2012-11-18T14:05:45Z</time>
      </trkpt>
      <trkpt lat="43.44863" lon="6.06984">
        <ele>284.5</ele>
        <time>2012-11-18T14:05:58Z</time>
      </trkpt>
      <trkpt lat="43.44859" lon="6.06995">
        <ele>284.1</ele>
        <time>2012-11-18T14:06:05Z</time>
      </trkpt>
      <trkpt lat="43.44852" lon="6.07003">
        <ele>283.5</ele>
        <time>2012-11-18T14:06:13Z</time>
      </trkpt>
      <trkpt lat="43.44849" lon="6.07013">
        <ele>282.9</ele>
        <time>2012-11-18T14:06:20Z</time>
      </trkpt>
      <trkpt lat="43.44846" lon="6.07024">
        <ele>282</ele>
        <time>2012-11-18T14:06:28Z</time>
      </trkpt>
      <trkpt lat="43.44842" lon="6.07033">
        <ele>281.8</ele>
        <time>2012-11-18T14:06:36Z</time>
      </trkpt>
      <trkpt lat="43.44838" lon="6.07044">
        <ele>280.5</ele>
        <time>2012-11-18T14:06:46Z</time>
      </trkpt>
      <trkpt lat="43.44838" lon="6.07045">
        <ele>280.4</ele>
        <time>2012-11-18T14:06:47Z</time>
      </trkpt>
      <trkpt lat="43.44825" lon="6.07059">
        <ele>278.4</ele>
        <time>2012-11-18T14:07:04Z</time>
      </trkpt>
      <trkpt lat="43.44817" lon="6.07064">
        <ele>277.7</ele>
        <time>2012-11-18T14:07:13Z</time>
      </trkpt>
      <trkpt lat="43.44809" lon="6.07067">
        <ele>277</ele>
        <time>2012-11-18T14:07:24Z</time>
      </trkpt>
      <trkpt lat="43.44802" lon="6.07074">
        <ele>277</ele>
        <time>2012-11-18T14:07:33Z</time>
      </trkpt>
      <trkpt lat="43.44795" lon="6.07082">
        <ele>276.5</ele>
        <time>2012-11-18T14:07:41Z</time>
      </trkpt>
      <trkpt lat="43.44789" lon="6.07088">
        <ele>275.3</ele>
        <time>2012-11-18T14:07:49Z</time>
      </trkpt>
      <trkpt lat="43.44787" lon="6.0709">
        <ele>275.1</ele>
        <time>2012-11-18T14:07:50Z</time>
      </trkpt>
      <trkpt lat="43.44778" lon="6.07106">
        <ele>274.5</ele>
        <time>2012-11-18T14:08:08Z</time>
      </trkpt>
      <trkpt lat="43.44771" lon="6.07112">
        <ele>273</ele>
        <time>2012-11-18T14:08:17Z</time>
      </trkpt>
      <trkpt lat="43.44764" lon="6.0712">
        <ele>272.5</ele>
        <time>2012-11-18T14:08:24Z</time>
      </trkpt>
      <trkpt lat="43.44758" lon="6.07129">
        <ele>271.2</ele>
        <time>2012-11-18T14:08:32Z</time>
      </trkpt>
      <trkpt lat="43.4475" lon="6.07134">
        <ele>269.8</ele>
        <time>2012-11-18T14:08:41Z</time>
      </trkpt>
      <trkpt lat="43.44744" lon="6.07141">
        <ele>267.9</ele>
        <time>2012-11-18T14:08:49Z</time>
      </trkpt>
      <trkpt lat="43.44736" lon="6.07146">
        <ele>268.1</ele>
        <time>2012-11-18T14:08:57Z</time>
      </trkpt>
      <trkpt lat="43.44736" lon="6.07147">
        <ele>268.4</ele>
        <time>2012-11-18T14:08:58Z</time>
      </trkpt>
      <trkpt lat="43.44722" lon="6.07158">
        <ele>266.4</ele>
        <time>2012-11-18T14:09:12Z</time>
      </trkpt>
      <trkpt lat="43.44713" lon="6.07162">
        <ele>266</ele>
        <time>2012-11-18T14:09:21Z</time>
      </trkpt>
      <trkpt lat="43.44705" lon="6.07164">
        <ele>266</ele>
        <time>2012-11-18T14:09:33Z</time>
      </trkpt>
      <trkpt lat="43.44696" lon="6.07164">
        <ele>264.8</ele>
        <time>2012-11-18T14:09:40Z</time>
      </trkpt>
      <trkpt lat="43.44689" lon="6.07164">
        <ele>264.7</ele>
        <time>2012-11-18T14:09:47Z</time>
      </trkpt>
      <trkpt lat="43.4468" lon="6.07165">
        <ele>264.4</ele>
        <time>2012-11-18T14:09:55Z</time>
      </trkpt>
      <trkpt lat="43.44671" lon="6.07163">
        <ele>263.5</ele>
        <time>2012-11-18T14:10:05Z</time>
      </trkpt>
      <trkpt lat="43.44671" lon="6.07163">
        <ele>263.6</ele>
        <time>2012-11-18T14:10:06Z</time>
      </trkpt>
      <trkpt lat="43.44654" lon="6.07163">
        <ele>263.2</ele>
        <time>2012-11-18T14:10:26Z</time>
      </trkpt>
      <trkpt lat="43.44656" lon="6.07174">
        <ele>263</ele>
        <time>2012-11-18T14:10:58Z</time>
      </trkpt>
      <trkpt lat="43.44649" lon="6.07168">
        <ele>262.9</ele>
        <time>2012-11-18T14:11:29Z</time>
      </trkpt>
      <trkpt lat="43.44648" lon="6.07168">
        <ele>263.3</ele>
        <time>2012-11-18T14:11:30Z</time>
      </trkpt>
      <trkpt lat="43.44632" lon="6.07165">
        <ele>261.8</ele>
        <time>2012-11-18T14:11:45Z</time>
      </trkpt>
      <trkpt lat="43.44623" lon="6.07166">
        <ele>261.5</ele>
        <time>2012-11-18T14:11:53Z</time>
      </trkpt>
      <trkpt lat="43.44616" lon="6.07167">
        <ele>261.1</ele>
        <time>2012-11-18T14:11:59Z</time>
      </trkpt>
      <trkpt lat="43.44607" lon="6.07167">
        <ele>260.4</ele>
        <time>2012-11-18T14:12:07Z</time>
      </trkpt>
      <trkpt lat="43.44599" lon="6.07166">
        <ele>260.5</ele>
        <time>2012-11-18T14:12:15Z</time>
      </trkpt>
      <trkpt lat="43.4459" lon="6.07166">
        <ele>259.3</ele>
        <time>2012-11-18T14:12:23Z</time>
      </trkpt>
      <trkpt lat="43.44581" lon="6.07164">
        <ele>257.4</ele>
        <time>2012-11-18T14:12:32Z</time>
      </trkpt>
      <trkpt lat="43.4458" lon="6.07165">
        <ele>257.4</ele>
        <time>2012-11-18T14:12:33Z</time>
      </trkpt>
      <trkpt lat="43.44564" lon="6.07166">
        <ele>256.6</ele>
        <time>2012-11-18T14:12:46Z</time>
      </trkpt>
      <trkpt lat="43.44555" lon="6.07168">
        <ele>256</ele>
        <time>2012-11-18T14:12:54Z</time>
      </trkpt>
      <trkpt lat="43.44547" lon="6.0717">
        <ele>256.2</ele>
        <time>2012-11-18T14:13:02Z</time>
      </trkpt>
      <trkpt lat="43.44539" lon="6.07174">
        <ele>254.8</ele>
        <time>2012-11-18T14:13:11Z</time>
      </trkpt>
      <trkpt lat="43.44531" lon="6.07178">
        <ele>253</ele>
        <time>2012-11-18T14:13:20Z</time>
      </trkpt>
      <trkpt lat="43.44523" lon="6.07183">
        <ele>251.7</ele>
        <time>2012-11-18T14:13:26Z</time>
      </trkpt>
      <trkpt lat="43.44515" lon="6.07187">
        <ele>251.3</ele>
        <time>2012-11-18T14:13:35Z</time>
      </trkpt>
      <trkpt lat="43.44514" lon="6.07188">
        <ele>250.8</ele>
        <time>2012-11-18T14:13:36Z</time>
      </trkpt>
      <trkpt lat="43.445" lon="6.07197">
        <ele>249.6</ele>
        <time>2012-11-18T14:13:53Z</time>
      </trkpt>
      <trkpt lat="43.44491" lon="6.07199">
        <ele>248.2</ele>
        <time>2012-11-18T14:14:02Z</time>
      </trkpt>
      <trkpt lat="43.44483" lon="6.07199">
        <ele>247.1</ele>
        <time>2012-11-18T14:14:10Z</time>
      </trkpt>
      <trkpt lat="43.44476" lon="6.07196">
        <ele>246.8</ele>
        <time>2012-11-18T14:14:17Z</time>
      </trkpt>
      <trkpt lat="43.44468" lon="6.07192">
        <ele>246.4</ele>
        <time>2012-11-18T14:14:24Z</time>
      </trkpt>
      <trkpt lat="43.4446" lon="6.07189">
        <ele>246</ele>
        <time>2012-11-18T14:14:32Z</time>
      </trkpt>
      <trkpt lat="43.44452" lon="6.07187">
        <ele>245.1</ele>
        <time>2012-11-18T14:14:39Z</time>
      </trkpt>
      <trkpt lat="43.44451" lon="6.07187">
        <ele>244.9</ele>
        <time>2012-11-18T14:14:40Z</time>
      </trkpt>
      <trkpt lat="43.44435" lon="6.07186">
        <ele>244.6</ele>
        <time>2012-11-18T14:14:53Z</time>
      </trkpt>
      <trkpt lat="43.44426" lon="6.07185">
        <ele>243.9</ele>
        <time>2012-11-18T14:15:01Z</time>
      </trkpt>
      <trkpt lat="43.44418" lon="6.07183">
        <ele>244.3</ele>
        <time>2012-11-18T14:15:09Z</time>
      </trkpt>
      <trkpt lat="43.4441" lon="6.07178">
        <ele>243.6</ele>
        <time>2012-11-18T14:15:19Z</time>
      </trkpt>
      <trkpt lat="43.44401" lon="6.07177">
        <ele>243</ele>
        <time>2012-11-18T14:16:57Z</time>
      </trkpt>
      <trkpt lat="43.44401" lon="6.07177">
        <ele>243</ele>
        <time>2012-11-18T14:16:58Z</time>
      </trkpt>
    </trkseg>
  </trk>
</gpx>